[[{"header":{"parameterUnit":"m.s-1","parameterCategory":1,"la1":30.6,"la2":29.2853,"lo1":-89.7004,"lo2":-87.6739,"dx":0.0162,"dy":0.0183,"nx":112,"ny":82,"refTime":"2022-11-21T18:00:00:Z","depth":0,"parameterNumber":2,"parameterNumberName":"U-component_of_WINDS"},"data":[0.0,0.0,0.0,0.0,0.0,0.0,0.0,0.0,0.0,0.0,0.0,0.0,0.0,0.0,0.0,0.0,0.0,0.0,0.0,0.0,0.0,0.0,0.0,0.0,0.0,0.0,0.0,0.0,0.0,0.0,0.0,0.0,0.0,0.0,0.0,0.0,0.0,0.0,0.0,0.0,0.0,0.0,0.0,0.0,0.0,0.0,0.0,0.0,0.0,0.0,0.0,0.0,0.0,0.0,0.0,0.0,0.0,0.0,0.0,0.0,0.0,0.0,0.0,0.0,0.0,0.0,0.0,0.0,0.0,0.0,0.0,0.0,0.0,0.0,0.0,0.0,0.0,0.0,0.0,0.0,0.0,0.0,0.0,0.0,0.0,0.0,0.0,0.0,0.0,0.0,4.6743,5.041,5.4686,5.6959,5.6105,5.3949,4.9071,4.0668,0.0,0.0,0.0,0.0,0.0,0.0,0.0,0.0,0.0,0.0,0.0,0.0,0.0,0.0,0.0,0.0,0.0,0.0,0.0,0.0,0.0,0.0,0.0,0.0,0.0,0.0,0.0,0.0,0.0,0.0,0.0,0.0,0.0,0.0,0.0,0.0,0.0,0.0,0.0,0.0,0.0,0.0,0.0,0.0,0.0,0.0,0.0,0.0,0.0,0.0,0.0,0.0,0.0,0.0,0.0,0.0,0.0,0.0,0.0,0.0,0.0,0.0,0.0,0.0,0.0,0.0,0.0,0.0,0.0,0.0,0.0,0.0,0.0,0.0,0.0,0.0,0.0,0.0,0.0,0.0,0.0,0.0,0.0,0.0,0.0,0.0,0.0,0.0,0.0,0.0,0.0,0.0,0.0,0.0,0.0,0.0,0.0,0.0,0.0,0.0,0.0,0.0,0.0,0.0,4.6376,5.5622,5.8406,5.9066,5.7688,5.5522,5.0263,4.0954,0.0,0.0,0.0,0.0,0.0,0.0,0.0,0.0,0.0,0.0,0.0,0.0,0.0,0.0,0.0,0.0,0.0,0.0,0.0,0.0,0.0,0.0,0.0,0.0,0.0,0.0,0.0,0.0,0.0,0.0,0.0,0.0,0.0,0.0,0.0,0.0,0.0,0.0,0.0,0.0,0.0,0.0,0.0,0.0,0.0,0.0,0.0,0.0,0.0,0.0,0.0,0.0,0.0,0.0,0.0,0.0,0.0,0.0,0.0,0.0,0.0,0.0,0.0,0.0,0.0,0.0,0.0,0.0,0.0,0.0,0.0,0.0,0.0,0.0,0.0,0.0,0.0,0.0,0.0,0.0,0.0,0.0,0.0,0.0,0.0,0.0,0.0,0.0,0.0,0.0,0.0,0.0,0.0,0.0,0.0,0.0,0.0,0.0,0.0,0.0,0.0,0.0,0.0,4.6555,5.1254,5.8921,6.0351,6.0283,5.921,5.707,5.189,4.2755,3.859,0.0,0.0,0.0,0.0,0.0,0.0,0.0,0.0,0.0,0.0,0.0,0.0,0.0,0.0,0.0,0.0,0.0,0.0,0.0,0.0,0.0,0.0,0.0,0.0,0.0,0.0,0.0,0.0,0.0,0.0,0.0,0.0,0.0,0.0,0.0,0.0,0.0,0.0,0.0,0.0,0.0,0.0,0.0,0.0,0.0,0.0,0.0,0.0,0.0,0.0,0.0,0.0,0.0,0.0,0.0,0.0,0.0,0.0,0.0,0.0,0.0,0.0,0.0,0.0,0.0,0.0,0.0,0.0,0.0,0.0,0.0,0.0,0.0,0.0,0.0,0.0,0.0,0.0,0.0,0.0,0.0,0.0,0.0,0.0,0.0,0.0,0.0,0.0,0.0,0.0,0.0,0.0,0.0,0.0,0.0,0.0,0.0,0.0,0.0,0.0,0.0,0.0,5.3695,5.726,6.1864,6.2178,6.1772,6.096,5.8524,5.3179,4.4081,3.9535,0.0,0.0,0.0,0.0,0.0,0.0,0.0,0.0,0.0,0.0,0.0,0.0,0.0,0.0,0.0,0.0,0.0,0.0,0.0,0.0,0.0,0.0,0.0,0.0,0.0,0.0,0.0,0.0,0.0,0.0,0.0,0.0,0.0,0.0,0.0,0.0,0.0,0.0,0.0,0.0,0.0,0.0,0.0,0.0,0.0,0.0,0.0,0.0,0.0,0.0,0.0,0.0,0.0,0.0,0.0,0.0,0.0,0.0,0.0,0.0,0.0,0.0,0.0,0.0,0.0,0.0,0.0,0.0,0.0,0.0,0.0,0.0,0.0,0.0,0.0,0.0,0.0,0.0,0.0,0.0,0.0,0.0,0.0,0.0,0.0,0.0,0.0,0.0,0.0,0.0,0.0,0.0,0.0,0.0,0.0,0.0,0.0,0.0,0.0,0.0,0.0,0.0,5.6633,6.2683,6.5124,6.4783,6.4072,6.3318,5.9911,5.3562,4.3595,3.9314,0.0,0.0,0.0,0.0,0.0,0.0,0.0,0.0,0.0,0.0,0.0,0.0,0.0,0.0,0.0,0.0,0.0,0.0,0.0,0.0,0.0,0.0,0.0,0.0,0.0,0.0,0.0,0.0,0.0,0.0,0.0,0.0,0.0,0.0,0.0,0.0,0.0,0.0,0.0,0.0,0.0,0.0,0.0,0.0,0.0,0.0,0.0,0.0,0.0,0.0,0.0,0.0,0.0,0.0,0.0,0.0,0.0,0.0,0.0,0.0,0.0,0.0,0.0,0.0,0.0,0.0,0.0,0.0,0.0,0.0,0.0,0.0,0.0,0.0,0.0,0.0,0.0,0.0,0.0,0.0,0.0,0.0,0.0,0.0,0.0,0.0,0.0,0.0,0.0,0.0,0.0,0.0,0.0,0.0,0.0,0.0,0.0,0.0,0.0,0.0,0.0,0.0,5.6394,6.186,0.0,6.6125,6.5314,6.3646,6.1356,5.5517,4.4892,0.0,0.0,0.0,0.0,0.0,0.0,0.0,0.0,0.0,0.0,0.0,0.0,0.0,0.0,0.0,0.0,0.0,0.0,0.0,0.0,0.0,0.0,0.0,0.0,0.0,0.0,0.0,0.0,0.0,0.0,0.0,0.0,0.0,0.0,0.0,0.0,0.0,0.0,0.0,0.0,0.0,0.0,0.0,0.0,0.0,0.0,0.0,0.0,0.0,0.0,0.0,0.0,0.0,0.0,0.0,0.0,0.0,0.0,0.0,0.0,0.0,0.0,0.0,0.0,0.0,0.0,0.0,0.0,0.0,0.0,0.0,0.0,0.0,0.0,0.0,0.0,0.0,0.0,0.0,0.0,0.0,0.0,0.0,0.0,0.0,0.0,0.0,0.0,0.0,0.0,0.0,0.0,0.0,0.0,0.0,0.0,0.0,0.0,0.0,0.0,0.0,0.0,5.0997,5.7509,6.3047,0.0,6.7106,6.6193,6.4661,6.2787,5.7087,4.6302,0.0,0.0,0.0,0.0,0.0,0.0,0.0,0.0,0.0,0.0,0.0,0.0,0.0,0.0,0.0,0.0,0.0,0.0,0.0,0.0,0.0,0.0,0.0,0.0,0.0,0.0,0.0,0.0,0.0,0.0,0.0,0.0,0.0,0.0,0.0,0.0,0.0,0.0,0.0,0.0,0.0,0.0,0.0,0.0,0.0,0.0,0.0,0.0,0.0,0.0,0.0,0.0,0.0,0.0,0.0,0.0,0.0,0.0,0.0,0.0,0.0,0.0,0.0,0.0,0.0,0.0,0.0,0.0,0.0,0.0,0.0,0.0,0.0,0.0,0.0,0.0,0.0,0.0,0.0,0.0,0.0,0.0,0.0,0.0,0.0,0.0,0.0,0.0,0.0,0.0,0.0,0.0,0.0,0.0,0.0,0.0,0.0,0.0,0.0,0.0,0.0,0.0,5.1462,6.0619,6.7377,6.891,6.7715,6.6802,6.6802,6.4096,5.8007,0.0,0.0,0.0,0.0,0.0,0.0,0.0,0.0,0.0,0.0,0.0,0.0,0.0,0.0,0.0,0.0,0.0,0.0,0.0,0.0,0.0,0.0,0.0,0.0,0.0,0.0,0.0,0.0,0.0,0.0,0.0,0.0,0.0,0.0,0.0,0.0,0.0,0.0,0.0,0.0,0.0,0.0,0.0,0.0,0.0,0.0,0.0,0.0,0.0,0.0,0.0,0.0,0.0,0.0,0.0,0.0,0.0,0.0,0.0,0.0,0.0,0.0,0.0,0.0,0.0,0.0,0.0,0.0,0.0,0.0,0.0,0.0,0.0,0.0,0.0,0.0,0.0,0.0,0.0,0.0,0.0,0.0,0.0,0.0,0.0,0.0,0.0,0.0,0.0,0.0,0.0,0.0,0.0,0.0,0.0,0.0,0.0,0.0,0.0,0.0,0.0,0.0,0.0,5.1859,6.0785,6.7174,6.8166,6.7852,6.7153,6.6097,6.4275,5.8548,4.769,0.0,0.0,0.0,0.0,0.0,0.0,0.0,0.0,0.0,0.0,0.0,0.0,0.0,0.0,0.0,0.0,0.0,0.0,0.0,0.0,0.0,0.0,0.0,0.0,0.0,0.0,0.0,0.0,0.0,0.0,0.0,0.0,0.0,0.0,0.0,0.0,0.0,0.0,0.0,0.0,0.0,0.0,0.0,0.0,0.0,0.0,0.0,0.0,0.0,0.0,0.0,0.0,0.0,0.0,0.0,0.0,0.0,0.0,0.0,0.0,0.0,0.0,0.0,0.0,0.0,0.0,0.0,0.0,0.0,0.0,0.0,0.0,0.0,0.0,0.0,0.0,0.0,0.0,0.0,0.0,0.0,0.0,0.0,0.0,0.0,0.0,0.0,0.0,0.0,0.0,0.0,0.0,0.0,0.0,0.0,0.0,0.0,0.0,0.0,0.0,0.0,0.0,5.2,6.0815,6.6971,6.7421,6.7457,6.6895,6.5495,6.4508,5.9861,5.0305,0.0,0.0,0.0,0.0,0.0,0.0,0.0,0.0,0.0,0.0,0.0,0.0,0.0,0.0,0.0,0.0,0.0,0.0,0.0,0.0,0.0,0.0,0.0,0.0,0.0,0.0,0.0,0.0,0.0,0.0,0.0,0.0,0.0,0.0,0.0,0.0,0.0,0.0,0.0,0.0,0.0,0.0,0.0,0.0,0.0,0.0,0.0,0.0,0.0,0.0,0.0,0.0,0.0,0.0,0.0,0.0,0.0,0.0,0.0,0.0,0.0,0.0,0.0,0.0,0.0,0.0,0.0,0.0,0.0,0.0,0.0,0.0,0.0,0.0,0.0,0.0,0.0,0.0,0.0,0.0,0.0,0.0,0.0,0.0,0.0,0.0,0.0,0.0,0.0,0.0,0.0,0.0,0.0,0.0,0.0,0.0,0.0,0.0,0.0,0.0,0.0,0.0,5.1913,6.0661,6.6588,6.6468,6.6452,6.6037,6.4995,6.4685,6.1525,5.4426,0.0,0.0,0.0,0.0,0.0,0.0,0.0,0.0,0.0,0.0,0.0,0.0,0.0,0.0,0.0,0.0,0.0,0.0,0.0,0.0,0.0,0.0,0.0,0.0,0.0,0.0,0.0,0.0,0.0,0.0,0.0,0.0,0.0,0.0,0.0,0.0,0.0,0.0,0.0,0.0,0.0,0.0,0.0,0.0,0.0,0.0,0.0,0.0,0.0,0.0,0.0,0.0,0.0,0.0,0.0,0.0,0.0,0.0,0.0,0.0,2.9343,2.4909,0.0,0.0,0.0,0.0,0.0,0.0,0.0,0.0,0.0,0.0,0.0,0.0,0.0,0.0,0.0,0.0,0.0,0.0,0.0,0.0,0.0,0.0,0.0,0.0,0.0,0.0,0.0,0.0,0.0,0.0,0.0,0.0,0.0,0.0,0.0,0.0,0.0,0.0,0.0,0.0,5.1466,5.9636,6.4927,6.3906,6.3823,6.4127,6.4853,6.4323,6.1486,5.5655,5.228,0.0,0.0,0.0,0.0,0.0,0.0,0.0,0.0,0.0,0.0,0.0,0.0,0.0,0.0,0.0,0.0,0.0,0.0,0.0,0.0,0.0,0.0,0.0,0.0,0.0,0.0,0.0,0.0,0.0,0.0,0.0,0.0,0.0,0.0,0.0,0.0,0.0,0.0,0.0,0.0,0.0,0.0,0.0,0.0,0.0,0.0,0.0,0.0,0.0,0.0,0.0,0.0,0.0,0.0,0.0,0.0,0.0,0.0,0.0,3.5318,3.1443,0.0,0.0,0.0,0.0,0.0,0.0,0.0,0.0,0.0,0.0,0.0,0.0,0.0,0.0,0.0,0.0,0.0,0.0,0.0,0.0,0.0,0.0,0.0,0.0,0.0,0.0,0.0,0.0,0.0,0.0,0.0,0.0,0.0,0.0,0.0,0.0,0.0,0.0,0.0,0.0,5.2641,5.974,6.4339,6.3947,6.3641,6.3488,6.3512,6.3137,6.1132,5.697,5.3688,0.0,0.0,0.0,0.0,0.0,0.0,0.0,0.0,0.0,0.0,0.0,0.0,0.0,0.0,0.0,0.0,0.0,0.0,0.0,0.0,0.0,0.0,0.0,0.0,0.0,0.0,0.0,0.0,0.0,0.0,0.0,0.0,0.0,0.0,0.0,0.0,0.0,0.0,0.0,0.0,0.0,0.0,0.0,0.0,0.0,0.0,0.0,0.0,0.0,0.0,0.0,0.0,0.0,3.9121,4.008,4.1293,4.1559,4.3314,4.6011,4.2786,4.0059,3.7643,3.4021,0.0,0.0,0.0,0.0,0.0,0.0,0.0,0.0,0.0,0.0,0.0,0.0,0.0,0.0,0.0,0.0,0.0,0.0,0.0,0.0,0.0,0.0,0.0,0.0,4.9218,4.9365,4.4292,0.0,0.0,0.0,0.0,0.0,0.0,0.0,0.0,0.0,0.0,0.0,5.4674,6.0317,6.3926,6.4209,6.3786,6.3098,6.2073,6.1941,6.084,5.8298,5.4956,5.2128,0.0,0.0,0.0,0.0,0.0,0.0,0.0,0.0,0.0,0.0,0.0,0.0,0.0,0.0,0.0,0.0,0.0,0.0,0.0,0.0,0.0,0.0,0.0,0.0,0.0,0.0,0.0,0.0,0.0,0.0,0.0,0.0,2.9385,2.9846,0.0,0.0,0.0,0.0,0.0,0.0,0.0,0.0,0.0,0.0,0.0,0.0,0.0,3.7395,3.7313,4.014,4.1551,4.1563,4.4776,4.7567,5.0012,5.1331,5.3436,5.5985,5.5495,0.0,4.2528,3.9176,0.0,0.0,0.0,0.0,0.0,0.0,0.0,0.0,0.0,0.0,0.0,0.0,0.0,0.0,0.0,0.0,0.0,0.0,0.0,0.0,0.0,0.0,5.0662,5.5918,5.7456,5.7295,0.0,4.8912,4.2833,4.2309,4.2016,0.0,0.0,0.0,0.0,0.0,0.0,0.0,5.7211,6.0973,6.2743,6.1717,6.1521,6.1619,6.1977,6.2003,6.1279,5.9632,5.8146,5.5808,5.2479,4.9501,0.0,0.0,0.0,0.0,0.0,0.0,0.0,0.0,0.0,0.0,0.0,0.0,0.0,0.0,0.0,0.0,0.0,0.0,0.0,0.0,0.0,0.0,0.0,0.0,0.0,0.0,0.0,0.0,0.0,2.7089,2.9255,3.0025,2.8663,2.6912,0.0,0.0,0.0,0.0,0.0,0.0,0.0,0.0,0.0,3.8051,4.2054,4.4512,4.5135,4.8414,4.9988,4.975,5.1387,5.2989,5.4544,5.5232,5.6327,5.7701,5.8379,5.6112,5.156,4.7019,4.3223,3.9944,0.0,0.0,0.0,0.0,3.7831,3.8419,4.1977,4.2443,4.133,4.0494,0.0,0.0,0.0,0.0,0.0,0.0,0.0,3.9106,0.0,0.0,5.2707,5.8024,5.8715,5.8134,5.8134,5.4791,5.1119,0.0,4.7597,4.5569,4.1236,0.0,0.0,0.0,0.0,5.3177,5.8363,6.1055,6.2435,6.2242,6.1879,6.1773,6.2032,6.1699,6.0906,5.9498,5.8563,5.7187,5.5134,5.1195,4.7317,0.0,0.0,0.0,0.0,0.0,0.0,0.0,0.0,0.0,0.0,0.0,0.0,0.0,0.0,0.0,0.0,0.0,0.0,0.0,0.0,0.0,0.0,0.0,0.0,0.0,0.0,0.0,0.0,2.9069,3.0925,3.1105,3.0786,2.9509,0.0,0.0,0.0,0.0,0.0,0.0,3.6955,4.0261,4.2877,4.4451,4.8415,5.0964,5.1904,5.4821,5.612,5.5833,5.5974,5.6517,5.7354,5.7354,5.7617,5.8146,5.9047,5.9064,5.8067,5.3403,4.9738,4.6803,4.3779,4.2523,4.2604,4.4633,4.552,4.6196,4.9932,5.0541,4.9442,4.8334,4.6541,4.4478,4.2665,0.0,0.0,0.0,0.0,4.4075,4.9993,5.2416,5.4386,5.882,5.9241,5.8673,5.8867,5.8863,5.7934,0.0,5.3406,5.0925,4.5388,0.0,0.0,0.0,5.1559,5.5505,6.0512,6.216,6.3019,6.3542,6.2995,6.2521,6.2372,6.1727,6.0787,5.9455,5.8574,5.7859,5.7352,5.3192,5.0198,4.8653,0.0,0.0,0.0,0.0,0.0,0.0,0.0,0.0,0.0,0.0,0.0,0.0,0.0,0.0,0.0,0.0,0.0,0.0,0.0,0.0,0.0,0.0,0.0,0.0,0.0,0.0,0.0,0.0,0.0,3.5579,3.6235,0.0,0.0,0.0,0.0,3.6255,3.9439,4.1696,4.2631,4.6866,4.9737,5.073,5.3731,5.5234,5.498,5.5793,5.6183,5.6179,5.6766,5.7663,5.8783,5.8783,5.9128,5.9672,5.974,5.9402,5.8595,5.6211,5.478,5.3779,5.0642,4.9049,4.874,5.0254,5.1235,5.2097,5.3797,5.4338,5.4236,5.4169,5.1691,4.8571,4.7752,4.6951,0.0,0.0,4.9137,5.1289,5.546,5.7065,5.8151,6.0323,6.1274,6.1465,6.0734,6.042,6.0184,0.0,5.9647,5.8258,5.3978,0.0,5.567,5.6589,5.7452,5.9844,6.5009,6.5196,6.4874,6.4904,6.4306,6.3663,6.3109,6.243,6.1491,6.0147,5.8816,5.8297,5.8781,5.6703,5.4065,5.0905,4.86,0.0,0.0,0.0,0.0,0.0,0.0,0.0,0.0,0.0,0.0,0.0,0.0,0.0,0.0,0.0,0.0,0.0,0.0,0.0,0.0,0.0,0.0,0.0,0.0,0.0,0.0,0.0,0.0,3.9329,4.0418,0.0,3.6841,3.7848,3.9168,4.0343,4.4852,4.7781,4.8298,5.1681,5.3858,5.4391,5.6249,5.7394,5.7706,5.88,5.9338,5.9368,5.9564,5.9899,6.0328,6.0328,5.997,5.9389,6.016,5.9875,5.8879,5.8849,5.8429,5.7551,5.5416,5.5231,5.6258,5.7297,5.8186,5.8939,5.9979,6.0013,5.9379,5.7915,5.6867,5.5554,5.2498,5.202,5.2236,5.0725,5.2176,5.4737,5.7044,5.8424,5.9376,6.0185,5.9893,5.9459,5.9516,5.9501,5.9625,6.0358,6.1098,6.0393,5.6614,5.8395,5.9635,5.7595,5.9629,6.2348,6.4996,6.514,6.4994,6.4994,6.48,6.4381,6.3722,6.3451,6.2754,6.1463,6.0139,5.9093,5.839,5.691,5.5145,5.3084,5.2139,4.7949,0.0,0.0,0.0,0.0,0.0,0.0,0.0,0.0,0.0,0.0,0.0,0.0,0.0,0.0,0.0,0.0,0.0,0.0,0.0,0.0,0.0,0.0,0.0,0.0,0.0,3.8772,4.2312,4.2082,4.4186,4.4416,4.1368,4.3428,4.5259,4.5999,5.0457,5.3266,5.3522,5.5637,5.7142,5.7822,5.8667,5.9325,5.9774,6.0641,6.1088,6.1098,6.1098,6.1086,6.109,6.109,6.0365,5.9137,5.9955,5.9534,5.8354,5.9166,5.9408,5.9261,5.9103,5.9835,6.1106,6.2064,6.2888,6.3515,6.36,6.3006,6.1949,6.0161,5.9885,5.975,5.6861,5.6658,5.6978,5.4985,5.5949,5.7711,5.824,5.9312,6.0171,5.9839,5.9435,5.9415,6.0477,6.0486,6.0715,6.2257,6.2351,6.1282,5.8505,6.0906,6.2045,5.874,6.1556,6.4216,6.462,6.5248,6.5667,6.5667,6.5488,6.5069,6.4381,6.3537,6.2864,6.246,6.0323,5.8976,5.8785,5.6466,5.4764,5.3886,5.3025,4.9264,4.2553,0.0,0.0,0.0,0.0,0.0,0.0,0.0,0.0,0.0,0.0,0.0,0.0,0.0,0.0,0.0,0.0,0.0,0.0,0.0,0.0,0.0,0.0,0.0,3.6904,4.3519,4.726,4.4147,4.7676,4.937,4.6839,4.9902,5.2384,5.3224,5.6115,5.7926,5.8121,5.8786,5.9744,6.106,6.115,6.115,6.115,6.121,6.1218,6.1218,6.1232,6.1225,6.1224,6.1224,6.0482,5.925,5.924,5.848,5.7249,5.7279,5.7963,5.9228,6.169,6.2629,6.2804,6.4099,6.4984,6.5413,6.4178,6.2937,6.1741,6.0967,6.0689,6.0677,6.0642,6.0662,6.0682,6.0647,6.0667,6.0428,5.929,5.9948,6.0612,5.9463,6.0162,6.1684,6.3745,6.3529,6.3558,6.5629,6.3725,6.1371,6.0239,6.2216,6.3112,6.0625,6.3558,0.0,6.4306,6.5847,6.7014,6.6969,6.634,6.5667,6.4994,6.2586,6.1657,6.2971,5.9378,5.8068,5.998,5.5737,5.3301,5.3239,5.1209,4.8574,4.5374,0.0,0.0,0.0,0.0,0.0,0.0,0.0,0.0,0.0,0.0,0.0,0.0,0.0,0.0,0.0,0.0,0.0,0.0,0.0,0.0,0.0,4.0735,4.5075,4.4407,4.8237,5.1319,5.1899,5.3486,5.4084,5.2875,5.4121,5.5116,5.5349,5.748,5.877,5.8813,5.9923,6.0731,6.109,6.2032,6.2555,6.2555,6.3453,6.3917,6.3915,6.3941,6.3924,6.3941,6.393,6.3467,6.2656,6.2652,6.1905,6.0768,6.1255,6.1371,6.1189,6.0796,6.1202,6.209,6.2966,6.3151,6.287,6.2525,6.1831,6.0999,6.0752,6.0689,6.0557,5.9652,5.9735,6.0036,5.9642,5.9888,6.0405,6.106,6.1127,6.1072,6.1246,6.1185,6.1269,6.1833,6.1775,6.1808,6.2397,6.261,6.2758,6.2854,6.4272,6.5011,6.3838,6.5802,6.7313,6.697,6.7373,6.7343,6.637,6.5233,6.4306,6.3692,6.2077,6.1452,6.233,6.042,5.9323,5.9376,5.7209,5.5359,5.3941,5.1033,4.8637,0.0,0.0,0.0,0.0,0.0,0.0,0.0,0.0,0.0,0.0,0.0,0.0,0.0,0.0,0.0,0.0,0.0,0.0,0.0,0.0,0.0,0.0,4.5924,5.0702,5.1696,5.3461,5.4999,5.588,5.6598,5.6825,5.6466,5.7017,5.7526,5.7796,5.9129,6.0057,6.0356,6.1373,6.1942,6.1942,6.3199,6.3767,6.3482,6.4216,6.4725,6.5009,6.4711,6.4576,6.4576,6.4576,6.4085,6.3194,6.3206,6.2787,6.2123,6.251,6.261,6.2487,0.0,0.0,0.0,0.0,6.3357,6.2366,6.2366,6.1715,6.0875,6.0875,6.0875,6.0735,6.004,6.008,6.0348,6.0036,6.0236,6.0685,6.1493,6.1613,6.1613,6.2002,6.22,6.2553,6.3476,6.3178,6.3017,6.3894,6.3974,0.0,6.4737,6.5487,6.5677,6.4723,6.652,6.7703,6.6849,6.7463,6.7583,6.652,6.5473,6.4575,6.3947,6.2167,0.0,0.0,0.0,5.873,5.753,5.6734,0.0,0.0,0.0,0.0,0.0,0.0,0.0,0.0,4.507,4.4105,0.0,0.0,0.0,0.0,0.0,0.0,0.0,0.0,0.0,0.0,0.0,0.0,0.0,0.0,0.0,0.0,5.0173,5.479,5.7799,5.8278,5.8098,5.7513,5.7949,5.8367,5.8414,5.8966,5.9578,6.016,6.0894,6.1583,6.2195,6.2914,0.0,0.0,0.0,6.471,6.4126,6.4126,6.4397,6.4979,6.4381,6.411,6.41,6.4088,6.3551,6.2524,6.2469,6.2485,6.2553,6.2558,6.295,6.3613,6.4471,6.4789,6.4847,6.5301,6.4322,6.2791,6.2791,0.0,0.0,6.109,6.109,6.109,6.109,6.115,6.121,6.121,6.1329,6.1449,6.1509,6.1987,6.245,6.251,6.3348,6.4641,6.6538,6.5933,6.5574,6.7477,6.6375,6.5293,6.5906,6.5996,6.5607,6.4515,6.6416,6.7343,6.5577,6.6894,6.7703,6.6984,0.0,0.0,6.4859,6.2526,6.1642,6.2914,6.0129,5.7613,5.5713,5.5632,5.5295,5.4551,5.4538,5.482,5.5431,5.6,5.6013,5.5234,4.8011,4.596,0.0,0.0,0.0,0.0,0.0,0.0,0.0,0.0,0.0,0.0,0.0,0.0,0.0,0.0,0.0,4.664,5.2721,5.756,5.8726,5.9368,5.9681,5.9532,5.9621,5.9937,6.0462,6.0641,6.0761,6.088,6.2032,6.2764,6.2884,6.3992,6.462,6.462,6.4874,6.4934,6.4815,6.4815,6.486,6.5009,6.4874,0.0,6.4828,6.4813,6.4961,6.5218,6.4657,6.4735,6.5247,6.5248,6.5652,6.6057,6.4177,6.348,6.3418,6.2992,6.2256,6.1477,6.1477,6.1327,6.109,6.109,6.109,6.109,6.109,6.1493,0.0,6.1912,6.266,6.3543,6.4097,6.4336,6.459,6.5129,6.5009,6.4904,6.5349,6.5187,6.5113,6.5529,6.5727,6.5847,6.5966,6.5996,6.6101,6.6386,6.7313,6.7868,6.7463,6.7778,6.7523,6.6311,6.5114,6.4126,6.3512,6.2002,6.1419,6.2255,6.1186,5.9869,5.8413,5.8341,5.7772,5.6555,5.6526,5.6585,5.6735,5.6868,5.6868,5.6658,5.4088,5.3458,0.0,0.0,0.0,0.0,0.0,0.0,0.0,0.0,0.0,0.0,0.0,3.7235,3.9372,0.0,4.9711,5.1073,5.5673,5.9219,5.9548,6.0176,6.0475,6.013,6.0386,6.0864,6.1553,6.1613,6.1852,6.2496,6.2884,6.3213,6.3542,6.4156,6.4351,6.4066,6.468,6.4994,6.4994,6.4994,6.5338,6.5996,6.5666,6.5502,6.5502,6.5501,6.55,6.5472,6.5141,6.5383,6.604,6.6356,6.6685,6.6835,6.5173,6.4336,6.4006,6.3663,6.2929,6.2091,6.2091,6.2091,6.2091,6.2091,6.2091,6.2151,6.245,6.278,6.3109,6.3453,6.4022,6.459,6.4904,6.4994,6.5084,6.5413,6.5518,6.5518,6.5518,6.5757,6.5996,6.5996,6.6281,6.649,6.649,6.649,6.6729,6.7403,6.7808,6.7987,6.7987,6.7987,6.7613,6.661,6.5592,6.4874,6.459,6.3335,6.2573,6.2614,6.1973,6.1139,6.0128,6.0091,5.9787,5.9129,5.9099,5.8949,5.8604,5.8949,5.8919,5.859,5.8291,5.7782,0.0,0.0,0.0,0.0,0.0,0.0,0.0,3.4462,3.5973,3.9395,4.1864,4.4136,4.6434,5.0569,5.395,5.5007,5.7948,6.016,6.028,6.0864,6.1134,6.0729,6.1164,6.1762,6.2421,6.248,6.2899,6.3917,6.3542,6.3482,6.3977,6.4126,6.4036,6.3662,6.453,6.5054,6.5174,6.5054,6.5547,6.661,6.6056,6.5802,6.5817,6.5817,6.5593,6.5203,6.5337,6.5635,6.6066,6.6727,6.7014,6.6954,6.64,6.5787,6.5174,6.5054,6.4351,6.3482,6.3482,6.3482,6.3482,6.3482,6.3482,6.3572,6.4036,6.4186,6.4291,6.4859,6.5084,6.5203,6.5203,6.5308,6.5398,6.5398,6.5787,6.6176,6.6176,6.661,6.7014,6.7014,6.7104,6.7194,6.7194,6.7313,6.7493,6.7778,6.7808,6.7808,6.7808,6.7808,6.7583,6.7074,6.652,6.6131,6.5997,6.489,6.3978,6.3498,6.2831,6.2164,6.152,6.1349,6.1239,6.109,6.109,6.0821,6.031,6.0835,6.0821,6.031,6.0864,6.0222,2.9414,2.9624,3.181,3.4103,3.5898,3.8466,0.0,4.3837,4.3683,4.6638,4.7901,4.857,4.89,5.2267,5.5041,5.5174,5.7958,6.031,6.088,6.1583,6.2195,6.2704,6.2824,6.3123,6.3737,6.3797,6.3857,6.3977,6.3947,6.3917,6.4006,6.456,6.5129,6.5652,6.5248,6.5308,6.5877,6.5293,6.5084,6.5203,6.5144,6.5114,6.5099,6.5099,6.5398,6.5906,6.6535,6.649,6.6056,6.6729,6.7014,6.6984,6.6924,6.649,6.5817,6.5203,6.4904,6.48,6.48,6.48,6.48,6.48,6.48,6.4785,6.4874,6.4874,6.4904,6.4964,6.5428,6.5877,6.5877,6.634,6.6759,6.6759,6.6819,6.6894,6.6894,6.6954,6.7014,6.7014,6.7463,6.7898,6.7898,6.8391,6.8405,6.7284,6.7104,6.7104,6.7104,6.7104,6.7074,6.7014,6.6939,6.664,6.6042,6.5323,6.486,6.4785,6.4157,6.3529,6.2885,6.2301,6.1702,6.112,6.109,6.106,6.1,6.106,6.106,6.1,6.106,6.097,3.7695,3.7159,3.7372,4.0831,4.2844,4.4602,4.7068,4.7945,4.9032,5.1802,5.314,5.3965,5.4352,5.6409,5.8055,5.8044,5.9872,6.1343,6.1642,6.2241,6.2794,6.3078,6.3737,6.4156,6.4006,6.4006,6.4006,6.4006,6.4006,6.4186,6.456,6.4859,6.5114,6.5428,6.5144,6.5323,6.5996,6.5727,6.5787,6.6161,6.6161,6.6161,6.6161,6.6161,6.6311,6.661,6.6894,6.6819,6.661,6.6879,6.7014,6.7014,6.7014,6.6835,6.649,6.5817,6.5338,6.4994,6.4994,6.4994,6.4994,6.4994,6.4994,6.5084,6.5458,6.5577,6.5667,6.6056,6.637,6.658,6.658,6.7074,6.7583,6.7583,6.7882,6.8166,6.8166,6.7275,6.647,6.647,6.5802,6.525,6.525,6.5496,6.5479,6.492,6.64,6.7583,6.7583,6.7254,6.7014,6.7014,6.7014,6.691,6.6611,6.598,6.5591,6.5592,6.4949,6.4457,6.4231,6.3558,6.3079,6.281,6.245,6.2241,6.2241,6.263,6.281,6.281,6.3184,6.3349,4.1584,4.1943,4.2332,4.5952,4.8536,5.0253,5.0433,5.1828,5.3641,5.5598,5.6885,5.7812,5.8278,5.9308,6.016,6.034,6.1357,6.2091,6.2091,6.2674,6.3108,6.3108,6.4231,6.474,6.4066,6.4186,6.4276,6.4276,6.4096,6.4306,6.4964,6.4994,6.5084,6.5263,6.5278,6.5607,6.6281,6.6281,6.652,6.7014,6.7014,6.7014,6.7014,6.7014,6.7014,6.7014,6.7014,6.7014,6.7014,6.7014,6.7014,6.7014,6.7014,6.7014,6.6954,6.646,6.5981,6.5547,6.5547,6.5547,6.5547,6.5547,6.5547,6.5637,6.6131,6.6281,6.637,6.6849,6.7134,6.7284,6.7284,6.7762,6.8271,6.8271,6.8222,6.8199,6.8199,6.6689,6.5337,6.5337,6.4349,6.3556,6.3556,6.3711,6.3839,6.3839,6.6054,6.7682,6.7504,6.7362,6.7283,6.7284,6.7104,6.7014,6.7014,6.6546,6.6292,6.6295,6.5636,6.5263,6.5263,6.462,6.4276,6.4276,6.3857,6.3617,6.3632,6.4066,6.4276,6.4306,6.4755,6.4994,3.7426,4.0836,4.4845,4.7559,5.163,5.5162,5.5803,5.6944,5.7905,5.7995,5.8547,5.9039,5.9069,5.9638,6.031,6.097,6.1642,6.2091,6.2091,6.2674,6.3108,6.3108,6.4231,6.474,6.4066,6.459,6.4964,6.4964,6.4351,6.4306,6.4964,6.4994,6.5293,6.5936,6.5966,6.6281,6.6954,6.6969,6.6984,6.7014,6.7014,6.7014,6.7014,6.7014,6.7014,6.7014,6.7014,6.7014,6.7014,6.7014,6.7014,6.7014,6.7014,6.7014,6.7014,6.6984,6.6954,6.6954,6.6954,6.6954,6.6954,6.6954,6.6954,6.6954,6.6954,6.6969,6.6969,6.6999,6.7463,6.7987,6.7987,6.8481,6.8974,6.8974,6.7561,6.6199,6.6199,6.4713,6.3377,6.3377,6.3801,6.4169,6.4169,6.4719,6.5159,6.5159,6.628,6.6894,6.6227,6.7238,6.7968,6.7972,6.7373,6.7014,6.7014,6.6969,6.6969,6.6969,6.634,6.5966,6.5966,6.5338,6.4964,6.4964,6.4964,6.4934,6.4934,6.4964,6.4964,6.4964,6.4994,6.4994,4.2412,4.6031,4.9722,5.3264,5.5628,5.7171,5.741,5.8128,5.8756,5.8756,5.7229,5.5926,5.5926,5.6805,5.7597,5.7803,6.0598,6.2614,6.2151,6.2301,6.2435,6.2435,6.3213,6.3662,6.3422,6.4784,6.5129,6.3827,6.4725,6.5218,6.5024,6.5847,6.643,6.667,6.667,6.6759,6.7014,6.7014,6.7014,6.7014,6.7433,6.7912,6.8315,6.8315,6.8334,6.8324,6.8315,6.8332,6.8332,6.8332,6.8332,6.8316,6.8322,6.8081,6.7709,6.8154,6.7747,6.7014,6.7014,6.7014,6.7014,6.7014,6.7313,6.7643,6.7643,6.7972,6.8315,6.8315,6.8495,6.8645,6.8645,6.9169,6.9331,6.8047,6.7579,6.7065,6.5776,6.405,6.2693,6.2693,6.1835,6.1099,6.1099,6.1273,6.1861,6.3152,6.5505,6.7318,6.7953,6.8415,6.8643,6.8645,6.8067,6.7663,6.7658,6.7254,6.7014,6.7014,6.6789,6.667,6.667,6.6026,6.5667,6.5667,6.5233,6.4994,6.4994,6.5458,6.5413,6.5024,6.5458,6.5428,4.66,4.9931,5.2815,5.6526,5.7949,5.8457,5.8457,5.8786,5.9099,5.9099,5.6386,5.4055,5.426,5.4215,5.4304,5.4922,5.7886,6.0281,6.0817,6.1081,6.1446,6.2034,6.2884,6.3333,6.3123,6.4844,6.5383,6.3887,6.4949,6.5667,6.5697,6.652,6.7014,6.7014,6.7014,6.7014,6.7014,6.7254,6.7493,6.7717,6.8151,6.8572,6.8978,6.8978,6.9015,6.8994,6.9014,6.8982,6.8985,6.8985,6.8985,6.9014,6.9011,6.873,6.8427,6.8841,6.8465,6.7687,6.7433,6.7373,6.7373,6.7373,6.7792,6.8361,6.8361,6.866,6.9004,6.9004,6.9153,6.9333,6.9363,6.9333,6.9027,6.7747,6.673,6.572,6.449,6.2693,6.1372,6.1372,6.0336,5.9483,5.9483,5.9483,6.0157,6.2104,6.4681,6.6959,6.8498,6.9078,6.9357,6.9363,6.8754,6.8246,6.8017,6.7628,6.7254,6.7014,6.7014,6.7014,6.7014,6.658,6.637,6.637,6.5936,6.5697,6.5727,6.5906,6.5787,6.5368,6.5742,6.5502,4.9602,5.2366,5.4264,5.738,5.8637,5.9099,5.9099,5.9099,5.9056,5.8822,5.5744,5.3219,5.3534,5.1833,5.0873,5.2407,5.4052,5.6007,5.8464,5.939,6.0399,6.1935,6.3169,6.3707,6.3183,6.4814,6.5667,6.5084,6.5084,6.5637,6.6879,6.6969,6.7014,6.7014,6.7014,6.7014,6.7044,6.7703,6.8391,6.9034,6.9034,6.9068,6.9107,6.9107,6.9114,6.9106,6.9106,6.9088,6.9085,6.9085,6.9085,6.9085,6.9085,6.9058,6.9066,6.909,6.9064,6.8914,6.8301,6.8077,6.8047,6.8047,6.8511,6.9064,6.9064,6.9064,6.9093,6.9093,6.9433,6.9817,6.9893,6.8913,6.7929,6.7827,6.5028,6.2376,6.2283,6.0812,5.9483,5.9483,5.9483,5.9483,5.9477,5.9477,6.0077,6.1884,6.3774,6.5712,6.7779,6.9176,7.0003,6.9945,6.9355,6.8726,6.8092,6.8017,6.7748,6.7104,6.7044,6.7044,6.7014,6.6984,6.6954,6.7014,6.6939,6.6924,6.7,6.6281,6.5951,6.5937,6.5727,6.5157,5.1947,5.5102,5.7812,5.8637,5.8966,5.9099,5.9099,5.9099,5.8167,5.4923,5.1526,4.8103,4.4578,4.7194,4.9716,4.9242,5.5794,6.0863,6.0528,6.1059,6.1648,6.2049,6.2391,6.2899,6.3677,6.4216,6.4844,6.5667,6.6221,6.643,6.6251,6.6729,6.7014,6.7014,6.7014,6.7254,6.7748,6.8421,6.9081,6.9759,6.9759,6.9967,7.0431,7.0431,7.0419,7.0409,7.0409,7.0428,7.0409,7.0409,7.0409,7.0409,7.0409,7.0134,6.98,7.0247,6.9812,6.9064,6.9379,6.9169,6.875,6.875,6.9199,6.9738,6.9738,7.0051,7.041,7.041,6.9526,6.8556,6.8602,6.7273,6.5586,6.4183,6.3125,6.2003,6.0545,5.9869,5.9483,5.9483,5.9483,5.9371,5.897,5.8893,5.8944,5.9021,6.0642,6.3189,6.6864,6.8903,6.9807,6.9303,6.8659,6.8374,6.8704,6.8271,6.7928,6.7748,6.7748,6.7523,6.7014,6.652,6.649,6.6984,6.6026,6.6012,6.7004,6.5817,6.5263,6.526,6.4888,6.4255,5.5089,5.7423,5.9099,5.9099,5.858,5.7741,5.6514,5.5707,5.4084,5.0189,4.6588,4.3317,4.0575,4.2921,4.5335,4.539,5.2435,5.8185,5.8899,6.018,6.1405,6.2409,6.278,6.3199,6.3917,6.4545,6.4874,6.4826,6.5162,6.5339,6.525,6.4854,6.501,6.578,6.6106,6.7088,6.887,6.9247,6.9772,7.0387,7.0387,7.0564,7.0889,7.0889,7.0889,7.0889,7.0889,7.0889,7.0889,7.0889,7.0889,7.0889,7.0889,7.0682,7.0431,7.0785,7.044,6.9842,6.9977,6.9738,6.9439,6.9439,6.9482,6.9618,6.9917,7.0247,7.0325,6.9454,6.8702,6.7895,6.7031,6.5391,6.3712,6.2646,6.1741,6.0831,5.9734,5.9483,5.9483,5.9483,5.9295,5.9064,5.8763,5.8511,5.8234,5.7951,6.0164,6.2635,6.4781,6.7,6.8533,6.8955,6.8645,6.8481,6.8541,6.8227,6.7748,6.7164,6.7134,6.6819,6.6161,6.5757,6.5877,6.655,6.5742,6.5877,6.7004,6.5652,6.4993,6.4979,6.4213,6.3024,5.8141,5.9099,5.9099,5.9099,5.804,5.6235,5.3198,5.1517,4.9422,4.5243,4.1819,3.9376,3.8702,3.931,4.0515,4.2316,4.7942,5.3149,5.6164,5.8452,6.0528,6.2525,6.309,6.3417,6.3743,6.4904,6.4929,6.3192,6.3064,6.3338,6.3914,6.2446,6.2486,6.4364,6.5392,6.724,6.9961,7.0087,7.0387,7.0889,7.0889,7.0889,7.0889,7.0827,7.0802,7.0765,7.0785,7.078,7.078,7.0873,7.0859,7.0785,7.0785,7.0726,7.0649,7.0649,7.0649,7.056,7.0067,6.9654,6.942,6.9748,6.9453,6.9046,6.9422,6.9507,6.9106,6.7184,6.6924,6.6848,6.5145,6.3349,6.2022,6.2022,6.0736,5.9483,5.9419,5.94,5.9369,5.9307,5.897,5.8643,5.8484,5.8083,5.7775,5.7703,6.0597,6.2684,6.2349,6.4759,6.7078,6.8577,6.8734,6.8541,6.8047,6.7987,6.7493,6.634,6.6281,6.5966,6.5308,6.5144,6.5413,6.6116,6.5802,6.6057,6.7004,6.5263,6.4382,6.4242,6.2944,6.1105,5.8756,5.9099,5.9099,5.9099,5.8909,5.7503,5.2966,5.2331,5.0178,4.1423,3.9499,3.8173,3.3997,3.7548,4.1909,4.4364,5.117,5.6637,5.7952,5.9408,6.05,6.0915,6.0212,6.0464,6.2409,6.3304,6.3259,6.1985,6.188,6.1936,6.2064,6.1763,6.2698,6.5059,6.7768,6.945,6.9977,7.0486,7.0785,7.0889,7.0889,7.0889,7.0873,7.0363,7.0167,7.0155,7.0161,7.0163,7.0209,7.0672,7.0608,7.0165,7.0165,6.9832,6.9333,6.9333,6.9333,6.9303,6.9213,6.7816,6.6442,6.8516,6.9093,6.875,6.7367,6.6941,6.6549,6.4729,6.3465,6.2578,6.2221,6.1096,5.9997,5.9997,5.9753,5.94,5.8929,5.8846,5.8698,5.8246,5.8454,5.8409,5.7459,5.7207,5.7022,5.6557,5.8297,6.0188,6.1559,6.5241,6.76,6.7357,6.7343,6.7523,6.7958,6.7987,6.7898,6.7688,6.7643,6.7343,6.667,6.5966,6.5966,6.6819,6.5697,6.5742,6.6974,6.3304,6.1188,6.0491,5.9068,5.7326,5.8996,5.9099,5.9099,5.9099,5.8454,5.6325,5.0475,4.8584,4.5577,3.6869,3.5058,3.4301,3.198,3.5254,3.9098,4.143,4.9022,5.4941,5.5903,5.861,6.084,6.1733,6.1203,6.1128,6.2209,6.3226,6.2794,6.0391,6.0195,6.0195,6.0195,6.0475,6.1313,6.2863,6.5544,6.7624,6.898,6.9312,6.9309,6.9047,6.9984,6.9748,6.8521,6.9179,6.9461,6.9483,6.9479,6.9672,7.001,6.9943,6.9933,6.9967,6.9622,6.9291,6.9004,6.9004,6.9004,6.8817,6.7513,6.6313,6.528,6.517,6.5138,6.5048,6.4535,6.4369,6.3987,6.2097,6.155,6.1298,6.032,5.9769,5.9483,5.9483,5.9289,5.8957,5.8409,5.8284,5.8202,5.7939,5.7843,5.7636,5.7104,5.6754,5.6502,5.6226,5.776,5.9539,6.136,6.4217,6.6306,6.6922,6.7014,6.7134,6.7433,6.7463,6.7313,6.6969,6.6954,6.6564,6.5696,6.5263,6.5322,6.5949,6.5323,6.4738,6.4172,6.2187,6.0033,5.7808,5.7122,5.6305,5.8912,5.9189,5.9279,5.9129,5.8254,5.5531,4.8188,4.5292,4.1881,3.3879,3.1817,3.1466,3.1463,3.3457,3.5958,3.8548,4.5423,5.1072,5.2982,5.6795,5.9971,6.1463,6.1471,6.1338,6.1352,6.245,6.1797,5.856,5.8313,5.8365,5.8478,5.9393,6.0204,6.0857,6.3186,6.5412,6.7456,6.7346,6.7107,6.6695,6.7991,6.7615,6.5762,6.7433,6.8201,6.8242,6.8618,6.9086,6.9528,6.9153,6.9229,6.9467,6.8564,6.8123,6.7957,6.7577,6.7404,6.714,6.517,6.4249,6.3618,6.166,6.1276,6.1611,6.1784,6.1798,6.1418,5.9484,5.9718,6.0208,5.8732,5.8746,5.9156,5.9156,5.8737,5.8214,5.7803,5.7701,5.7672,5.7561,5.7238,5.696,5.6836,5.6465,5.62,5.62,5.776,5.9539,6.136,6.3182,6.501,6.68,6.7014,6.7014,6.7014,6.7014,6.6759,6.6251,6.6221,6.5831,6.4994,6.4964,6.4738,6.4293,6.3509,6.2504,6.1216,6.071,5.9166,5.6779,5.6392,5.6204,5.8321,5.9548,5.9861,5.9249,5.9452,5.7367,4.8091,4.648,4.4286,3.4911,3.2943,3.2806,3.244,3.3201,3.5268,3.9527,4.2737,4.6236,5.0802,5.4063,5.6197,5.6851,5.733,5.7781,5.8261,5.8985,5.8578,5.6587,5.6449,5.6676,5.7162,5.9355,6.0866,6.1402,6.382,6.523,6.548,6.4982,6.4706,6.4663,6.4325,6.4081,6.3884,6.507,6.5625,6.575,6.737,6.8119,6.8227,6.8764,6.869,6.8011,6.6312,6.5277,6.4547,6.2891,6.2264,6.2248,6.2025,6.0849,5.9445,5.9218,6.0264,6.132,5.9723,5.9251,5.8865,5.705,5.6957,5.7367,5.7213,5.7585,5.8052,5.8052,5.7597,5.7144,5.7086,5.7072,5.6948,5.6449,5.6708,5.6836,5.636,5.6219,5.62,5.62,5.776,5.9539,6.136,6.3182,6.501,6.68,6.7014,6.7014,6.7014,6.7014,6.6969,6.6909,6.6909,6.6849,6.6774,6.6774,6.5222,6.1983,5.8692,5.7971,5.9964,5.7775,5.7373,5.8613,5.698,5.6195,5.8649,5.9891,5.9951,5.9279,5.7344,5.4038,4.8083,4.4385,4.0558,3.4811,3.3029,3.2675,3.3293,3.2998,3.3897,3.7585,4.0268,4.305,4.6354,4.9221,5.2085,5.4979,5.5237,5.5885,5.7709,5.8516,5.8023,5.5886,5.5433,5.5591,5.6477,5.8128,5.9115,5.9327,6.058,6.17,6.2472,6.2265,6.2012,6.1695,6.2573,6.2213,6.0857,6.3492,6.4687,6.4797,6.6612,6.7851,6.8571,6.8016,6.7467,6.6818,6.528,6.3867,6.2579,6.1864,6.1595,6.1427,6.0367,5.9487,5.8736,5.7635,5.7752,5.8233,5.7492,5.7254,5.7113,5.6405,5.6589,5.7003,5.7003,5.7438,5.7806,5.7448,5.7166,5.6914,5.6584,5.6527,5.6465,5.6237,5.6385,5.6447,5.6237,5.62,5.62,5.62,5.6805,5.8313,6.1225,6.1276,6.2147,6.5073,6.6353,6.7014,6.7014,6.5997,6.5358,6.5358,6.5026,6.5479,6.6941,6.4902,6.2052,5.8422,5.8345,5.8131,5.7622,5.7765,5.7629,5.7267,5.654,5.62,5.7239,5.9375,6.0236,5.9548,5.6361,5.2283,4.822,4.3302,3.8604,3.5158,3.3394,3.2819,3.3808,3.323,3.3345,3.5666,3.7853,4.0171,4.277,4.5513,4.8549,5.204,5.2704,5.3772,5.5976,5.7207,5.711,5.5315,5.4805,5.5056,5.6125,5.6972,5.7549,5.7901,5.8278,5.8906,5.9862,5.9698,5.9403,5.9049,6.0163,5.9782,5.8233,6.1847,6.3606,6.3924,6.6086,6.7747,6.8867,6.7142,6.627,6.5803,6.3739,6.2064,6.0733,6.0213,6.0006,5.9816,5.8542,5.8108,5.7877,5.6605,5.62,5.62,5.62,5.62,5.62,5.62,5.6465,5.6756,5.6756,5.7065,5.729,5.6863,5.6772,5.666,5.6282,5.62,5.62,5.62,5.62,5.62,5.62,5.62,5.62,5.62,5.62,5.732,6.0418,5.9678,6.0092,6.3166,6.4646,6.5389,6.5389,6.4217,6.3493,6.3493,6.3099,6.3465,6.4808,6.1746,5.8803,5.623,5.788,5.7901,5.6201,5.7468,5.7438,5.62,5.62,5.62,5.3319,5.7705,6.094,6.025,5.7603,5.379,4.8495,4.4227,4.0247,3.6311,3.4426,3.3593,3.3954,3.3979,3.4107,3.4454,3.5451,3.7356,4.0834,4.3751,4.5936,4.7046,4.9174,5.0969,5.2052,5.4145,5.52,5.4647,5.4597,5.5056,5.6125,5.62,5.6728,5.7851,5.7901,5.792,5.7939,5.7342,5.7047,5.7022,5.6506,5.6255,5.634,5.9989,6.1994,6.2775,6.573,6.7747,6.8817,6.6187,6.5199,6.4937,6.1198,5.9404,5.8719,5.6931,5.6273,5.6255,5.6237,5.6237,5.6237,5.6219,5.62,5.62,5.62,5.62,5.62,5.62,5.62,5.6219,5.6219,5.6219,5.6219,5.62,5.62,5.62,5.62,5.62,5.62,5.62,5.62,5.62,5.62,5.62,5.62,5.62,5.62,5.6859,5.8701,5.8903,5.9591,6.1427,6.1629,6.1663,6.1663,6.1629,6.1629,6.1629,6.1612,6.1095,5.9916,5.7541,5.624,5.6206,5.6214,5.6226,5.6194,5.6212,5.6237,5.62,5.62,5.62,4.8391,5.1404,5.3135,5.0949,4.7848,4.4859,4.3001,3.8959,3.5321,3.4337,3.3417,3.3124,3.4144,3.3835,3.4271,3.6949,3.6657,3.7078,3.9941,4.233,4.4605,4.6848,5.1415,5.4537,5.4866,5.4881,5.4798,5.4622,5.4228,5.4328,5.5056,5.544,5.6168,5.7255,5.728,5.7104,5.6728,5.6552,5.6451,5.6451,5.6276,5.62,5.6303,5.9954,6.1723,6.204,6.4207,6.6624,6.8663,6.4458,6.3275,6.3795,6.0458,5.83,5.6978,5.6412,5.62,5.62,5.62,5.62,5.62,5.62,5.62,5.62,5.62,5.62,5.62,5.62,5.62,5.62,5.62,5.62,5.62,5.62,5.62,5.62,5.62,5.62,5.62,5.62,5.62,5.62,5.62,5.62,5.62,5.62,5.62,5.6859,5.8683,5.7806,5.776,5.9557,5.8666,5.8903,6.1377,6.0487,5.9914,6.0354,5.8824,5.7728,5.736,5.6598,5.6216,5.6208,5.619,5.6215,5.62,5.62,5.62,5.62,5.62,5.62,4.3808,4.7129,4.9048,4.7243,4.4072,4.1234,4.0556,3.6829,3.3509,3.3489,3.2976,3.2908,3.4248,3.373,3.3879,3.6316,3.6025,3.6436,3.9153,4.1165,4.36,4.6998,5.1682,5.4587,5.4361,5.4504,5.4421,5.4002,5.3808,5.3959,5.4572,5.5107,5.5792,5.6677,5.6702,5.6552,5.62,5.62,5.62,5.62,5.62,5.62,5.6285,5.9253,6.0715,6.1043,6.2608,6.4675,0.0,6.2573,6.1402,6.194,5.9234,5.7374,5.62,5.62,5.62,5.62,5.62,5.62,5.62,5.62,5.62,5.62,5.62,5.62,5.62,5.62,5.62,5.62,5.62,5.62,5.62,5.62,5.62,5.62,5.62,5.62,5.62,5.62,5.62,5.62,5.62,5.62,5.62,5.62,5.62,5.6605,5.776,5.6913,5.6624,5.7752,5.6877,5.7105,5.9375,5.8525,5.8044,5.8414,5.7026,5.62,5.62,5.62,5.62,5.62,5.62,5.62,5.62,5.62,5.62,5.62,5.62,5.62,0.0,4.399,4.7279,4.7184,4.4446,4.1413,4.0127,3.7002,0.0,3.3492,3.2849,3.2878,3.4308,3.373,3.3211,3.3805,3.4327,3.5754,3.8815,4.0844,4.3611,4.7917,5.0745,5.2151,5.1691,5.3399,5.4102,5.3038,5.3439,5.4027,5.4572,5.5132,5.5691,5.6175,5.62,5.62,5.62,5.62,5.6292,5.6445,5.6273,5.6292,5.6518,5.8144,5.9228,5.9881,6.0998,6.2246,6.3318,6.0625,5.9649,5.9703,5.7739,5.6652,5.62,5.62,5.62,5.62,5.62,5.62,5.62,5.62,5.62,5.62,5.62,5.62,5.62,5.62,5.62,5.62,5.62,5.62,5.62,5.62,5.62,5.62,5.62,5.62,5.62,5.62,5.62,5.62,5.62,5.62,5.62,5.62,5.62,5.62,5.62,5.62,5.62,5.62,5.62,5.62,5.62,5.62,5.62,5.62,5.62,5.62,5.62,5.62,5.62,5.62,5.62,5.62,5.62,5.62,5.62,5.62,5.62,5.62,3.2583,0.0,3.7446,3.6198,3.576,3.5378,0.0,3.3626,3.2789,3.2116,3.1839,3.2445,3.4831,3.3643,3.3731,3.8062,3.7437,3.7862,4.205,4.6283,5.0117,5.3256,5.421,5.4737,5.5013,5.4361,5.3808,5.3532,5.4052,5.4446,5.4597,5.5509,5.6068,5.62,5.62,5.62,5.62,5.62,5.7153,5.9001,5.7117,5.7189,5.9037,5.8938,5.8982,5.9176,5.9854,6.1188,6.2546,5.9065,5.8515,5.9668,5.7306,5.6301,5.62,5.62,5.62,5.62,5.62,5.62,5.62,5.62,5.62,5.62,5.62,5.62,5.62,5.62,5.62,5.62,5.62,5.62,5.62,5.62,5.62,5.62,5.62,5.62,5.62,5.62,5.62,5.62,5.62,5.62,5.62,5.62,5.62,5.62,5.62,5.62,5.62,5.62,5.62,5.62,5.62,5.62,5.62,5.62,5.62,5.62,5.62,5.62,5.62,5.62,5.62,5.62,5.62,5.62,5.62,5.62,5.62,5.62,2.9452,3.1996,3.4295,3.3435,3.3575,3.3851,3.3492,3.2699,3.1936,3.1563,3.1503,3.2138,3.4195,3.3956,3.4425,3.7467,3.839,4.029,4.4699,4.8763,5.2114,5.4356,5.462,5.4838,5.539,5.4386,5.3607,5.3339,5.4127,5.4597,5.4597,5.5616,5.62,5.62,5.62,5.62,5.62,5.62,5.6866,5.8182,5.6848,5.6885,5.82,5.7836,5.7671,5.7697,5.8229,5.8936,5.9546,5.7736,5.749,5.8066,5.6714,5.62,5.62,5.62,5.62,5.62,5.62,5.62,5.62,5.62,5.62,5.62,5.62,5.62,5.62,5.62,5.62,5.62,5.62,5.62,5.62,5.62,5.62,5.62,5.62,5.62,5.62,5.62,5.62,5.62,5.62,5.62,5.62,5.62,5.62,5.62,5.62,5.62,5.62,5.62,5.62,5.62,5.62,5.62,5.62,5.62,5.62,5.62,5.62,5.62,5.62,5.62,5.62,5.62,5.62,5.62,5.62,5.62,5.62,5.62,2.8757,3.1996,3.4915,3.4076,3.4039,3.4166,3.4069,3.2721,3.154,3.1623,3.166,3.2154,3.3818,3.451,3.5085,3.5816,3.9128,4.2981,4.6923,4.9973,5.2359,5.3793,5.3881,5.4067,5.4655,5.4027,5.3389,5.292,5.3976,5.4597,5.4597,5.5616,5.62,5.62,5.62,5.62,5.62,5.62,5.639,5.675,5.639,5.639,5.675,5.6372,5.62,5.6226,5.6778,5.6702,5.6226,5.6778,5.6677,5.62,5.62,5.62,5.62,5.62,5.62,5.62,5.62,5.62,5.62,5.62,5.62,5.62,5.62,5.62,5.62,5.62,5.62,5.62,5.62,5.62,5.62,5.62,5.62,5.62,5.62,5.62,5.62,5.62,5.62,5.62,5.62,5.62,5.62,5.62,5.62,5.62,5.62,5.62,5.62,5.62,5.62,5.62,5.62,5.62,5.62,5.62,5.62,5.62,5.62,5.62,5.62,5.62,5.62,5.62,5.62,5.62,5.62,5.62,5.62,5.62,3.0262,3.4374,3.6725,3.2228,3.1958,3.2662,3.2086,3.172,3.166,3.2243,3.2362,3.3287,3.6321,3.545,3.5404,3.9009,4.2794,4.6227,4.8856,5.2044,5.4343,5.5065,5.4744,5.4666,5.5214,5.3909,5.2988,5.2895,5.3976,5.4597,5.4597,5.5616,5.62,5.62,5.62,5.62,5.62,5.62,5.7269,5.9304,5.7189,5.7306,5.9268,5.7153,5.62,5.6226,5.6778,5.6702,5.6226,5.6778,5.6677,5.62,5.62,5.62,5.62,5.62,5.62,5.62,5.62,5.62,5.62,5.62,5.62,5.62,5.62,5.62,5.62,5.62,5.62,5.62,5.62,5.62,5.62,5.62,5.62,5.62,5.62,5.62,5.62,5.62,5.62,5.62,5.62,5.62,5.62,5.62,5.62,5.62,5.62,5.62,5.62,5.62,5.62,5.62,5.62,5.62,5.62,5.62,5.62,5.62,5.62,5.62,5.62,5.62,5.62,5.62,5.62,5.62,5.62,5.62,5.62,5.62,2.9065,3.1988,3.4606,3.4314,3.7396,4.0507,4.0567,4.0019,3.9083,3.7614,3.7086,3.6979,3.7339,3.7698,3.9592,4.471,4.666,4.8356,5.0627,5.2265,5.3672,5.4814,5.42,5.4014,5.4872,5.371,5.2895,5.2895,5.3976,5.4597,5.4597,5.5616,5.62,5.62,5.62,5.62,5.62,5.62,5.675,5.7896,5.6732,5.6812,5.786,5.6714,5.62,5.6226,5.6778,5.6702,5.6226,5.6778,5.6677,5.62,5.62,5.62,5.62,5.62,5.62,5.62,5.62,5.62,5.62,5.62,5.62,5.62,5.62,5.62,5.62,5.62,5.62,5.62,5.62,5.62,5.62,5.62,5.62,5.62,5.62,5.62,5.62,5.62,5.62,5.62,5.62,5.62,5.62,5.62,5.62,5.62,5.62,5.62,5.62,5.62,5.62,5.62,5.62,5.62,5.62,5.62,5.62,5.62,5.62,5.62,5.62,5.62,5.62,5.62,5.62,5.62,5.62,5.62,5.62,5.62,2.8893,3.0994,3.393,3.7455,4.1349,4.4927,4.7303,4.6211,4.4152,4.2364,4.207,4.134,3.8679,4.0168,4.3479,4.8596,4.9408,5.0152,5.2365,5.2792,5.3293,5.4467,5.3829,5.3593,5.4316,5.3491,5.2895,5.2895,5.3976,5.4597,5.4597,5.5616,5.62,5.62,5.62,5.62,5.62,5.62,5.62,5.62,5.62,5.62,5.62,5.62,5.62,5.6226,5.6627,5.6577,5.6226,5.6652,5.6577,5.62,5.62,5.62,5.62,5.62,5.62,5.62,5.62,5.62,5.62,5.62,5.62,5.62,5.62,5.62,5.62,5.62,5.62,5.62,5.62,5.62,5.62,5.62,5.62,5.62,5.62,5.62,5.62,5.62,5.62,5.62,5.62,5.62,5.62,5.62,5.62,5.62,5.62,5.62,5.62,5.62,5.62,5.62,5.62,5.62,5.62,5.62,5.62,5.62,5.62,5.62,5.62,5.62,5.62,5.62,5.62,5.62,5.62,5.62,5.62,5.62,3.2231,3.5402,3.8351,4.0542,3.8237,3.7349,4.4769,4.3046,4.0637,4.3175,4.5361,4.559,4.1579,4.2345,4.4601,4.755,4.9766,5.1884,5.4119,5.4845,5.5017,5.4639,5.4534,5.429,5.3825,5.324,5.2895,5.2895,5.3976,5.4597,5.4597,5.5616,5.62,5.62,5.62,5.62,5.62,5.62,5.62,5.62,5.62,5.62,5.62,5.62,5.62,5.62,5.6226,5.6244,5.62,5.6226,5.6226,5.62,5.62,5.62,5.62,5.62,5.62,5.62,5.62,5.62,5.62,5.62,5.62,5.62,5.62,5.62,5.62,5.62,5.62,5.62,5.62,5.62,5.62,5.62,5.62,5.62,5.62,5.62,5.62,5.62,5.62,5.62,5.62,5.62,5.62,5.62,5.62,5.62,5.62,5.62,5.62,5.62,5.62,5.62,5.62,5.62,5.62,5.62,5.62,5.62,5.62,5.62,5.62,5.62,5.62,5.62,5.62,5.62,5.62,5.62,5.62,5.62,3.0714,3.4347,3.8129,3.9748,3.9782,4.1471,4.9407,5.0796,5.0319,4.9995,5.0671,4.9687,4.4254,4.5541,4.7746,4.8795,5.1435,5.3769,5.4931,5.5261,5.5314,5.5112,5.4466,5.3949,5.3727,5.3223,5.2895,5.2895,5.3956,5.4595,5.4597,5.5616,5.62,5.62,5.62,5.62,5.62,5.62,5.62,5.62,5.62,5.62,5.62,5.62,5.62,5.62,5.62,5.62,5.62,5.62,5.62,5.62,5.62,5.62,5.62,5.62,5.62,5.62,5.62,5.62,5.62,5.62,5.62,5.62,5.62,5.62,5.62,5.62,5.62,5.62,5.62,5.62,5.62,5.62,5.62,5.62,5.62,5.62,5.62,5.62,5.62,5.62,5.62,5.62,5.62,5.62,5.62,5.62,5.62,5.62,5.62,5.62,5.62,5.62,5.62,5.62,5.62,5.62,5.62,5.62,5.62,5.62,5.62,5.62,5.62,5.62,5.62,5.62,5.62,5.62,5.62,5.62,3.0487,3.3545,3.7229,3.9233,4.1063,4.4461,5.2392,5.4005,5.3966,5.4355,5.2964,5.0782,4.7796,4.8409,4.9574,5.0272,5.2918,5.5061,5.5577,5.5509,5.5354,5.5186,5.428,5.3628,5.3449,5.3133,5.2895,5.2895,5.395,5.4608,5.4597,5.5616,5.62,5.62,5.62,5.62,5.62,5.62,5.62,5.62,5.6376,5.6351,5.62,5.62,5.62,5.62,5.62,5.62,5.62,5.62,5.62,5.62,5.62,5.62,5.62,5.62,5.62,5.62,5.62,5.62,5.62,5.62,5.62,5.62,5.62,5.62,5.62,5.62,5.62,5.62,5.62,5.62,5.62,5.62,5.62,5.62,5.62,5.62,5.62,5.62,5.62,5.62,5.62,5.62,5.62,5.62,5.62,5.62,5.62,5.62,5.62,5.62,5.62,5.62,5.62,5.62,5.62,5.62,5.62,5.62,5.62,5.62,5.62,5.62,5.62,5.62,5.62,5.62,5.62,5.62,5.62,5.62,3.2488,3.3862,3.6268,3.9573,4.1456,4.4592,5.2412,5.0396,4.865,5.4894,5.1377,4.8337,5.2242,5.0714,4.9554,5.173,5.3948,5.5603,5.6114,5.5726,5.5189,5.466,5.4063,5.3466,5.2955,5.2895,5.2895,5.2895,5.395,5.4608,5.4615,5.5616,5.62,5.62,5.62,5.62,5.62,5.62,5.62,5.62,5.6753,5.6728,5.62,5.6219,5.62,5.62,5.62,5.62,5.62,5.62,5.62,5.62,5.62,5.62,5.62,5.62,5.62,5.62,5.62,5.62,5.62,5.62,5.62,5.62,5.62,5.62,5.62,5.62,5.62,5.62,5.62,5.62,5.62,5.62,5.62,5.62,5.62,5.62,5.62,5.62,5.62,5.62,5.62,5.62,5.62,5.62,5.62,5.62,5.62,5.62,5.62,5.62,5.62,5.62,5.62,5.62,5.62,5.62,5.62,5.62,5.62,5.62,5.62,5.62,5.62,5.62,5.62,5.62,5.62,5.62,5.62,5.62,3.1293,3.6515,4.1874,4.0139,4.594,5.27,5.5085,5.3521,5.2366,5.5082,5.2959,5.063,5.0612,5.1191,5.1655,5.1544,5.371,5.5603,5.6114,5.5419,5.478,5.46,5.3747,5.3074,5.2912,5.2895,5.3059,5.3433,5.4182,5.4751,5.5132,5.5817,5.62,5.62,5.62,5.62,5.62,5.62,5.62,5.62,5.6351,5.6351,5.6219,5.6589,5.6571,5.62,5.62,5.62,5.62,5.62,5.62,5.62,5.62,5.62,5.62,5.62,5.62,5.62,5.62,5.62,5.62,5.62,5.62,5.62,5.62,5.62,5.62,5.62,5.62,5.62,5.62,5.62,5.62,5.62,5.62,5.62,5.62,5.62,5.62,5.62,5.62,5.62,5.62,5.62,5.62,5.62,5.62,5.62,5.62,5.62,5.62,5.62,5.62,5.62,5.62,5.62,5.62,5.62,5.62,5.62,5.62,5.62,5.62,5.62,5.62,5.62,5.62,5.62,5.62,5.62,5.62,5.62,3.4826,3.9874,4.4971,4.5553,5.0052,5.4584,5.5338,5.5425,5.5165,5.4542,5.3193,5.1932,5.1344,5.2328,5.315,5.2956,5.4499,5.5831,5.6157,5.529,5.4609,5.4592,5.3585,5.2895,5.2895,5.2895,5.3125,5.3658,5.4263,5.4842,5.5365,5.5917,5.62,5.62,5.62,5.62,5.62,5.62,5.62,5.62,5.6415,5.6415,5.6219,5.6527,5.6509,5.62,5.62,5.62,5.62,5.62,5.62,5.62,5.62,5.62,5.62,5.62,5.62,5.62,5.62,5.62,5.62,5.62,5.62,5.62,5.62,5.62,5.62,5.62,5.62,5.62,5.62,5.62,5.62,5.62,5.62,5.62,5.62,5.62,5.62,5.62,5.62,5.62,5.62,5.62,5.62,5.62,5.62,5.62,5.62,5.62,5.62,5.62,5.62,5.62,5.62,5.62,5.62,5.62,5.62,5.62,5.62,5.62,5.62,5.62,5.62,5.62,5.62,5.62,5.62,5.62,5.62,5.62,4.065,4.3428,4.6789,5.3447,5.37,5.2706,5.426,5.6216,5.6841,5.3568,5.2554,5.2535,5.3529,5.3769,5.4184,5.5217,5.5849,5.6175,5.6125,5.5257,5.4582,5.4532,5.3559,5.2895,5.2895,5.2895,5.315,5.3726,5.4288,5.4849,5.544,5.5942,5.62,5.62,5.62,5.6219,5.628,5.6219,5.6219,5.628,5.6729,5.6685,5.62,5.6239,5.6257,5.62,5.62,5.62,5.62,5.62,5.62,5.62,5.62,5.62,5.62,5.62,5.62,5.62,5.62,5.62,5.62,5.62,5.62,5.62,5.62,5.62,5.62,5.62,5.62,5.62,5.62,5.62,5.62,5.62,5.62,5.62,5.62,5.62,5.62,5.62,5.62,5.62,5.62,5.62,5.62,5.62,5.62,5.62,5.62,5.62,5.62,5.62,5.62,5.6276,5.6477,5.6301,5.62,5.62,5.62,5.62,5.62,5.62,5.62,5.62,5.62,5.62,5.62,5.62,5.62,5.62,5.62,5.62,3.8281,4.4996,5.2395,5.4023,5.6121,5.7342,5.5611,5.5591,5.5366,5.3329,5.3153,5.3417,5.3661,5.4417,5.5115,5.5362,5.5849,5.605,5.5616,5.5006,5.4421,5.3961,5.3306,5.2895,5.2895,5.2895,5.331,5.4324,5.4541,5.5024,5.5974,5.6143,5.62,5.62,5.62,5.6404,5.6818,5.6404,5.6404,5.6818,5.6536,5.6308,5.6226,5.6625,5.6594,5.62,5.62,5.62,5.62,5.62,5.62,5.62,5.62,5.62,5.62,5.62,5.62,5.62,5.62,5.62,5.62,5.62,5.62,5.62,5.62,5.62,5.62,5.62,5.62,5.62,5.62,5.62,5.62,5.62,5.62,5.62,5.62,5.62,5.62,5.62,5.62,5.62,5.62,5.62,5.62,5.62,5.62,5.62,5.62,5.62,5.62,5.62,5.62,5.6903,5.8654,5.7198,5.62,5.62,5.62,5.62,5.62,5.62,5.62,5.62,5.62,5.62,5.62,5.62,5.62,5.62,5.62,5.62,4.0509,4.6584,5.2252,5.4215,5.6323,5.7201,5.4465,5.4011,5.4028,5.3406,5.3733,5.422,5.4485,5.5216,5.5788,5.5788,5.6034,5.61,5.5817,5.5095,5.4477,5.418,5.3406,5.2895,5.2895,5.3119,5.3651,5.4534,5.4849,5.5332,5.615,5.62,5.62,5.62,5.62,5.6342,5.6589,5.6334,5.6334,5.6589,5.6342,5.62,5.62,5.6493,5.6461,5.62,5.62,5.62,5.62,5.62,5.62,5.62,5.62,5.62,5.62,5.62,5.62,5.62,5.62,5.62,5.62,5.62,5.62,5.62,5.62,5.62,5.62,5.62,5.62,5.62,5.62,5.62,5.62,5.62,5.62,5.62,5.62,5.62,5.62,5.62,5.6404,5.6509,5.6237,5.62,5.62,5.62,5.62,5.62,5.62,5.62,5.662,5.7675,5.7775,5.7826,5.7901,5.6872,5.62,5.62,5.62,5.62,5.62,5.62,5.62,5.62,5.62,5.62,5.62,5.62,5.62,5.62,5.62,5.62,4.2107,4.6742,5.0308,5.4235,5.5551,5.524,5.2689,5.2586,5.3179,5.3743,5.4333,5.4867,5.5324,5.5849,5.62,5.62,5.62,5.615,5.5963,5.515,5.4545,5.4348,5.3468,5.2895,5.2895,5.3405,5.3944,5.4538,5.5103,5.562,5.615,5.62,5.62,5.62,5.62,5.6237,5.6342,5.6249,5.6249,5.6342,5.6237,5.62,5.62,5.62,5.62,5.62,5.62,5.62,5.62,5.62,5.62,5.62,5.62,5.62,5.62,5.62,5.62,5.62,5.62,5.62,5.62,5.62,5.62,5.62,5.62,5.62,5.62,5.62,5.62,5.62,5.62,5.62,5.62,5.62,5.628,5.6324,5.6219,5.62,5.62,5.62,5.6563,5.6733,5.6294,5.62,5.62,5.62,5.62,5.62,5.62,5.62,5.6903,5.873,5.9257,5.8604,5.6394,5.62,5.62,5.62,5.62,5.62,5.62,5.62,5.62,5.62,5.62,5.62,5.62,5.62,5.62,5.62,5.62,5.62,3.5697,4.2664,5.0541,5.4272,5.5002,5.435,5.2506,5.2879,5.3758,5.4361,5.4906,5.5325,5.5399,5.5849,5.62,5.62,5.62,5.587,5.4938,5.4706,5.4223,5.3229,5.2988,5.2895,5.2895,5.3388,5.3969,5.4536,5.5105,5.562,5.6168,5.62,5.62,5.62,5.62,5.6404,5.688,5.6415,5.6415,5.688,5.6404,5.62,5.62,5.62,5.62,5.62,5.62,5.62,5.62,5.62,5.62,5.62,5.62,5.62,5.62,5.62,5.62,5.62,5.62,5.62,5.62,5.62,5.62,5.62,5.62,5.62,5.62,5.62,5.62,5.62,5.62,5.62,5.62,5.62,5.6545,5.6774,5.6299,5.62,5.62,5.62,5.627,5.6292,5.6218,5.62,5.62,5.62,5.62,5.62,5.62,5.62,5.6301,5.662,5.8353,5.8604,5.6394,5.62,5.62,5.62,5.62,5.62,5.62,5.62,5.62,5.62,5.62,5.62,5.62,5.62,5.62,5.62,5.62,5.62,3.8107,4.4925,5.0844,5.3977,5.4896,5.4449,5.2169,5.2972,5.4278,5.4547,5.5257,5.5856,5.5842,5.6034,5.62,5.62,5.5954,5.558,5.5104,5.4495,5.3914,5.3413,5.3091,5.2895,5.2895,5.3687,5.4323,5.4582,5.5383,5.5937,5.6194,5.62,5.62,5.62,5.62,5.6324,5.6545,5.6324,5.6324,5.6545,5.6324,5.62,5.62,5.62,5.62,5.62,5.62,5.62,5.62,5.62,5.62,5.62,5.62,5.62,5.62,5.62,5.62,5.62,5.62,5.62,5.62,5.62,5.62,5.62,5.62,5.62,5.62,5.62,5.62,5.62,5.62,5.62,5.62,5.62,5.6589,5.6836,5.6338,5.6451,5.6694,5.6774,5.6482,5.6601,5.7845,5.7021,5.62,5.62,5.62,5.62,5.62,5.62,5.62,5.62,5.8177,5.9106,5.8127,5.8052,5.7524,5.6294,5.62,5.62,5.62,5.62,5.62,5.62,5.62,5.62,5.62,5.62,5.62,5.62,5.62,5.62,3.8647,4.3621,4.6693,5.1349,5.2914,5.2971,5.179,5.3097,5.4597,5.4597,5.544,5.62,5.62,5.62,5.62,5.62,5.5757,5.5344,5.5206,5.4326,5.3645,5.3508,5.315,5.2895,5.2895,5.3926,5.4588,5.4602,5.5576,5.62,5.62,5.62,5.62,5.62,5.62,5.62,5.62,5.62,5.62,5.62,5.62,5.62,5.62,5.62,5.62,5.62,5.62,5.62,5.62,5.62,5.62,5.62,5.62,5.62,5.62,5.62,5.62,5.62,5.62,5.62,5.62,5.62,5.62,5.62,5.62,5.62,5.62,5.62,5.62,5.62,5.62,5.62,5.62,5.62,5.6712,5.7105,5.6583,5.6645,5.6836,5.7003,5.659,5.6737,5.8382,5.7758,5.6853,5.6276,5.6677,5.6846,5.6276,5.62,5.62,5.62,5.7675,5.8654,5.8654,5.8654,5.7951,5.6301,5.62,5.62,5.62,5.62,5.62,5.62,5.62,5.62,5.62,5.62,5.62,5.62,5.62,5.62,3.2391,3.357,3.4795,4.4851,4.7452,4.8328,5.1364,5.3374,5.4597,5.4597,5.544,5.62,5.62,5.62,5.62,5.62,5.5757,5.5217,5.4701,5.4116,5.3508,5.3014,5.2912,5.2895,5.2895,5.3926,5.4599,5.4601,5.5596,5.62,5.62,5.62,5.62,5.62,5.62,5.62,5.62,5.62,5.62,5.62,5.62,5.62,5.62,5.62,5.62,5.62,5.62,5.62,5.62,5.62,5.62,5.62,5.62,5.62,5.62,5.62,5.62,5.62,5.62,5.62,5.62,5.62,5.62,5.62,5.62,5.62,5.62,5.62,5.62,5.62,5.62,5.62,5.62,5.62,5.7065,5.7736,5.7341,5.6708,5.6237,5.6262,5.6231,5.6245,5.6346,5.8012,5.8629,5.652,5.8001,5.8579,5.6451,5.62,5.62,5.62,5.6301,5.6351,5.6351,5.6351,5.6301,5.62,5.62,5.62,5.62,5.62,5.62,5.62,5.62,5.62,5.62,5.62,5.62,5.62,5.62,5.62,3.0422,3.2272,3.4312,4.108,4.4966,4.7425,4.862,5.2126,5.5006,5.4672,5.544,5.62,5.62,5.62,5.62,5.62,5.5753,5.5214,5.466,5.4083,5.3508,5.2955,5.2895,5.2895,5.2895,5.3926,5.4599,5.4614,5.5603,5.62,5.62,5.62,5.62,5.62,5.62,5.62,5.62,5.62,5.62,5.62,5.62,5.62,5.62,5.62,5.62,5.62,5.62,5.62,5.62,5.62,5.62,5.62,5.62,5.62,5.62,5.62,5.62,5.62,5.62,5.62,5.62,5.62,5.62,5.62,5.62,5.62,5.62,5.62,5.62,5.62,5.62,5.62,5.62,5.62,5.7068,5.8051,5.858,5.7969,5.7297,5.7297,5.7287,5.7508,5.8186,5.8973,5.9232,5.8428,5.8981,5.9207,5.8428,5.7097,5.62,5.62,5.62,5.62,5.62,5.62,5.62,5.62,5.62,5.62,5.62,5.62,5.62,5.62,5.62,5.62,5.62,5.62,5.62,5.62,5.62,5.62,2.6909,2.9171,3.21,3.7209,4.0722,4.3862,4.74,5.0795,5.3499,5.4647,5.5566,5.62,5.62,5.62,5.62,5.62,5.5742,5.5286,5.4908,5.4182,5.3568,5.321,5.3014,5.2895,5.2895,5.3926,5.4599,5.4614,5.5603,5.62,5.62,5.62,5.62,5.62,5.62,5.62,5.62,5.62,5.62,5.62,5.62,5.62,5.62,5.62,5.62,5.62,5.62,5.62,5.62,5.62,5.62,5.62,5.62,5.62,5.62,5.62,5.62,5.62,5.62,5.62,5.62,5.62,5.62,5.62,5.62,5.62,5.62,5.62,5.62,5.62,5.62,5.62,5.6314,5.6669,5.7358,5.8186,5.9272,5.8357,5.7552,5.8293,5.844,5.8674,5.94,5.9483,5.9483,5.9483,5.9483,5.9483,5.9483,5.8227,5.7323,5.7323,5.7323,5.7323,5.7323,5.6646,5.62,5.62,5.62,5.62,5.62,5.62,5.62,5.62,5.62,5.62,5.62,5.62,5.62,5.62,5.62,5.62,0.0,0.0,0.0,3.2973,3.4527,3.7338,4.7616,4.9264,4.9873,5.4328,5.5641,5.6068,5.6194,5.62,5.62,5.62,5.5767,5.5433,5.5408,5.4456,5.3738,5.3687,5.3252,5.2912,5.2895,5.3926,5.4581,5.4614,5.5585,5.6175,5.62,5.62,5.62,5.62,5.62,5.62,5.62,5.62,5.62,5.62,5.62,5.62,5.62,5.62,5.62,5.62,5.62,5.62,5.62,5.62,5.62,5.62,5.62,5.62,5.62,5.62,5.62,5.62,5.62,5.62,5.62,5.62,5.62,5.62,5.62,5.62,5.62,5.62,5.62,5.62,5.62,5.62,5.6505,5.7665,5.7951,5.823,5.9292,5.7805,5.6939,5.9081,5.9483,5.9483,5.9483,5.9483,5.9483,5.9483,5.9483,5.9483,5.9483,5.9483,5.9483,5.9483,5.9483,5.9483,5.9483,5.7524,5.6301,5.6301,5.6301,5.6251,5.62,5.62,5.62,5.62,5.62,5.62,5.62,5.6251,5.6301,5.6319,5.6226,5.62,2.1929,0.0,0.0,0.0,0.0,0.0,3.8743,4.1934,4.5376,5.0209,5.1322,5.2402,5.5616,5.62,5.62,5.62,5.6093,5.5842,5.544,5.511,5.4623,5.3797,5.3568,5.3329,5.2955,5.3525,5.4117,5.4571,5.5234,5.5788,5.6175,5.62,5.62,5.62,5.62,5.62,5.62,5.62,5.62,5.62,5.62,5.62,5.62,5.62,5.62,5.62,5.62,5.62,5.62,5.62,5.62,5.62,5.62,5.62,5.62,5.62,5.62,5.62,5.62,5.62,5.62,5.62,5.62,5.62,5.62,5.62,5.62,5.62,5.62,5.62,5.62,5.62,5.6691,5.8619,5.9056,5.9145,5.9444,5.9037,5.8782,5.94,5.9483,5.9483,5.9483,5.9483,5.9483,5.9483,5.9483,5.9483,5.9483,5.9483,5.9483,5.9483,5.9483,5.9483,5.9483,5.893,5.8579,5.8579,5.8579,5.7876,5.6251,5.62,5.62,5.62,5.62,5.62,5.62,5.7801,5.8579,5.8554,5.6947,5.62,0.0,0.0,0.0,0.0,0.0,0.0,3.7977,4.0828,4.4084,5.0661,5.2,5.2729,5.5089,5.5717,5.5867,5.5867,5.605,5.6093,5.5767,5.5541,5.506,5.4179,5.3846,5.3491,5.2955,5.3389,5.3859,5.4199,5.4759,5.5303,5.5846,5.6086,5.62,5.62,5.62,5.62,5.62,5.62,5.62,5.62,5.62,5.62,5.62,5.62,5.62,5.62,5.62,5.62,5.62,5.62,5.62,5.62,5.62,5.62,5.62,5.62,5.62,5.62,5.62,5.62,5.62,5.62,5.62,5.62,5.62,5.62,5.62,5.62,5.62,5.62,5.62,5.6878,5.7901,5.9182,5.9483,5.9483,5.9483,5.9483,5.9483,5.9483,5.9483,5.9483,5.9483,5.9483,5.9483,5.9483,5.9483,5.9483,5.9483,5.9483,5.9483,5.9483,5.9483,5.9483,5.9483,5.9483,5.9483,5.9483,5.9483,5.8504,5.6276,5.62,5.62,5.62,5.62,5.6652,5.7575,5.888,5.9483,5.9433,5.7248,5.62,0.0,0.0,0.0,0.0,0.0,0.0,4.0261,4.177,4.3266,5.159,5.3298,5.3298,5.3316,5.3801,5.416,5.4052,5.4888,5.5717,5.6125,5.5792,5.5282,5.4748,5.4204,5.3633,5.3055,5.3405,5.3721,5.3687,5.4303,5.4902,5.5358,5.5922,5.62,5.62,5.62,5.62,5.62,5.62,5.62,5.62,5.62,5.62,5.62,5.62,5.62,5.62,5.62,5.62,5.62,5.62,5.62,5.62,5.62,5.62,5.62,5.62,5.62,5.62,5.62,5.62,5.62,5.62,5.62,5.62,5.62,5.62,5.62,5.62,5.6376,5.657,5.657,5.8027,5.9483,5.9483,5.9483,5.9483,5.9483,5.9483,5.9483,5.9483,5.9483,5.9483,5.9483,5.9483,5.9483,5.9483,5.9483,5.9483,5.9483,5.9483,5.9483,5.9483,5.9483,5.9483,5.9483,5.9483,5.9483,5.9483,5.9483,5.8629,5.6671,5.657,5.657,5.657,5.657,5.7549,5.9483,5.9483,5.9483,5.9433,5.7248,5.62,0.0,0.0,0.0,0.0,0.0,0.0,3.0442,3.1813,3.4237,3.912,4.0112,4.1155,4.4622,4.605,4.6411,4.5562,4.8862,5.2611,5.5749,5.61,5.5842,5.5308,5.5142,5.4683,5.3632,5.3634,5.3698,5.3695,5.4658,5.5282,5.5401,5.5922,5.62,5.62,5.62,5.62,5.62,5.62,5.62,5.62,5.62,5.62,5.62,5.62,5.62,5.62,5.62,5.62,5.62,5.62,5.62,5.62,5.62,5.62,5.62,5.62,5.62,5.62,5.62,5.62,5.62,5.62,5.62,5.62,5.62,5.62,5.62,5.62,5.7499,5.8855,5.8855,5.9182,5.9483,5.9483,5.9483,5.9483,5.9483,5.9483,5.9483,5.9483,5.9483,5.9483,5.9483,5.9483,5.9483,5.9483,5.9483,5.9483,5.9483,5.9483,5.9483,5.9483,5.9483,5.9483,5.9483,5.9483,5.9483,5.9483,5.9483,5.9307,5.888,5.8855,5.8855,5.8855,5.8855,5.9056,5.9483,5.9483,5.9483,5.9433,5.7248,5.62,0.0,0.0,0.0,2.8021,0.0,0.0,0.0,3.2049,3.3596,3.8329,3.8831,3.9195,4.1692,4.2582,4.2972,4.3,4.6928,5.0218,5.077,5.3708,5.5691,5.5433,5.5408,5.5082,5.4228,5.3884,5.3584,5.332,5.4082,5.4675,5.4977,5.5501,5.5917,5.6175,5.62,5.62,5.62,5.62,5.62,5.62,5.62,5.62,5.62,5.62,5.62,5.62,5.62,5.62,5.62,5.62,5.62,5.62,5.62,5.62,5.62,5.62,5.62,5.62,5.62,5.62,5.62,5.62,5.62,5.62,5.62,5.62,5.62,5.62,5.7801,5.9483,5.9483,5.9483,5.9483,5.9483,5.9483,5.9483,5.9483,5.9483,5.9483,5.9483,5.9483,5.9483,5.9483,5.9483,5.9483,5.9483,5.9483,5.9483,5.9483,5.9483,5.9483,5.9483,5.9483,5.9483,5.9483,5.9483,5.9483,5.9483,5.9483,5.9483,5.9483,5.9483,5.9483,5.9483,5.9483,5.9483,5.9483,5.9483,5.9483,5.9458,5.8353,5.7255,0.0,0.0,0.0,0.0,0.0,2.9623,0.0,0.0,0.0,3.8479,3.8743,3.8392,3.8831,3.9081,3.9471,4.0174,4.4105,4.624,4.389,4.8928,5.3022,5.3432,5.4712,5.5107,5.3901,5.3055,5.2779,5.3188,5.2829,5.3155,5.4522,5.5107,5.5591,5.6043,5.6168,5.62,5.62,5.62,5.62,5.62,5.62,5.62,5.62,5.62,5.62,5.62,5.62,5.62,5.62,5.62,5.62,5.62,5.62,5.62,5.62,5.62,5.62,5.62,5.62,5.62,5.62,5.62,5.6353,5.648,5.6282,5.62,5.6294,5.6721,5.8127,5.9483,5.9483,5.9483,5.9483,5.9483,5.9483,5.9483,5.9483,5.9483,5.9483,5.9483,5.9483,5.9483,5.9483,5.9483,5.9483,5.9483,5.9483,5.9483,5.9483,5.9483,5.9483,5.9483,5.9483,5.9483,5.9483,5.9483,5.9483,5.9483,5.9483,5.9483,5.9483,5.9483,5.9483,5.9483,5.9483,5.9483,5.9483,5.9483,5.9483,5.9483,5.9483,5.8554,0.0,0.0,0.0,0.0,3.1537,0.0,0.0,0.0,3.0015,2.917,0.0,3.0227,3.0302,0.0,0.0,3.0628,3.4661,3.76,3.6749,4.0715,4.4421,4.6391,5.2251,5.4719,5.1205,4.9464,5.0167,5.4102,5.077,5.0318,5.4396,5.5107,5.5433,5.5509,5.5968,5.62,5.62,5.62,5.62,5.62,5.62,5.62,5.62,5.62,5.62,5.62,5.62,5.62,5.62,5.62,5.62,5.62,5.62,5.62,5.62,5.62,5.62,5.62,5.62,5.62,5.62,5.62,5.6881,5.753,5.653,5.62,5.662,5.8579,5.9307,5.9483,5.9483,5.9483,5.9483,5.9483,5.9483,5.9483,5.9483,5.9483,5.9483,5.9483,5.9483,5.9483,5.9483,5.9483,5.9483,5.9483,5.9483,5.9483,5.9483,5.9483,5.9483,5.9483,5.9483,5.9483,5.9483,5.9483,5.9483,5.9483,5.9483,5.9483,5.9483,5.9483,5.9483,5.9483,5.9483,5.9483,5.9483,5.9483,5.9483,5.9483,5.9483,5.9357,0.0,0.0,0.0,0.0,0.0,0.0,2.895,0.0,2.7864,0.0,0.0,0.0,0.0,0.0,0.0,0.0,3.2792,3.465,3.2505,3.7387,4.192,4.3829,4.6718,4.8802,4.9414,4.8853,5.0284,5.473,5.0619,4.9992,5.4805,5.5282,5.5408,5.5408,5.5917,5.62,5.62,5.62,5.62,5.62,5.62,5.62,5.62,5.62,5.62,5.62,5.62,5.62,5.62,5.62,5.62,5.62,5.62,5.62,5.6226,5.6552,5.6677,5.6646,5.6671,5.6651,5.6589,5.6299,5.6532,5.6819,5.6357,5.62,5.6652,5.888,5.9483,5.9483,5.9483,5.9483,5.9483,5.9483,5.9483,5.9483,5.9483,5.9483,5.9483,5.9483,5.9483,5.9483,5.9483,5.9483,5.9483,5.9483,5.9483,5.9483,5.9483,5.9483,5.9483,5.9483,5.9483,5.9483,5.9483,5.9483,5.9483,5.9483,5.9483,5.9483,5.9483,5.9483,5.9483,5.9483,5.9483,5.9483,5.9483,5.9483,5.9483,5.9483,5.9483,5.9483,3.6342,0.0,0.0,0.0,0.0,0.0,0.0,0.0,0.0,0.0,0.0,0.0,0.0,0.0,0.0,0.0,0.0,3.2446,2.9526,3.394,3.7995,3.9434,4.079,4.3101,4.6858,4.6115,4.7747,5.3399,4.9314,4.9138,5.5082,5.5559,5.5541,5.539,5.5917,5.62,5.62,5.62,5.62,5.62,5.62,5.62,5.62,5.62,5.62,5.62,5.62,5.62,5.62,5.62,5.62,5.62,5.62,5.6276,5.6477,5.686,5.7116,5.7241,5.7249,5.7176,5.6985,5.6385,5.6197,5.6207,5.6201,5.62,5.6652,5.888,5.9483,5.9483,5.9483,5.9483,5.9483,5.9483,5.9483,5.9483,5.9483,5.9483,5.9483,5.9483,5.9483,5.9483,5.9483,5.9483,5.9483,5.9483,5.9483,5.9483,5.9483,5.9483,5.9483,5.9483,5.9483,5.9483,5.9483,5.9483,5.9483,5.9483,5.9483,5.9483,5.9483,5.9483,5.9483,5.9483,5.9483,5.9483,5.9483,5.9483,5.9483,5.9483,5.9483,5.9483,0.0,0.0,0.0,3.3215,0.0,0.0,0.0,0.0,2.9377,0.0,0.0,0.0,0.0,0.0,0.0,0.0,0.0,0.0,0.0,0.0,0.0,3.0909,3.5241,3.9471,4.285,3.9295,4.0425,4.9113,4.5663,4.6743,5.4956,5.5892,5.5942,5.5433,5.5917,5.62,5.62,5.62,5.62,5.62,5.62,5.62,5.62,5.62,5.62,5.62,5.62,5.62,5.62,5.62,5.62,5.62,5.62,5.6527,5.6985,5.6985,5.7378,5.7873,5.7869,5.7602,5.7171,5.6447,5.6207,5.6196,5.62,5.62,5.6652,5.888,5.9483,5.9483,5.9483,5.9483,5.9483,5.9483,5.9483,5.9483,5.9483,5.9483,5.9483,5.9483,5.9483,5.9483,5.9483,5.9483,5.9483,5.9483,5.9483,5.9483,5.9483,5.9483,5.9483,5.9483,5.9483,5.9483,5.9483,5.9483,5.9483,5.9483,5.9483,5.9483,5.9483,5.9483,5.9483,5.9483,5.9483,5.9483,5.9483,5.9483,5.9483,5.9483,5.9483,5.9483,0.0,0.0,4.6306,3.8341,0.0,0.0,0.0,0.0,0.0,0.0,0.0,0.0,0.0,0.0,0.0,0.0,0.0,0.0,0.0,0.0,0.0,0.0,0.0,0.0,0.0,0.0,4.3076,4.8652,4.8024,0.0,5.6125,5.6301,5.61,5.5942,5.6118,5.62,5.62,5.62,5.62,5.62,5.62,5.62,5.62,5.62,5.62,5.62,5.62,5.62,5.62,5.62,5.62,5.62,5.62,5.6529,5.7054,5.7448,5.7945,5.8423,5.8432,5.8111,5.7543,5.6528,5.62,5.6451,5.7951,5.8378,5.8554,5.9282,5.9483,5.9483,5.9483,5.9483,5.9483,5.9483,5.9483,5.9483,5.9483,5.9483,5.9483,5.9483,5.9483,5.9483,5.9483,5.9483,5.9483,5.9483,5.9483,5.9483,5.9483,5.9483,5.9483,5.9483,5.9483,5.9483,5.9483,5.9483,5.9483,5.9483,5.9483,5.9483,5.9483,5.9483,5.9483,5.9483,5.9483,5.9483,5.9483,5.9483,5.9483,5.9483,5.9483,5.9483,4.8497,4.9665,0.0,4.357,4.2629,0.0,3.4684,0.0,3.3068,0.0,0.0,0.0,0.0,0.0,0.0,0.0,0.0,0.0,0.0,0.0,0.0,0.0,0.0,0.0,0.0,0.0,0.0,0.0,0.0,0.0,0.0,5.6251,5.6477,5.6477,5.6301,5.62,5.62,5.62,5.62,5.62,5.62,5.62,5.62,5.62,5.62,5.62,5.62,5.62,5.62,5.62,5.62,5.62,5.62,5.6536,5.7075,5.7681,5.8359,5.8982,5.897,5.8757,5.8343,5.7619,5.6828,5.6602,5.883,5.9483,5.9483,5.9483,5.9483,5.9483,5.9483,5.9483,5.9483,5.9483,5.9483,5.9483,5.9483,5.9483,5.9483,5.9483,5.9483,5.9483,5.9483,5.9483,5.9483,5.9483,5.9483,5.9483,5.9483,5.9483,5.9483,5.9483,5.9483,5.9483,5.9483,5.9483,5.9483,5.9483,5.9483,5.9483,5.9483,5.9483,5.9483,5.9483,5.9483,5.9483,5.9483,5.9483,5.9483,5.9483,5.9483,5.9483]},{"header":{"parameterUnit":"m.s-1","parameterCategory":1,"la1":30.6,"la2":29.2853,"lo1":-89.7004,"lo2":-87.6739,"dx":0.0162,"dy":0.0183,"nx":112,"ny":82,"refTime":"2022-11-21T18:00:00:Z","depth":0,"parameterNumber":3,"parameterNumberName":"V-component_of_WINDS"},"data":[0.0,0.0,0.0,0.0,0.0,0.0,0.0,0.0,0.0,0.0,0.0,0.0,0.0,0.0,0.0,0.0,0.0,0.0,0.0,0.0,0.0,0.0,0.0,0.0,0.0,0.0,0.0,0.0,0.0,0.0,0.0,0.0,0.0,0.0,0.0,0.0,0.0,0.0,0.0,0.0,0.0,0.0,0.0,0.0,0.0,0.0,0.0,0.0,0.0,0.0,0.0,0.0,0.0,0.0,0.0,0.0,0.0,0.0,0.0,0.0,0.0,0.0,0.0,0.0,0.0,0.0,0.0,0.0,0.0,0.0,0.0,0.0,0.0,0.0,0.0,0.0,0.0,0.0,0.0,0.0,0.0,0.0,0.0,0.0,0.0,0.0,0.0,0.0,0.0,0.0,2.1487,2.522,3.0099,3.2906,3.2433,3.1167,2.8599,2.4391,0.0,0.0,0.0,0.0,0.0,0.0,0.0,0.0,0.0,0.0,0.0,0.0,0.0,0.0,0.0,0.0,0.0,0.0,0.0,0.0,0.0,0.0,0.0,0.0,0.0,0.0,0.0,0.0,0.0,0.0,0.0,0.0,0.0,0.0,0.0,0.0,0.0,0.0,0.0,0.0,0.0,0.0,0.0,0.0,0.0,0.0,0.0,0.0,0.0,0.0,0.0,0.0,0.0,0.0,0.0,0.0,0.0,0.0,0.0,0.0,0.0,0.0,0.0,0.0,0.0,0.0,0.0,0.0,0.0,0.0,0.0,0.0,0.0,0.0,0.0,0.0,0.0,0.0,0.0,0.0,0.0,0.0,0.0,0.0,0.0,0.0,0.0,0.0,0.0,0.0,0.0,0.0,0.0,0.0,0.0,0.0,0.0,0.0,0.0,0.0,0.0,0.0,0.0,0.0,2.3933,3.1229,3.3445,3.4101,3.3285,3.2036,2.9423,2.505,0.0,0.0,0.0,0.0,0.0,0.0,0.0,0.0,0.0,0.0,0.0,0.0,0.0,0.0,0.0,0.0,0.0,0.0,0.0,0.0,0.0,0.0,0.0,0.0,0.0,0.0,0.0,0.0,0.0,0.0,0.0,0.0,0.0,0.0,0.0,0.0,0.0,0.0,0.0,0.0,0.0,0.0,0.0,0.0,0.0,0.0,0.0,0.0,0.0,0.0,0.0,0.0,0.0,0.0,0.0,0.0,0.0,0.0,0.0,0.0,0.0,0.0,0.0,0.0,0.0,0.0,0.0,0.0,0.0,0.0,0.0,0.0,0.0,0.0,0.0,0.0,0.0,0.0,0.0,0.0,0.0,0.0,0.0,0.0,0.0,0.0,0.0,0.0,0.0,0.0,0.0,0.0,0.0,0.0,0.0,0.0,0.0,0.0,0.0,0.0,0.0,0.0,0.0,2.2346,2.7414,3.3804,3.4844,3.4805,3.4163,3.2949,3.0433,2.6297,2.3374,0.0,0.0,0.0,0.0,0.0,0.0,0.0,0.0,0.0,0.0,0.0,0.0,0.0,0.0,0.0,0.0,0.0,0.0,0.0,0.0,0.0,0.0,0.0,0.0,0.0,0.0,0.0,0.0,0.0,0.0,0.0,0.0,0.0,0.0,0.0,0.0,0.0,0.0,0.0,0.0,0.0,0.0,0.0,0.0,0.0,0.0,0.0,0.0,0.0,0.0,0.0,0.0,0.0,0.0,0.0,0.0,0.0,0.0,0.0,0.0,0.0,0.0,0.0,0.0,0.0,0.0,0.0,0.0,0.0,0.0,0.0,0.0,0.0,0.0,0.0,0.0,0.0,0.0,0.0,0.0,0.0,0.0,0.0,0.0,0.0,0.0,0.0,0.0,0.0,0.0,0.0,0.0,0.0,0.0,0.0,0.0,0.0,0.0,0.0,0.0,0.0,0.0,2.8231,3.174,3.5582,3.5898,3.5664,3.5195,3.3789,3.1325,2.7495,2.445,0.0,0.0,0.0,0.0,0.0,0.0,0.0,0.0,0.0,0.0,0.0,0.0,0.0,0.0,0.0,0.0,0.0,0.0,0.0,0.0,0.0,0.0,0.0,0.0,0.0,0.0,0.0,0.0,0.0,0.0,0.0,0.0,0.0,0.0,0.0,0.0,0.0,0.0,0.0,0.0,0.0,0.0,0.0,0.0,0.0,0.0,0.0,0.0,0.0,0.0,0.0,0.0,0.0,0.0,0.0,0.0,0.0,0.0,0.0,0.0,0.0,0.0,0.0,0.0,0.0,0.0,0.0,0.0,0.0,0.0,0.0,0.0,0.0,0.0,0.0,0.0,0.0,0.0,0.0,0.0,0.0,0.0,0.0,0.0,0.0,0.0,0.0,0.0,0.0,0.0,0.0,0.0,0.0,0.0,0.0,0.0,0.0,0.0,0.0,0.0,0.0,0.0,3.198,3.72,3.767,3.7402,3.6992,3.658,3.459,3.1827,2.826,2.473,0.0,0.0,0.0,0.0,0.0,0.0,0.0,0.0,0.0,0.0,0.0,0.0,0.0,0.0,0.0,0.0,0.0,0.0,0.0,0.0,0.0,0.0,0.0,0.0,0.0,0.0,0.0,0.0,0.0,0.0,0.0,0.0,0.0,0.0,0.0,0.0,0.0,0.0,0.0,0.0,0.0,0.0,0.0,0.0,0.0,0.0,0.0,0.0,0.0,0.0,0.0,0.0,0.0,0.0,0.0,0.0,0.0,0.0,0.0,0.0,0.0,0.0,0.0,0.0,0.0,0.0,0.0,0.0,0.0,0.0,0.0,0.0,0.0,0.0,0.0,0.0,0.0,0.0,0.0,0.0,0.0,0.0,0.0,0.0,0.0,0.0,0.0,0.0,0.0,0.0,0.0,0.0,0.0,0.0,0.0,0.0,0.0,0.0,0.0,0.0,0.0,0.0,3.1927,3.6212,0.0,3.8202,3.7733,3.6792,3.5446,3.3049,2.9275,0.0,0.0,0.0,0.0,0.0,0.0,0.0,0.0,0.0,0.0,0.0,0.0,0.0,0.0,0.0,0.0,0.0,0.0,0.0,0.0,0.0,0.0,0.0,0.0,0.0,0.0,0.0,0.0,0.0,0.0,0.0,0.0,0.0,0.0,0.0,0.0,0.0,0.0,0.0,0.0,0.0,0.0,0.0,0.0,0.0,0.0,0.0,0.0,0.0,0.0,0.0,0.0,0.0,0.0,0.0,0.0,0.0,0.0,0.0,0.0,0.0,0.0,0.0,0.0,0.0,0.0,0.0,0.0,0.0,0.0,0.0,0.0,0.0,0.0,0.0,0.0,0.0,0.0,0.0,0.0,0.0,0.0,0.0,0.0,0.0,0.0,0.0,0.0,0.0,0.0,0.0,0.0,0.0,0.0,0.0,0.0,0.0,0.0,0.0,0.0,0.0,0.0,2.7563,3.2495,3.6423,0.0,3.8768,3.8241,3.7379,3.625,3.4153,3.0756,0.0,0.0,0.0,0.0,0.0,0.0,0.0,0.0,0.0,0.0,0.0,0.0,0.0,0.0,0.0,0.0,0.0,0.0,0.0,0.0,0.0,0.0,0.0,0.0,0.0,0.0,0.0,0.0,0.0,0.0,0.0,0.0,0.0,0.0,0.0,0.0,0.0,0.0,0.0,0.0,0.0,0.0,0.0,0.0,0.0,0.0,0.0,0.0,0.0,0.0,0.0,0.0,0.0,0.0,0.0,0.0,0.0,0.0,0.0,0.0,0.0,0.0,0.0,0.0,0.0,0.0,0.0,0.0,0.0,0.0,0.0,0.0,0.0,0.0,0.0,0.0,0.0,0.0,0.0,0.0,0.0,0.0,0.0,0.0,0.0,0.0,0.0,0.0,0.0,0.0,0.0,0.0,0.0,0.0,0.0,0.0,0.0,0.0,0.0,0.0,0.0,0.0,2.7851,3.4296,3.8925,3.9785,3.912,3.8592,3.8592,3.7029,3.5048,0.0,0.0,0.0,0.0,0.0,0.0,0.0,0.0,0.0,0.0,0.0,0.0,0.0,0.0,0.0,0.0,0.0,0.0,0.0,0.0,0.0,0.0,0.0,0.0,0.0,0.0,0.0,0.0,0.0,0.0,0.0,0.0,0.0,0.0,0.0,0.0,0.0,0.0,0.0,0.0,0.0,0.0,0.0,0.0,0.0,0.0,0.0,0.0,0.0,0.0,0.0,0.0,0.0,0.0,0.0,0.0,0.0,0.0,0.0,0.0,0.0,0.0,0.0,0.0,0.0,0.0,0.0,0.0,0.0,0.0,0.0,0.0,0.0,0.0,0.0,0.0,0.0,0.0,0.0,0.0,0.0,0.0,0.0,0.0,0.0,0.0,0.0,0.0,0.0,0.0,0.0,0.0,0.0,0.0,0.0,0.0,0.0,0.0,0.0,0.0,0.0,0.0,0.0,2.9154,3.4873,3.8807,3.9355,3.9273,3.8844,3.8017,3.7885,3.5813,3.1063,0.0,0.0,0.0,0.0,0.0,0.0,0.0,0.0,0.0,0.0,0.0,0.0,0.0,0.0,0.0,0.0,0.0,0.0,0.0,0.0,0.0,0.0,0.0,0.0,0.0,0.0,0.0,0.0,0.0,0.0,0.0,0.0,0.0,0.0,0.0,0.0,0.0,0.0,0.0,0.0,0.0,0.0,0.0,0.0,0.0,0.0,0.0,0.0,0.0,0.0,0.0,0.0,0.0,0.0,0.0,0.0,0.0,0.0,0.0,0.0,0.0,0.0,0.0,0.0,0.0,0.0,0.0,0.0,0.0,0.0,0.0,0.0,0.0,0.0,0.0,0.0,0.0,0.0,0.0,0.0,0.0,0.0,0.0,0.0,0.0,0.0,0.0,0.0,0.0,0.0,0.0,0.0,0.0,0.0,0.0,0.0,0.0,0.0,0.0,0.0,0.0,0.0,2.9777,3.5134,3.869,3.8926,3.902,3.9208,3.9499,3.864,3.6436,3.263,0.0,0.0,0.0,0.0,0.0,0.0,0.0,0.0,0.0,0.0,0.0,0.0,0.0,0.0,0.0,0.0,0.0,0.0,0.0,0.0,0.0,0.0,0.0,0.0,0.0,0.0,0.0,0.0,0.0,0.0,0.0,0.0,0.0,0.0,0.0,0.0,0.0,0.0,0.0,0.0,0.0,0.0,0.0,0.0,0.0,0.0,0.0,0.0,0.0,0.0,0.0,0.0,0.0,0.0,0.0,0.0,0.0,0.0,0.0,0.0,0.0,0.0,0.0,0.0,0.0,0.0,0.0,0.0,0.0,0.0,0.0,0.0,0.0,0.0,0.0,0.0,0.0,0.0,0.0,0.0,0.0,0.0,0.0,0.0,0.0,0.0,0.0,0.0,0.0,0.0,0.0,0.0,0.0,0.0,0.0,0.0,0.0,0.0,0.0,0.0,0.0,0.0,3.0161,3.5399,3.8882,3.8933,3.8729,3.9508,4.1781,3.9179,3.6854,3.5535,0.0,0.0,0.0,0.0,0.0,0.0,0.0,0.0,0.0,0.0,0.0,0.0,0.0,0.0,0.0,0.0,0.0,0.0,0.0,0.0,0.0,0.0,0.0,0.0,0.0,0.0,0.0,0.0,0.0,0.0,0.0,0.0,0.0,0.0,0.0,0.0,0.0,0.0,0.0,0.0,0.0,0.0,0.0,0.0,0.0,0.0,0.0,0.0,0.0,0.0,0.0,0.0,0.0,0.0,0.0,0.0,0.0,0.0,0.0,0.0,1.9078,1.7411,0.0,0.0,0.0,0.0,0.0,0.0,0.0,0.0,0.0,0.0,0.0,0.0,0.0,0.0,0.0,0.0,0.0,0.0,0.0,0.0,0.0,0.0,0.0,0.0,0.0,0.0,0.0,0.0,0.0,0.0,0.0,0.0,0.0,0.0,0.0,0.0,0.0,0.0,0.0,0.0,3.2335,3.7468,4.0941,4.1451,3.976,3.8818,3.9354,3.8721,3.6308,3.1568,2.9994,0.0,0.0,0.0,0.0,0.0,0.0,0.0,0.0,0.0,0.0,0.0,0.0,0.0,0.0,0.0,0.0,0.0,0.0,0.0,0.0,0.0,0.0,0.0,0.0,0.0,0.0,0.0,0.0,0.0,0.0,0.0,0.0,0.0,0.0,0.0,0.0,0.0,0.0,0.0,0.0,0.0,0.0,0.0,0.0,0.0,0.0,0.0,0.0,0.0,0.0,0.0,0.0,0.0,0.0,0.0,0.0,0.0,0.0,0.0,2.2352,2.0578,0.0,0.0,0.0,0.0,0.0,0.0,0.0,0.0,0.0,0.0,0.0,0.0,0.0,0.0,0.0,0.0,0.0,0.0,0.0,0.0,0.0,0.0,0.0,0.0,0.0,0.0,0.0,0.0,0.0,0.0,0.0,0.0,0.0,0.0,0.0,0.0,0.0,0.0,0.0,0.0,3.4124,3.9541,4.3066,4.3158,4.1998,4.1947,4.3727,4.2262,4.0056,3.7284,3.5662,0.0,0.0,0.0,0.0,0.0,0.0,0.0,0.0,0.0,0.0,0.0,0.0,0.0,0.0,0.0,0.0,0.0,0.0,0.0,0.0,0.0,0.0,0.0,0.0,0.0,0.0,0.0,0.0,0.0,0.0,0.0,0.0,0.0,0.0,0.0,0.0,0.0,0.0,0.0,0.0,0.0,0.0,0.0,0.0,0.0,0.0,0.0,0.0,0.0,0.0,0.0,0.0,0.0,2.8228,2.9036,3.0156,3.0056,2.9943,2.9631,2.5645,2.4115,2.4227,2.0963,0.0,0.0,0.0,0.0,0.0,0.0,0.0,0.0,0.0,0.0,0.0,0.0,0.0,0.0,0.0,0.0,0.0,0.0,0.0,0.0,0.0,0.0,0.0,0.0,2.7475,2.793,2.4111,0.0,0.0,0.0,0.0,0.0,0.0,0.0,0.0,0.0,0.0,0.0,3.6295,4.1892,4.5519,4.5458,4.5446,4.6398,4.8715,4.6122,4.4457,4.4658,4.0851,3.6968,0.0,0.0,0.0,0.0,0.0,0.0,0.0,0.0,0.0,0.0,0.0,0.0,0.0,0.0,0.0,0.0,0.0,0.0,0.0,0.0,0.0,0.0,0.0,0.0,0.0,0.0,0.0,0.0,0.0,0.0,0.0,0.0,2.2018,2.2249,0.0,0.0,0.0,0.0,0.0,0.0,0.0,0.0,0.0,0.0,0.0,0.0,0.0,2.5521,2.7657,3.0592,3.2281,3.271,3.4689,3.5339,3.4816,3.4197,3.3532,3.2793,3.2161,0.0,2.8249,2.6721,0.0,0.0,0.0,0.0,0.0,0.0,0.0,0.0,0.0,0.0,0.0,0.0,0.0,0.0,0.0,0.0,0.0,0.0,0.0,0.0,0.0,0.0,2.9824,3.1737,3.1951,3.1515,0.0,2.7462,2.4403,2.4059,2.3305,0.0,0.0,0.0,0.0,0.0,0.0,0.0,4.0199,4.5066,4.8745,5.0594,5.0771,4.9537,4.6465,4.5775,4.5112,4.4251,4.337,4.1343,3.7888,3.5472,0.0,0.0,0.0,0.0,0.0,0.0,0.0,0.0,0.0,0.0,0.0,0.0,0.0,0.0,0.0,0.0,0.0,0.0,0.0,0.0,0.0,0.0,0.0,0.0,0.0,0.0,0.0,0.0,0.0,2.1415,2.3336,2.3936,2.2825,2.0944,0.0,0.0,0.0,0.0,0.0,0.0,0.0,0.0,0.0,2.9528,3.0572,3.2173,3.4477,3.6359,3.7905,3.9044,4.0058,4.0476,4.0292,4.0013,3.9008,3.7449,3.6457,3.5148,3.3423,2.9721,2.7025,2.4975,0.0,0.0,0.0,0.0,2.1105,2.1173,2.3134,2.3421,2.2851,2.2345,0.0,0.0,0.0,0.0,0.0,0.0,0.0,2.6408,0.0,0.0,3.1202,3.3796,3.4006,3.3606,3.3606,3.1973,3.0356,0.0,2.9311,2.7686,2.3733,0.0,0.0,0.0,0.0,4.2894,4.438,4.8051,5.1012,5.2285,5.2413,5.169,4.9897,4.9188,4.8365,4.7248,4.6479,4.5133,4.3003,4.0745,3.6575,0.0,0.0,0.0,0.0,0.0,0.0,0.0,0.0,0.0,0.0,0.0,0.0,0.0,0.0,0.0,0.0,0.0,0.0,0.0,0.0,0.0,0.0,0.0,0.0,0.0,0.0,0.0,0.0,2.4365,2.5921,2.6071,2.5293,2.3644,0.0,0.0,0.0,0.0,0.0,0.0,2.8069,2.8917,3.1366,3.5855,3.6941,3.8557,4.0918,4.1616,4.2747,4.4263,4.4399,4.4405,4.4284,4.4284,4.3098,4.0975,3.9664,3.8793,3.789,3.2546,2.9775,2.8663,2.6191,2.4939,2.4644,2.5818,2.6314,2.6705,2.8828,2.918,2.8582,2.7923,2.6888,2.5696,2.4617,0.0,0.0,0.0,0.0,2.9729,3.2894,3.3172,3.3409,3.671,3.7582,3.7672,3.766,3.627,3.4639,0.0,3.3433,3.2678,2.93,0.0,0.0,0.0,4.5241,5.0032,4.8107,5.0731,5.2879,5.3289,5.3211,5.3045,5.2919,5.2169,5.1346,5.05,4.9122,4.7722,4.6365,4.4658,4.2028,3.8291,0.0,0.0,0.0,0.0,0.0,0.0,0.0,0.0,0.0,0.0,0.0,0.0,0.0,0.0,0.0,0.0,0.0,0.0,0.0,0.0,0.0,0.0,0.0,0.0,0.0,0.0,0.0,0.0,0.0,2.9854,2.949,0.0,0.0,0.0,0.0,2.7181,2.8589,3.073,3.3815,3.6328,3.9188,4.2426,4.2764,4.3886,4.593,4.648,4.6805,4.6932,4.7448,4.6851,4.531,4.531,4.4078,4.1928,4.1831,4.1497,4.0673,3.6156,3.3139,3.1304,3.1071,2.9782,2.8158,2.9051,2.9618,3.0078,3.104,3.1352,3.1294,3.1255,2.9844,2.806,2.7604,2.7193,0.0,0.0,3.1341,3.305,3.7717,3.8062,3.8261,4.2632,4.4723,4.5715,4.5714,4.0563,3.5208,0.0,3.3554,3.5613,3.8613,0.0,4.3396,4.6004,5.0607,5.3033,5.1048,5.2942,5.4496,5.4522,5.4019,5.3449,5.2955,5.2851,5.2809,5.2748,5.0707,4.8539,4.6391,4.6174,4.5015,4.2643,3.7019,0.0,0.0,0.0,0.0,0.0,0.0,0.0,0.0,0.0,0.0,0.0,0.0,0.0,0.0,0.0,0.0,0.0,0.0,0.0,0.0,0.0,0.0,0.0,0.0,0.0,0.0,0.0,0.0,3.2982,3.2766,0.0,3.0168,3.2792,3.5017,3.6047,3.5917,3.6996,3.9791,4.0948,4.2793,4.5538,4.642,4.7364,4.8394,4.9339,4.9791,4.9816,5.0008,4.979,4.9208,4.9208,4.8347,4.6819,4.5695,4.4711,4.3693,4.0992,3.8194,3.557,3.5007,3.3825,3.248,3.3101,3.3594,3.4007,3.4629,3.4648,3.4261,3.3437,3.2832,3.2602,3.3626,3.4289,3.5233,3.7965,3.8895,3.9632,4.197,4.2132,4.2279,4.4687,4.6873,4.8418,4.8411,4.6487,4.3072,3.7419,3.635,3.7213,3.9826,4.2305,4.4379,4.5813,5.0173,5.3309,5.3311,5.4056,5.4597,5.4597,5.4403,5.4052,5.3439,5.3094,5.2891,5.2901,5.2163,5.0081,4.6445,4.6291,4.5915,4.5088,4.1126,3.6585,0.0,0.0,0.0,0.0,0.0,0.0,0.0,0.0,0.0,0.0,0.0,0.0,0.0,0.0,0.0,0.0,0.0,0.0,0.0,0.0,0.0,0.0,0.0,0.0,0.0,3.2552,3.5504,3.5292,3.6242,3.6208,3.4501,3.7627,4.0395,4.1966,4.1409,4.2157,4.4811,4.5255,4.6376,4.8438,4.9254,4.9807,5.0184,5.0912,5.123,5.1097,5.1097,5.1172,5.1289,5.1289,5.0877,5.0091,4.8551,4.7329,4.6365,4.5195,4.3038,4.0255,3.8519,3.7298,3.649,3.6172,3.6309,3.6786,3.7721,3.8256,3.8335,3.7365,3.7216,3.7654,3.8852,3.9695,4.0595,4.243,4.2907,4.3169,4.4412,4.4745,4.5162,4.6752,4.8695,4.9882,4.8837,4.9446,4.8729,4.3821,4.2727,4.2488,4.2287,4.5222,4.7475,4.7196,5.0912,5.3884,5.4253,5.478,5.5132,5.5132,5.4981,5.4629,5.4052,5.299,5.2516,5.2876,5.2902,5.1238,4.7576,4.5598,4.4595,4.4618,4.2771,3.9406,3.4536,0.0,0.0,0.0,0.0,0.0,0.0,0.0,0.0,0.0,0.0,0.0,0.0,0.0,0.0,0.0,0.0,0.0,0.0,0.0,0.0,0.0,0.0,0.0,3.0949,3.6496,3.9634,3.7023,4.0049,4.1495,3.9346,3.9672,4.1319,4.4438,4.4786,4.6025,4.8689,4.9355,5.0159,5.1264,5.1339,5.1339,5.1339,5.1389,5.1197,5.083,5.0813,5.1005,5.1373,5.1373,5.1343,5.1279,5.015,4.9234,4.8572,4.8597,4.741,4.5243,4.1684,4.026,3.9986,3.8182,3.7755,3.8339,4.0151,4.1929,4.3332,4.2938,4.2791,4.2808,4.2857,4.2897,4.2936,4.2985,4.3024,4.3427,4.5162,4.5974,4.6904,4.9153,5.051,5.0511,4.7493,4.9134,5.1239,5.1333,5.2211,5.144,4.6747,5.0353,5.3133,5.087,5.3331,0.0,5.3959,5.5221,5.62,5.6194,5.5666,5.5132,5.4597,5.2545,5.1707,5.2693,5.2851,5.1913,4.9692,4.4384,4.1479,4.1431,4.1909,4.0803,3.8053,0.0,0.0,0.0,0.0,0.0,0.0,0.0,0.0,0.0,0.0,0.0,0.0,0.0,0.0,0.0,0.0,0.0,0.0,0.0,0.0,0.0,3.4162,3.7802,3.7262,4.0475,4.3062,4.3525,4.4855,4.5357,4.4367,4.4763,4.546,4.6341,4.7567,4.8581,4.9323,5.0309,5.0987,5.1289,5.2051,5.246,5.246,5.3273,5.3632,5.3513,5.3238,5.3136,5.3238,5.27,5.2464,5.24,5.1303,5.055,5.0149,5.0663,5.0646,4.9882,4.6021,4.3756,4.2624,4.2446,4.2171,4.1959,4.2472,4.2794,4.2961,4.2836,4.2791,4.3045,4.4291,4.4962,4.5601,4.7256,4.8012,4.8616,4.9916,5.0082,5.0148,5.1164,5.154,5.144,5.0576,4.9718,4.9801,5.2039,5.3121,5.3128,5.124,5.1411,5.2176,5.33,5.5214,5.6451,5.6132,5.6502,5.6477,5.5691,5.4737,5.3959,5.3414,5.2118,5.0854,4.9774,5.1717,5.191,4.9685,4.7343,4.5533,4.4367,4.249,4.0789,0.0,0.0,0.0,0.0,0.0,0.0,0.0,0.0,0.0,0.0,0.0,0.0,0.0,0.0,0.0,0.0,0.0,0.0,0.0,0.0,0.0,0.0,3.8492,4.2521,4.3402,4.4884,4.615,4.6863,4.7465,4.7682,4.738,4.7817,4.8243,4.8469,4.9615,5.0393,5.0645,5.1498,5.1975,5.1975,5.303,5.3507,5.3239,5.3884,5.4431,5.4822,5.457,5.4608,5.491,5.4487,5.4282,5.4182,5.2655,5.2365,5.297,5.2452,5.2333,5.2114,0.0,0.0,0.0,0.0,4.5375,4.5546,4.5546,4.5902,4.6369,4.6369,4.6369,4.6551,4.7571,4.8085,4.8624,4.9931,5.0544,5.0921,5.1599,5.1699,5.1699,5.2026,5.2336,5.2401,5.1775,5.1275,5.1287,5.2436,5.3503,0.0,5.3991,5.3327,5.3155,5.4069,5.5817,5.6778,5.6093,5.6577,5.6677,5.5817,5.4938,5.4185,5.3658,5.2193,0.0,0.0,0.0,4.9966,4.9626,4.779,0.0,0.0,0.0,0.0,0.0,0.0,0.0,0.0,3.4818,3.3767,0.0,0.0,0.0,0.0,0.0,0.0,0.0,0.0,0.0,0.0,0.0,0.0,0.0,0.0,0.0,0.0,4.224,4.5974,4.8526,4.8928,4.8777,4.8259,4.8652,4.9003,4.9069,4.9506,4.9992,5.0452,5.1096,5.1674,5.2159,5.2762,0.0,0.0,0.0,5.4328,5.3808,5.3808,5.4215,5.5039,5.5078,5.5454,5.606,5.5895,5.5917,5.5897,5.3827,5.4108,5.5923,5.3963,5.3203,5.3083,5.1225,5.0505,5.0239,4.8017,4.7895,4.881,4.881,0.0,0.0,5.1289,5.1289,5.1289,5.1289,5.1339,5.1389,5.1389,5.149,5.159,5.1641,5.2042,5.2402,5.2452,5.3155,5.3434,5.2073,5.3273,5.4206,5.2838,5.372,5.4848,5.5333,5.5408,5.5082,5.4135,5.5698,5.6477,5.5056,5.61,5.6778,5.6175,0.0,0.0,5.4454,5.2495,5.1724,5.2762,4.9018,4.7651,4.9507,4.7096,4.5734,4.5773,4.5788,4.5999,4.6486,4.6963,4.6948,4.6296,3.9031,3.7405,0.0,0.0,0.0,0.0,0.0,0.0,0.0,0.0,0.0,0.0,0.0,0.0,0.0,0.0,0.0,4.1605,4.5452,4.8325,4.9305,4.9816,5.0051,4.9925,5.0001,5.0293,5.0761,5.0912,5.1013,5.1113,5.2051,5.2636,5.2737,5.3725,5.4253,5.4253,5.4496,5.4547,5.4446,5.4446,5.4514,5.47,5.4981,0.0,5.5277,5.4084,5.4027,5.4816,5.3477,5.381,5.5266,5.4841,5.5028,5.5336,5.3198,5.2387,5.2278,5.138,5.0922,5.0763,5.0763,5.1005,5.1289,5.1289,5.1289,5.1289,5.1289,5.1599,0.0,5.195,5.2578,5.3348,5.3843,5.4044,5.4228,5.468,5.4579,5.434,5.4049,5.4306,5.4516,5.4199,5.4756,5.5282,5.5383,5.5408,5.5465,5.5673,5.6451,5.6885,5.6577,5.6809,5.6627,5.5641,5.4637,5.3808,5.3264,5.2026,5.1565,5.2209,5.0747,4.9765,4.9615,4.9035,4.8315,4.7456,4.7431,4.7481,4.7606,4.7691,4.7691,4.7516,4.5109,4.4584,0.0,0.0,0.0,0.0,0.0,0.0,0.0,0.0,0.0,0.0,0.0,3.0304,3.3776,0.0,4.206,4.4372,4.7471,4.969,4.9967,5.0494,5.0745,5.0427,5.067,5.1071,5.1649,5.1699,5.19,5.2469,5.2737,5.3013,5.3289,5.3833,5.4027,5.3758,5.4303,5.4597,5.4597,5.4597,5.4856,5.5408,5.5315,5.5207,5.5085,5.4356,5.4234,5.4574,5.4177,5.462,5.566,5.5648,5.5863,5.605,5.4687,5.3984,5.3708,5.3449,5.2804,5.2101,5.2101,5.2101,5.2101,5.2101,5.2101,5.2151,5.2402,5.2678,5.2955,5.3273,5.375,5.4228,5.4522,5.4597,5.4672,5.4949,5.5006,5.5006,5.5006,5.5207,5.5408,5.5408,5.5616,5.5792,5.5792,5.5792,5.5993,5.6527,5.6835,5.6985,5.6985,5.6985,5.6702,5.5892,5.5039,5.4436,5.4167,5.3232,5.2621,5.2511,5.2059,5.1473,5.0733,5.0534,5.0167,4.9615,4.959,4.9464,4.9147,4.9464,4.9439,4.9163,4.8912,4.8485,0.0,0.0,0.0,0.0,0.0,0.0,0.0,2.5925,2.7681,3.1231,3.3712,3.6242,3.9462,4.2739,4.5395,4.6747,4.8894,5.0452,5.0553,5.1071,5.1297,5.0929,5.1322,5.1825,5.2377,5.2427,5.2779,5.3632,5.3289,5.3239,5.3683,5.3808,5.3733,5.3389,5.4177,5.4647,5.4748,5.4647,5.5031,5.5892,5.5458,5.5153,5.5013,5.5013,5.4917,5.4773,5.5159,5.5595,5.6053,5.6177,5.62,5.615,5.5717,5.5232,5.4748,5.4647,5.4027,5.3239,5.3239,5.3239,5.3239,5.3239,5.3239,5.3314,5.3733,5.3858,5.3976,5.4454,5.4672,5.4773,5.4773,5.483,5.4906,5.4906,5.5232,5.5559,5.5559,5.5892,5.62,5.62,5.6276,5.6351,5.6351,5.6451,5.6602,5.6809,5.6835,5.6835,5.6835,5.6835,5.6677,5.6251,5.5817,5.5491,5.5347,5.46,5.3863,5.3281,5.3102,5.2742,5.2052,5.1649,5.1414,5.1289,5.1289,5.1063,5.0578,5.1046,5.1063,5.0578,5.1071,5.0561,2.4194,2.3936,2.4699,2.5034,2.6548,2.879,0.0,3.341,3.4689,3.6746,3.8919,4.1231,4.3765,4.5261,4.6828,4.9055,4.9967,5.0578,5.1113,5.1674,5.2159,5.2586,5.2686,5.2937,5.3482,5.3532,5.3582,5.3683,5.3658,5.3632,5.3708,5.4202,5.468,5.5089,5.478,5.483,5.5308,5.4848,5.4672,5.4773,5.4723,5.4697,5.4655,5.4655,5.4906,5.5333,5.586,5.5853,5.5519,5.5993,5.62,5.6175,5.6125,5.5792,5.5257,5.4773,5.4522,5.4403,5.4403,5.4403,5.4403,5.4403,5.4403,5.4421,5.4496,5.4496,5.4522,5.4572,5.4931,5.5308,5.5308,5.5666,5.6018,5.6018,5.6068,5.61,5.61,5.615,5.62,5.62,5.6577,5.691,5.691,5.7355,5.7399,5.6426,5.6276,5.6276,5.6276,5.6276,5.6251,5.62,5.6168,5.5856,5.5171,5.4752,5.4514,5.4421,5.3893,5.3366,5.2796,5.2277,5.1774,5.1314,5.1289,5.1264,5.1214,5.1264,5.1264,5.1214,5.1264,5.1188,3.1525,3.0888,3.0568,3.2752,3.4425,3.5917,3.7398,3.8803,4.0374,4.2418,4.4049,4.5559,4.691,4.7992,4.9011,4.9986,5.0854,5.1473,5.1724,5.2226,5.2661,5.287,5.3482,5.3833,5.3708,5.3708,5.3708,5.3708,5.3708,5.3858,5.4202,5.4454,5.4697,5.4931,5.4723,5.4873,5.5408,5.5182,5.5232,5.5516,5.5516,5.5516,5.5516,5.5516,5.5641,5.5892,5.61,5.6068,5.5892,5.6118,5.62,5.62,5.62,5.605,5.5792,5.5257,5.4856,5.4597,5.4597,5.4597,5.4597,5.4597,5.4597,5.4672,5.4956,5.5056,5.5132,5.5458,5.5691,5.5867,5.5867,5.6251,5.6677,5.6677,5.6928,5.7198,5.7198,5.8064,5.8807,5.8807,5.9902,6.0847,6.0847,6.1042,6.106,6.0572,5.8295,5.6677,5.6677,5.6401,5.62,5.62,5.62,5.6082,5.5769,5.5609,5.5404,5.5099,5.4711,5.4326,5.3926,5.3331,5.2929,5.2703,5.2402,5.2226,5.2226,5.2553,5.2703,5.2703,5.3047,5.3215,3.4913,3.5214,3.5541,3.858,4.0727,4.2144,4.2295,4.3489,4.5035,4.6652,4.7732,4.851,4.8928,4.9766,5.0452,5.0603,5.1456,5.2101,5.2101,5.2561,5.2895,5.2895,5.3926,5.4353,5.3758,5.3858,5.3934,5.3934,5.3783,5.3959,5.4572,5.4597,5.4672,5.4823,5.4805,5.5082,5.5616,5.5616,5.5817,5.62,5.62,5.62,5.62,5.62,5.62,5.62,5.62,5.62,5.62,5.62,5.62,5.62,5.62,5.62,5.615,5.5767,5.5365,5.5031,5.5031,5.5031,5.5031,5.5031,5.5031,5.5107,5.5491,5.5616,5.5691,5.6093,5.6301,5.6426,5.6426,5.6828,5.7255,5.7255,5.7978,5.8667,5.8667,6.0146,6.1497,6.1497,6.2754,6.3834,6.3834,6.3955,6.4048,6.4048,6.0726,5.819,5.8037,5.7121,5.6488,5.6426,5.6276,5.62,5.62,5.6211,5.6027,5.5659,5.535,5.5066,5.4823,5.4253,5.3934,5.3934,5.3582,5.3381,5.3364,5.3758,5.3934,5.3959,5.4396,5.4597,3.1421,3.4285,3.765,3.9885,4.3299,4.6261,4.6772,4.7782,4.8642,4.8718,4.9154,4.954,4.9565,5.0042,5.0578,5.1188,5.1724,5.2101,5.2101,5.2561,5.2895,5.2895,5.3926,5.4353,5.3758,5.4228,5.4572,5.4572,5.4027,5.3959,5.4572,5.4597,5.4848,5.5358,5.5383,5.5616,5.615,5.6194,5.6175,5.62,5.62,5.62,5.62,5.62,5.62,5.62,5.62,5.62,5.62,5.62,5.62,5.62,5.62,5.62,5.62,5.6175,5.615,5.615,5.615,5.615,5.615,5.615,5.615,5.615,5.615,5.6194,5.6194,5.6219,5.6577,5.6985,5.6985,5.743,5.7876,5.7876,5.9282,6.0627,6.0627,6.2153,6.3515,6.3515,6.3975,6.438,6.438,6.4825,6.5159,6.5159,6.3001,6.1197,6.0653,5.8643,5.719,5.7004,5.6502,5.62,5.62,5.6194,5.6194,5.6194,5.5666,5.5383,5.5383,5.4856,5.4572,5.4572,5.4572,5.4547,5.4547,5.4572,5.4572,5.4572,5.4597,5.4597,3.5627,3.8668,4.1744,4.4694,4.6677,4.7999,4.82,4.8802,4.933,4.933,4.9257,4.9208,4.9208,4.9982,5.0678,5.0859,5.187,5.2511,5.2151,5.2277,5.236,5.236,5.3013,5.3389,5.3188,5.4361,5.468,5.3557,5.431,5.4755,5.4622,5.5282,5.5742,5.5942,5.5942,5.6018,5.62,5.62,5.62,5.62,5.6552,5.6953,5.7323,5.7323,5.718,5.6887,5.6408,5.6203,5.6203,5.6203,5.6203,5.6284,5.7012,5.6874,5.6282,5.703,5.6846,5.62,5.62,5.62,5.62,5.62,5.6451,5.6728,5.6728,5.7004,5.7323,5.7323,5.7474,5.76,5.76,5.8008,5.8725,5.9972,6.1083,6.2165,6.3415,6.5213,6.6572,6.6572,6.774,6.8719,6.8719,6.8877,6.8403,6.673,6.3638,6.0847,5.9071,5.8174,5.7662,5.76,5.6768,5.6337,5.6709,5.6401,5.62,5.62,5.6043,5.5942,5.5942,5.5433,5.5132,5.5132,5.4798,5.4597,5.4597,5.4956,5.4949,5.4622,5.4956,5.4931,3.9145,4.192,4.4317,4.7431,4.8652,4.9079,4.9079,4.9355,4.959,4.959,4.9097,4.8724,4.8963,4.9652,5.0419,5.1131,5.2408,5.3127,5.2693,5.2805,5.2741,5.2169,5.2737,5.3113,5.2937,5.4411,5.4863,5.3607,5.4529,5.5132,5.5157,5.5817,5.62,5.62,5.62,5.62,5.62,5.6401,5.6602,5.6821,5.7154,5.7443,5.7688,5.7688,5.74,5.6874,5.6418,5.6643,5.7375,5.7375,5.7375,5.7462,5.8196,5.7863,5.7068,5.7669,5.7449,5.6796,5.6552,5.6502,5.6502,5.6502,5.6853,5.733,5.733,5.7581,5.7901,5.7901,5.8027,5.8177,5.8202,5.9085,6.0336,6.1537,6.3152,6.4759,6.5984,6.7747,6.9103,6.9103,7.0061,7.0889,7.0889,7.0889,7.0318,6.8709,6.5248,6.1761,5.8859,5.8479,5.8391,5.8202,5.7469,5.698,5.701,5.6684,5.6401,5.62,5.62,5.62,5.62,5.5867,5.5691,5.5691,5.5358,5.5157,5.5182,5.5333,5.5232,5.4881,5.5042,5.5146,4.1644,4.394,4.5508,4.8174,4.9229,4.959,4.959,4.959,4.9581,4.9494,4.8645,4.8076,4.8601,4.9,4.9829,5.1612,5.3059,5.385,5.3514,5.4005,5.3819,5.2287,5.3005,5.3457,5.2988,5.4386,5.5132,5.4672,5.4672,5.5107,5.6118,5.6194,5.62,5.62,5.62,5.62,5.6226,5.6778,5.7355,5.7926,5.7926,5.7763,5.7412,5.7412,5.7036,5.6368,5.6368,5.7556,5.9494,5.9494,5.9494,5.9494,5.9494,5.9046,5.8372,5.8102,5.7951,5.7826,5.728,5.706,5.7035,5.7035,5.7455,5.7951,5.7951,5.7951,5.7976,5.7976,5.8423,5.8876,5.8907,6.0702,6.2553,6.2664,6.5455,6.8146,6.8231,6.9648,7.0889,7.0889,7.0889,7.0889,7.0843,7.0843,7.0848,7.0838,6.7646,6.3874,6.0098,5.9508,5.9262,5.8724,5.8454,5.7988,5.7104,5.701,5.6784,5.6276,5.6226,5.6226,5.62,5.6175,5.615,5.62,5.6168,5.6125,5.6157,5.5616,5.534,5.5297,5.4877,5.5251,4.3589,4.621,4.851,4.9229,4.9506,4.959,4.959,4.959,4.9242,4.7981,4.7267,4.6402,4.4749,4.6606,4.8273,4.7865,5.0819,5.2878,5.2011,5.2351,5.2565,5.2152,5.2352,5.2779,5.3432,5.3884,5.4411,5.5132,5.5566,5.5742,5.5591,5.5993,5.62,5.62,5.62,5.6401,5.6784,5.738,5.787,5.8276,5.8276,5.8515,5.8935,5.8935,5.8827,5.8656,5.8656,5.8998,5.9507,5.9507,5.9507,5.9507,5.9507,5.9045,5.8472,5.8911,5.8579,5.7951,5.8183,5.8008,5.7656,5.7656,5.8033,5.8485,5.8485,5.878,5.9081,5.9081,6.0238,6.1458,6.1465,6.2973,6.4839,6.6283,6.7398,6.8485,6.988,7.0563,7.0889,7.0889,7.0889,7.0677,7.0044,7.0109,7.0168,6.995,6.7608,6.4689,6.1404,5.9764,5.8705,5.8152,5.7643,5.7436,5.765,5.7255,5.6935,5.6784,5.6784,5.6627,5.62,5.5817,5.5792,5.6175,5.5433,5.5207,5.5603,5.5074,5.458,5.4156,5.5327,5.5764,4.6225,4.8184,4.959,4.959,5.0142,5.0277,4.883,4.9042,4.875,4.6066,4.499,4.4128,4.2757,4.5378,4.7826,4.7989,5.1416,5.3933,5.3442,5.3242,5.2968,5.2512,5.2678,5.303,5.3632,5.416,5.5042,5.6476,5.6863,5.7017,5.694,5.7979,5.8215,5.7403,5.7623,5.7743,5.7757,5.7976,5.8383,5.8866,5.8866,5.9079,5.9483,5.9483,5.9483,5.9483,5.9483,5.9483,5.9483,5.9483,5.9483,5.9483,5.9483,5.9243,5.8935,5.9363,5.9106,5.8604,5.8685,5.8485,5.8234,5.8234,5.8303,5.8384,5.8635,5.8911,5.9304,6.0143,6.1353,6.259,6.3402,6.5036,6.6736,6.7844,6.8721,6.9632,7.0678,7.0889,7.0889,7.0889,7.0587,7.0118,6.9452,6.9461,6.9439,6.9064,6.6672,6.4192,6.2252,6.0559,5.9117,5.802,5.76,5.743,5.7481,5.7186,5.6784,5.6326,5.6301,5.6068,5.5516,5.5207,5.5308,5.5842,5.5042,5.4881,5.5419,5.4602,5.4415,5.4857,5.5574,5.6685,4.8786,4.959,4.959,4.959,5.0648,5.0856,4.769,4.7909,4.7622,4.3571,4.2094,4.1472,4.1141,4.4237,4.7384,4.9029,5.2549,5.5218,5.5646,5.5076,5.4261,5.3342,5.3944,5.4343,5.4201,5.5128,5.6536,5.8414,5.8552,5.8774,5.9243,6.0733,6.0804,5.9044,5.9366,5.9293,5.8704,5.8615,5.8866,5.9483,5.9483,5.9483,5.9483,5.9496,5.9344,5.9083,5.9363,5.9491,5.9491,5.9502,5.9458,5.9363,5.9363,5.9313,5.9282,5.9282,5.9282,5.9207,5.8761,5.8706,5.8801,5.8655,5.8278,5.8033,5.8738,5.894,5.9349,6.1227,6.2374,6.3367,6.4896,6.6865,6.8468,6.8468,6.9715,7.0889,7.0891,7.0908,7.0831,7.0679,7.0044,6.9349,6.8818,6.88,6.8701,6.82,6.5482,6.3268,6.2554,6.1086,5.9476,5.7862,5.7675,5.7481,5.7035,5.6985,5.6602,5.5666,5.5616,5.5383,5.483,5.4723,5.4949,5.5509,5.491,5.4848,5.5419,5.458,5.4957,5.6432,5.6365,5.824,4.933,4.959,4.959,4.959,4.9815,4.9357,4.6835,4.5842,4.415,3.9654,3.8943,3.8613,3.6717,4.0775,4.4453,4.4631,4.8904,5.2671,5.4011,5.4796,5.5165,5.4999,5.6797,5.7724,5.6782,5.7249,5.8572,6.0813,6.0976,6.1031,6.1123,6.1427,6.0978,5.9615,5.9105,5.8826,5.8685,5.9112,5.9363,5.9483,5.9483,5.9483,5.9502,5.9501,5.8519,5.6874,5.8709,5.9496,5.9502,5.9498,5.9149,5.8583,5.8583,5.8434,5.8177,5.8177,5.8177,5.8152,5.8077,5.8692,5.9367,5.8357,5.7976,5.8202,5.9798,6.0274,6.0648,6.2474,6.4582,6.6196,6.5782,6.804,7.0403,7.0403,7.0661,7.0908,7.0894,7.0912,7.0577,6.953,6.9202,6.8728,6.7536,6.7801,6.7956,6.7327,6.546,6.3564,6.1963,5.9358,5.7323,5.6582,5.6477,5.6627,5.696,5.6985,5.691,5.6734,5.6728,5.6477,5.5942,5.5505,5.5505,5.6068,5.5096,5.4859,5.5394,5.6254,5.6841,5.7185,5.9977,6.1643,4.9531,4.959,4.959,4.959,5.0229,4.9641,4.5051,4.4058,4.2595,3.7375,3.6304,3.5949,3.4804,3.9218,4.3115,4.3184,4.7755,5.1797,5.3224,5.4565,5.5082,5.4198,5.6421,5.7819,5.7348,5.8031,5.9752,6.2776,6.3018,6.3018,6.3018,6.3346,6.3353,6.3035,6.2131,6.1324,6.0627,5.9888,5.9952,6.0786,5.9344,5.8655,5.8652,5.8662,5.7963,5.6833,5.7881,5.8624,5.9071,5.8787,5.8616,5.8515,5.8258,5.8045,5.7901,5.7901,5.7901,5.8001,5.8624,5.9219,5.972,5.9783,5.9818,6.0031,6.1208,6.1553,6.1893,6.3571,6.518,6.6749,6.8104,6.9673,7.0889,7.0889,7.0541,7.0106,6.9648,6.9192,6.8903,6.8972,6.844,6.7745,6.712,6.7263,6.7373,6.7044,6.5466,6.3639,6.183,5.9492,5.7512,5.631,5.62,5.6301,5.6552,5.6577,5.6451,5.6194,5.615,5.5947,5.5401,5.5127,5.5238,5.5768,5.4995,5.5322,5.6806,5.714,5.8227,6.0058,6.1726,6.3154,4.957,4.9665,4.9741,4.9615,5.0639,4.9945,4.3389,4.2328,4.1089,3.5217,3.3675,3.3468,3.3685,3.7837,4.1617,4.2718,4.6985,5.0961,5.3359,5.4608,5.5165,5.4798,5.6823,5.8335,5.8604,5.949,6.1394,6.4646,6.487,6.4928,6.5089,6.5315,6.5738,6.6305,6.5182,6.407,6.3007,6.134,6.1022,6.199,6.0153,5.9102,5.8663,5.788,5.7641,5.7835,5.745,5.7681,5.8309,5.8027,5.8058,5.8322,5.8301,5.8215,5.8169,5.855,5.869,5.8815,5.9783,6.0373,6.0868,6.1862,6.1914,6.1746,6.2564,6.2715,6.2979,6.4702,6.56,6.6685,6.9376,7.0283,7.05,7.05,6.973,6.8842,6.8166,6.7484,6.7302,6.8371,6.7724,6.6987,6.6989,6.6995,6.7014,6.7014,6.5466,6.3639,6.183,6.0023,5.8215,5.6394,5.62,5.62,5.62,5.62,5.6018,5.5591,5.5566,5.5361,5.4961,5.4935,5.5322,5.6136,5.5727,5.6619,5.8858,5.882,6.0208,6.2887,6.3286,6.4442,4.9482,4.9967,5.0201,4.9715,5.008,4.8915,4.2618,4.0605,3.8307,3.2095,3.077,3.12,3.2635,3.5429,3.8678,4.2295,4.5282,4.907,5.4748,5.5256,5.6443,6.0269,6.1479,6.2234,6.2854,6.3461,6.463,6.6585,6.6754,6.7022,6.7634,6.6611,6.635,6.6972,6.5764,6.5088,6.4947,6.4172,6.3171,6.2036,6.3281,6.2972,6.1156,5.7854,5.752,5.9494,5.7954,5.7254,5.7186,5.77,5.7606,5.7321,5.8926,5.9261,5.9017,6.0667,6.1254,6.1271,6.1385,6.2497,6.3887,6.3991,6.2953,6.1925,6.3627,6.3748,6.3785,6.6137,6.6835,6.6947,6.7284,6.8248,6.9183,6.9183,6.8187,6.724,6.7135,6.7045,6.7047,6.7162,6.7097,6.6989,6.6982,6.6999,6.7014,6.7014,6.5466,6.3639,6.183,6.0023,5.8215,5.6394,5.62,5.62,5.62,5.62,5.6194,5.6143,5.6143,5.6093,5.6061,5.6061,5.6853,5.8563,5.8532,5.9411,6.1286,6.2878,6.3824,6.4176,6.5837,6.6712,4.976,5.0226,5.0277,4.9741,4.9003,4.6975,4.15,3.8669,3.5982,3.1741,3.0332,3.0255,3.1594,3.4003,3.6649,3.924,4.2295,4.5739,4.9763,5.1839,5.3965,5.6654,5.8783,6.0954,6.3255,6.3999,6.4867,6.6308,6.6026,6.6251,6.7343,6.7684,6.7967,6.8248,6.8135,6.7334,6.576,6.5471,6.4849,6.3853,6.3432,6.3239,6.3088,5.9467,5.834,5.9149,5.7397,5.6965,5.7506,5.7072,5.7781,5.918,5.9199,5.9753,6.0597,6.1326,6.1595,6.1763,6.2854,6.3688,6.4487,6.5576,6.5421,6.4994,6.5702,6.5754,6.5773,6.6739,6.6994,6.7001,6.7001,6.74,6.7907,6.8313,6.809,6.7639,6.71,6.6995,6.6995,6.6983,6.7012,6.7011,6.6983,6.7014,6.7014,6.7014,6.64,6.487,6.1964,6.1914,6.1039,5.8144,5.6859,5.62,5.62,5.7213,5.7824,5.7824,5.8839,5.9444,5.9453,5.9439,5.9792,6.0497,6.0517,6.1424,6.3229,6.3944,6.4852,6.595,6.6677,6.7014,4.9484,5.0293,5.0544,4.9967,4.835,4.56,4.0799,3.7414,3.4417,3.1414,2.9871,2.9518,3.0928,3.2672,3.47,3.7237,4.0063,4.3244,4.6957,4.9371,5.1722,5.4332,5.6179,5.881,6.2715,6.413,6.505,6.5666,6.5278,6.5577,6.6924,6.7897,6.8585,6.9004,6.9453,6.8818,6.6996,6.6776,6.641,6.5941,6.4446,6.4214,6.4994,6.1343,5.9802,5.9806,5.7289,5.6846,5.7882,5.744,5.8502,6.0364,6.0685,6.1457,6.2446,6.3002,6.3199,6.3378,6.4662,6.5105,6.5311,6.657,6.7014,6.7014,6.7014,6.7014,6.7014,6.7014,6.6995,6.7006,6.7006,6.6999,6.7115,6.758,6.7809,6.775,6.7149,6.7014,6.7014,6.7014,6.7014,6.7014,6.7014,6.7014,6.7014,6.7014,6.7014,6.5903,6.2805,6.3509,6.3117,6.0041,5.856,5.7788,5.7788,5.8973,5.9695,5.9695,6.0901,6.159,6.1601,6.1611,6.1864,6.2382,6.2409,6.3292,6.5116,6.5099,6.5749,6.7014,6.7014,6.7014,4.8431,5.008,5.1163,5.0528,4.8335,4.516,4.0715,3.7111,3.3771,3.0502,2.8919,2.8754,3.0825,3.1204,3.2722,3.7252,3.9093,4.2107,4.8395,4.8965,5.0572,5.5573,5.5277,5.6607,6.1622,6.4456,6.5712,6.5054,6.4994,6.5577,6.6924,6.7014,6.7643,6.8944,6.9004,6.8988,6.8972,6.83,6.7986,6.7956,6.7267,6.6968,6.6846,6.3215,6.1859,6.2127,5.7993,5.6846,5.8001,5.9301,5.9809,6.0093,6.3789,6.4828,6.4503,6.6291,6.6953,6.6968,6.6983,6.6983,6.6983,6.6999,6.7014,6.7014,6.7014,6.7014,6.7014,6.7014,6.7014,6.6999,6.6999,6.6999,6.6999,6.7014,6.7014,6.7014,6.7014,6.7014,6.7014,6.7014,6.7014,6.7014,6.7014,6.7014,6.7014,6.7014,6.7014,6.6353,6.4519,6.4281,6.359,6.1763,6.1562,6.1528,6.1528,6.1562,6.1562,6.1562,6.1579,6.1597,6.1606,6.1604,6.2426,6.4232,6.4277,6.5146,6.6969,6.6954,6.6983,6.7014,6.7014,6.7014,4.3572,4.4587,4.4907,4.4217,4.2008,3.9254,3.6383,3.3717,3.1232,2.9085,2.8056,2.7979,2.9372,3.0199,3.1923,3.574,3.8397,4.1202,4.4774,4.8241,5.1853,5.5739,6.0266,6.3714,6.5278,6.5368,6.5233,6.5024,6.459,6.471,6.5577,6.6071,6.6939,6.8271,6.8301,6.8092,6.7643,6.7433,6.7313,6.7313,6.7104,6.7014,6.6877,6.3248,6.1689,6.1703,5.9157,5.798,5.8063,6.0207,6.1505,6.2316,6.3954,6.5248,6.62,6.6785,6.7014,6.7014,6.7014,6.7014,6.7014,6.7014,6.7014,6.7014,6.7014,6.7014,6.7014,6.7014,6.7014,6.7014,6.7014,6.7014,6.7014,6.7014,6.7014,6.7014,6.7014,6.7014,6.7014,6.7014,6.7014,6.7014,6.7014,6.7014,6.7014,6.7014,6.7014,6.6353,6.4535,6.5374,6.5466,6.3623,6.4551,6.4281,6.1813,6.2739,6.3447,6.3461,6.4618,6.5286,6.5298,6.5289,6.5567,6.6139,6.6154,6.644,6.7014,6.7014,6.7014,6.7014,6.7014,6.7014,3.938,4.0991,4.1453,4.0978,3.8671,3.6042,3.4314,3.1821,2.9565,2.8334,2.767,2.7629,2.8706,2.9728,3.1369,3.4368,3.7325,4.0466,4.4011,4.7959,5.1989,5.6072,6.1627,6.5054,6.4784,6.4919,6.4785,6.4321,6.4126,6.4306,6.4964,6.5637,6.649,6.7583,6.7613,6.7433,6.7014,6.7014,6.7014,6.7014,6.7014,6.7014,6.6892,6.3959,6.2735,6.2799,6.0791,5.9916,0.0,6.2164,6.3376,6.4105,6.5248,6.6219,6.7014,6.7014,6.7014,6.7014,6.7014,6.7014,6.7014,6.7014,6.7014,6.7014,6.7014,6.7014,6.7014,6.7014,6.7014,6.7014,6.7014,6.7014,6.7014,6.7014,6.7014,6.7014,6.7014,6.7014,6.7014,6.7014,6.7014,6.7014,6.7014,6.7014,6.7014,6.7014,6.7014,6.657,6.5466,6.6307,6.6554,6.5421,6.6338,6.6091,6.3846,6.4678,6.5319,6.5304,6.6365,6.7014,6.7014,6.7014,6.7014,6.7014,6.7014,6.7014,6.7014,6.7014,6.7014,6.7014,6.7014,6.7014,0.0,3.8409,3.9672,3.9724,3.7336,3.4692,3.3671,3.1014,0.0,2.8088,2.7578,2.7604,2.8756,2.9728,3.1055,3.3257,3.6193,4.0081,4.5446,4.8488,5.2031,5.7137,6.0475,6.2151,6.1569,6.3603,6.4441,6.3243,6.3722,6.4351,6.4964,6.5667,6.637,6.6984,6.7014,6.7014,6.7014,6.7014,6.6937,6.686,6.6953,6.6937,6.6798,6.5073,6.4566,6.4921,6.2787,6.2382,6.3353,6.487,6.5346,6.5297,6.7194,6.7553,6.7014,6.7014,6.7014,6.7014,6.7014,6.7014,6.7014,6.7014,6.7014,6.7014,6.7014,6.7014,6.7014,6.7014,6.7014,6.7014,6.7014,6.7014,6.7014,6.7014,6.7014,6.7014,6.7014,6.7014,6.7014,6.7014,6.7014,6.7014,6.7014,6.7014,6.7014,6.7014,6.7014,6.7014,6.7014,6.7014,6.7014,6.7014,6.7014,6.7014,6.7014,6.7014,6.7014,6.7014,6.7014,6.7014,6.7014,6.7014,6.7014,6.7014,6.7014,6.7014,6.7014,6.7014,6.7014,6.7014,6.7014,6.7014,2.7952,0.0,3.17,3.2008,3.0966,2.9669,0.0,2.8232,2.7528,2.6993,2.6776,2.727,2.9227,2.965,3.0606,3.3379,3.7417,4.1388,4.4749,5.2776,5.9727,6.3468,6.4605,6.5233,6.5562,6.4784,6.4126,6.3797,6.4381,6.4815,6.4994,6.6116,6.6819,6.7014,6.7014,6.7014,6.7014,6.7014,6.6513,6.5564,6.6544,6.6482,6.5531,6.4673,6.4368,6.4508,6.4467,6.3744,6.2854,6.6031,6.6467,6.5223,6.6691,6.7134,6.7014,6.7014,6.7014,6.7014,6.7014,6.7014,6.7014,6.7014,6.7014,6.7014,6.7014,6.7014,6.7014,6.7014,6.7014,6.7014,6.7014,6.7014,6.7014,6.7014,6.7014,6.7014,6.7014,6.7014,6.7014,6.7014,6.7014,6.7014,6.7014,6.7014,6.7014,6.7014,6.7014,6.7014,6.7014,6.7014,6.7014,6.7014,6.7014,6.7014,6.7014,6.7014,6.7014,6.7014,6.7014,6.7014,6.7014,6.7014,6.7014,6.7014,6.7014,6.7014,6.7014,6.7014,6.7014,6.7014,6.7014,6.7014,2.4699,2.6833,2.8953,2.9176,2.8835,2.8389,2.8088,2.7453,2.6842,2.6558,2.6508,2.7027,2.8709,2.9291,3.024,3.2516,3.5236,3.981,4.762,5.6003,6.2487,6.5501,6.5383,6.5353,6.6011,6.4814,6.3887,6.3602,6.447,6.4994,6.4994,6.6281,6.7014,6.7014,6.7014,6.7014,6.7014,6.7014,6.6656,6.598,6.6671,6.664,6.5964,6.566,6.5545,6.5574,6.6251,6.5779,6.4699,6.7042,6.7201,6.603,6.6734,6.7014,6.7014,6.7014,6.7014,6.7014,6.7014,6.7014,6.7014,6.7014,6.7014,6.7014,6.7014,6.7014,6.7014,6.7014,6.7014,6.7014,6.7014,6.7014,6.7014,6.7014,6.7014,6.7014,6.7014,6.7014,6.7014,6.7014,6.7014,6.7014,6.7014,6.7014,6.7014,6.7014,6.7014,6.7014,6.7014,6.7014,6.7014,6.7014,6.7014,6.7014,6.7014,6.7014,6.7014,6.7014,6.7014,6.7014,6.7014,6.7014,6.7014,6.7014,6.7014,6.7014,6.7014,6.7014,6.7014,6.7014,6.7014,6.7014,2.413,2.6833,2.9248,2.8546,2.853,2.8621,2.8555,2.7487,2.6524,2.6608,2.6625,2.713,2.8851,2.9425,3.0314,3.2319,3.3641,3.8722,5.1152,5.7901,6.2538,6.5003,6.4677,6.447,6.5099,6.4351,6.3662,6.3138,6.4291,6.4994,6.4994,6.6281,6.7014,6.7014,6.7014,6.7014,6.7014,6.7014,6.6906,6.6703,6.6906,6.6906,6.6703,6.6921,6.7014,6.7044,6.7703,6.7613,6.7044,6.7703,6.7583,6.7014,6.7014,6.7014,6.7014,6.7014,6.7014,6.7014,6.7014,6.7014,6.7014,6.7014,6.7014,6.7014,6.7014,6.7014,6.7014,6.7014,6.7014,6.7014,6.7014,6.7014,6.7014,6.7014,6.7014,6.7014,6.7014,6.7014,6.7014,6.7014,6.7014,6.7014,6.7014,6.7014,6.7014,6.7014,6.7014,6.7014,6.7014,6.7014,6.7014,6.7014,6.7014,6.7014,6.7014,6.7014,6.7014,6.7014,6.7014,6.7014,6.7014,6.7014,6.7014,6.7014,6.7014,6.7014,6.7014,6.7014,6.7014,6.7014,6.7014,6.7014,2.5435,2.8859,3.0799,2.7042,2.6816,2.7437,2.6968,2.6675,2.6625,2.7085,2.7185,2.8571,3.31,3.2025,3.1843,3.6178,4.0081,4.4689,5.0675,5.7108,6.1762,6.331,6.4666,6.5547,6.5802,6.4246,6.3183,6.3108,6.4291,6.4994,6.4994,6.6281,6.7014,6.7014,6.7014,6.7014,6.7014,6.7014,6.6464,6.5396,6.6482,6.6433,6.5428,6.6513,6.7014,6.7044,6.7703,6.7613,6.7044,6.7703,6.7583,6.7014,6.7014,6.7014,6.7014,6.7014,6.7014,6.7014,6.7014,6.7014,6.7014,6.7014,6.7014,6.7014,6.7014,6.7014,6.7014,6.7014,6.7014,6.7014,6.7014,6.7014,6.7014,6.7014,6.7014,6.7014,6.7014,6.7014,6.7014,6.7014,6.7014,6.7014,6.7014,6.7014,6.7014,6.7014,6.7014,6.7014,6.7014,6.7014,6.7014,6.7014,6.7014,6.7014,6.7014,6.7014,6.7014,6.7014,6.7014,6.7014,6.7014,6.7014,6.7014,6.7014,6.7014,6.7014,6.7014,6.7014,6.7014,6.7014,6.7014,6.7014,2.4187,2.6841,2.907,2.8809,3.1396,3.4008,3.4059,3.3617,3.2849,3.1562,3.2061,3.3187,3.4762,3.4488,3.7839,4.9574,5.4361,5.6869,5.7539,6.0257,6.2911,6.4964,6.4664,6.4514,6.5069,6.3903,6.3108,6.3108,6.4291,6.4994,6.4994,6.6281,6.7014,6.7014,6.7014,6.7014,6.7014,6.7014,6.6703,6.6127,6.6719,6.6702,6.6158,6.6734,6.7014,6.7044,6.7703,6.7613,6.7044,6.7703,6.7583,6.7014,6.7014,6.7014,6.7014,6.7014,6.7014,6.7014,6.7014,6.7014,6.7014,6.7014,6.7014,6.7014,6.7014,6.7014,6.7014,6.7014,6.7014,6.7014,6.7014,6.7014,6.7014,6.7014,6.7014,6.7014,6.7014,6.7014,6.7014,6.7014,6.7014,6.7014,6.7014,6.7014,6.7014,6.7014,6.7014,6.7014,6.7014,6.7014,6.7014,6.7014,6.7014,6.7014,6.7014,6.7014,6.7014,6.7014,6.7014,6.7014,6.7014,6.7014,6.7014,6.7014,6.7014,6.7014,6.7014,6.7014,6.7014,6.7014,6.7014,6.7014,2.3844,2.5777,2.8172,3.169,3.4889,3.7552,3.8972,3.8391,3.7502,3.7419,3.7632,3.7798,3.7659,3.9322,4.5817,6.1471,6.5678,6.6291,6.4306,6.4006,6.4757,6.6775,6.5227,6.4153,6.4516,6.3678,6.3108,6.3108,6.4291,6.4994,6.4994,6.6281,6.7014,6.7014,6.7014,6.7014,6.7014,6.7014,6.7014,6.7014,6.7014,6.7014,6.7014,6.7014,6.7014,6.7044,6.7523,6.7463,6.7044,6.7553,6.7463,6.7014,6.7014,6.7014,6.7014,6.7014,6.7014,6.7014,6.7014,6.7014,6.7014,6.7014,6.7014,6.7014,6.7014,6.7014,6.7014,6.7014,6.7014,6.7014,6.7014,6.7014,6.7014,6.7014,6.7014,6.7014,6.7014,6.7014,6.7014,6.7014,6.7014,6.7014,6.7014,6.7014,6.7014,6.7014,6.7014,6.7014,6.7014,6.7014,6.7014,6.7014,6.7014,6.7014,6.7014,6.7014,6.7014,6.7014,6.7014,6.7014,6.7014,6.7014,6.7014,6.7014,6.7014,6.7014,6.7014,6.7014,6.7014,6.7014,6.7014,6.7014,2.6672,2.878,3.0849,3.4991,3.282,3.072,3.4761,3.4548,3.5775,4.372,4.2254,4.0669,4.4442,4.8901,5.5262,6.511,6.6873,6.6933,6.6756,6.6718,6.6778,6.6987,6.6821,6.6264,6.5078,6.3837,6.3108,6.3108,6.4291,6.4994,6.4994,6.6281,6.7014,6.7014,6.7014,6.7014,6.7014,6.7014,6.7014,6.7014,6.7014,6.7014,6.7014,6.7014,6.7014,6.7014,6.7044,6.7029,6.7014,6.7044,6.7044,6.7014,6.7014,6.7014,6.7014,6.7014,6.7014,6.7014,6.7014,6.7014,6.7014,6.7014,6.7014,6.7014,6.7014,6.7014,6.7014,6.7014,6.7014,6.7014,6.7014,6.7014,6.7014,6.7014,6.7014,6.7014,6.7014,6.7014,6.7014,6.7014,6.7014,6.7014,6.7014,6.7014,6.7014,6.7014,6.7014,6.7014,6.7014,6.7014,6.7014,6.7014,6.7014,6.7014,6.7014,6.7014,6.7014,6.7014,6.7014,6.7014,6.7014,6.7014,6.7014,6.7014,6.7014,6.7014,6.7014,6.7014,6.7014,6.7014,6.7014,6.7014,2.4199,2.5883,2.8327,3.315,3.1875,3.0968,3.6727,4.1364,4.5807,5.0764,5.0754,4.8695,4.496,4.8491,5.4714,6.3198,6.5946,6.6436,6.4815,6.5967,6.6989,6.7004,6.5561,6.4365,6.3888,6.3393,6.3108,6.3108,6.4053,6.474,6.4994,6.6281,6.7014,6.7014,6.7014,6.7014,6.7014,6.7014,6.7014,6.7014,6.7014,6.7014,6.7014,6.7014,6.7014,6.7014,6.7014,6.7014,6.7014,6.7014,6.7014,6.7014,6.7014,6.7014,6.7014,6.7014,6.7014,6.7014,6.7014,6.7014,6.7014,6.7014,6.7014,6.7014,6.7014,6.7014,6.7014,6.7014,6.7014,6.7014,6.7014,6.7014,6.7014,6.7014,6.7014,6.7014,6.7014,6.7014,6.7014,6.7014,6.7014,6.7014,6.7014,6.7014,6.7014,6.7014,6.7014,6.7014,6.7014,6.7014,6.7014,6.7014,6.7014,6.7014,6.7014,6.7014,6.7014,6.7014,6.7014,6.7014,6.7014,6.7014,6.7014,6.7014,6.7014,6.7014,6.7014,6.7014,6.7014,6.7014,6.7014,6.7014,2.3473,2.4737,2.7376,3.2793,3.2208,3.2377,4.0292,4.4965,4.8939,5.3531,5.6149,5.5298,4.7718,5.002,5.5391,6.2532,6.5567,6.6388,6.4571,6.586,6.6703,6.5877,6.4189,6.3103,6.3101,6.3112,6.3108,6.3108,6.3905,6.4576,6.4994,6.6281,6.7014,6.7014,6.7014,6.7014,6.7014,6.7014,6.7014,6.7014,6.7224,6.7194,6.7014,6.7014,6.7014,6.7014,6.7014,6.7014,6.7014,6.7014,6.7014,6.7014,6.7014,6.7014,6.7014,6.7014,6.7014,6.7014,6.7014,6.7014,6.7014,6.7014,6.7014,6.7014,6.7014,6.7014,6.7014,6.7014,6.7014,6.7014,6.7014,6.7014,6.7014,6.7014,6.7014,6.7014,6.7014,6.7014,6.7014,6.7014,6.7014,6.7014,6.7014,6.7014,6.7014,6.7014,6.7014,6.7014,6.7014,6.7014,6.7014,6.7014,6.7014,6.7014,6.7014,6.7014,6.7014,6.7014,6.7014,6.7014,6.7014,6.7014,6.7014,6.7014,6.7014,6.7014,6.7014,6.7014,6.7014,6.7014,6.7014,6.7014,2.5482,2.6515,2.9076,3.4915,3.3966,3.4352,4.4913,4.3424,4.2337,5.1161,5.7342,5.9425,5.3921,5.5254,5.8925,6.4167,6.614,6.7004,6.6985,6.7003,6.6027,6.3401,6.3091,6.3086,6.3109,6.3108,6.3108,6.3108,6.3905,6.4576,6.4979,6.6281,6.7014,6.7014,6.7014,6.7014,6.7014,6.7014,6.7014,6.7014,6.7673,6.7643,6.7014,6.6999,6.7014,6.7014,6.7014,6.7014,6.7014,6.7014,6.7014,6.7014,6.7014,6.7014,6.7014,6.7014,6.7014,6.7014,6.7014,6.7014,6.7014,6.7014,6.7014,6.7014,6.7014,6.7014,6.7014,6.7014,6.7014,6.7014,6.7014,6.7014,6.7014,6.7014,6.7014,6.7014,6.7014,6.7014,6.7014,6.7014,6.7014,6.7014,6.7014,6.7014,6.7014,6.7014,6.7014,6.7014,6.7014,6.7014,6.7014,6.7014,6.7014,6.7014,6.7014,6.7014,6.7014,6.7014,6.7014,6.7014,6.7014,6.7014,6.7014,6.7014,6.7014,6.7014,6.7014,6.7014,6.7014,6.7014,6.7014,6.7014,2.2788,2.8066,3.3947,3.4682,4.0155,4.6013,4.8388,4.8963,5.1096,5.8554,6.1361,6.0877,5.5506,5.9739,6.4577,6.6158,6.6735,6.7004,6.6985,6.7004,6.6012,6.3402,6.3104,6.3111,6.3093,6.3108,6.3479,6.4389,6.4679,6.5069,6.5667,6.652,6.7014,6.7014,6.7014,6.7014,6.7014,6.7014,6.7014,6.7014,6.7194,6.7194,6.6999,6.6994,6.7009,6.7014,6.7014,6.7014,6.7014,6.7014,6.7014,6.7014,6.7014,6.7014,6.7014,6.7014,6.7014,6.7014,6.7014,6.7014,6.7014,6.7014,6.7014,6.7014,6.7014,6.7014,6.7014,6.7014,6.7014,6.7014,6.7014,6.7014,6.7014,6.7014,6.7014,6.7014,6.7014,6.7014,6.7014,6.7014,6.7014,6.7014,6.7014,6.7014,6.7014,6.7014,6.7014,6.7014,6.7014,6.7014,6.7014,6.7014,6.7014,6.7014,6.7014,6.7014,6.7014,6.7014,6.7014,6.7014,6.7014,6.7014,6.7014,6.7014,6.7014,6.7014,6.7014,6.7014,6.7014,6.7014,6.7014,6.7014,2.5961,3.1381,3.701,3.8266,4.4234,5.0347,5.2457,5.5004,5.81,6.2262,6.3113,6.2131,5.8935,6.2258,6.5781,6.6837,6.7001,6.7018,6.7,6.6553,6.5442,6.3357,6.3088,6.3108,6.3108,6.3108,6.3628,6.4912,6.5172,6.5503,6.5981,6.664,6.7014,6.7014,6.7014,6.7014,6.7014,6.7014,6.7014,6.7014,6.7344,6.7344,6.6999,6.6995,6.701,6.7014,6.7014,6.7014,6.7014,6.7014,6.7014,6.7014,6.7014,6.7014,6.7014,6.7014,6.7014,6.7014,6.7014,6.7014,6.7014,6.7014,6.7014,6.7014,6.7014,6.7014,6.7014,6.7014,6.7014,6.7014,6.7014,6.7014,6.7014,6.7014,6.7014,6.7014,6.7014,6.7014,6.7014,6.7014,6.7014,6.7014,6.7014,6.7014,6.7014,6.7014,6.7014,6.7014,6.7014,6.7014,6.7014,6.7014,6.7014,6.7014,6.7014,6.7014,6.7014,6.7014,6.7014,6.7014,6.7014,6.7014,6.7014,6.7014,6.7014,6.7014,6.7014,6.7014,6.7014,6.7014,6.7014,6.7014,3.2226,3.5442,3.8979,4.3985,4.6887,5.018,5.6588,6.0648,6.3094,6.3102,6.3189,6.3306,6.3442,6.3444,6.4218,6.6613,6.7002,6.6984,6.6924,6.5817,6.4547,6.3357,6.3161,6.3108,6.3108,6.3108,6.3658,6.4958,6.5456,6.5802,6.6071,6.667,6.7014,6.7014,6.7014,6.6999,6.6998,6.6999,6.6999,6.6998,6.7794,6.778,6.7014,6.7135,6.7119,6.7014,6.7014,6.7014,6.7014,6.7014,6.7014,6.7014,6.7014,6.7014,6.7014,6.7014,6.7014,6.7014,6.7014,6.7014,6.7014,6.7014,6.7014,6.7014,6.7014,6.7014,6.7014,6.7014,6.7014,6.7014,6.7014,6.7014,6.7014,6.7014,6.7014,6.7014,6.7014,6.7014,6.7014,6.7014,6.7014,6.7014,6.7014,6.7014,6.7014,6.7014,6.7014,6.7014,6.7014,6.7014,6.7014,6.7014,6.7014,6.7104,6.7343,6.7134,6.7014,6.7014,6.7014,6.7014,6.7014,6.7014,6.7014,6.7014,6.7014,6.7014,6.7014,6.7014,6.7014,6.7014,6.7014,6.7014,2.9741,3.6113,4.2618,4.4881,5.0865,5.6565,5.7997,6.08,6.3098,6.31,6.391,6.4908,6.5971,6.616,6.6343,6.6899,6.7002,6.6835,6.6281,6.5518,6.4785,6.4202,6.3528,6.3108,6.3108,6.3108,6.3779,6.5426,6.5651,6.6012,6.6745,6.6909,6.7014,6.7014,6.7014,6.6996,6.7005,6.6996,6.6996,6.7005,6.7191,6.7179,6.7044,6.8084,6.8009,6.7014,6.7014,6.7014,6.7014,6.7014,6.7014,6.7014,6.7014,6.7014,6.7014,6.7014,6.7014,6.7014,6.7014,6.7014,6.7014,6.7014,6.7014,6.7014,6.7014,6.7014,6.7014,6.7014,6.7014,6.7014,6.7014,6.7014,6.7014,6.7014,6.7014,6.7014,6.7014,6.7014,6.7014,6.7014,6.7014,6.7014,6.7014,6.7014,6.7014,6.7014,6.7014,6.7014,6.7014,6.7014,6.7014,6.7014,6.7014,6.7852,6.9901,6.8166,6.7014,6.7014,6.7014,6.7014,6.7014,6.7014,6.7014,6.7014,6.7014,6.7014,6.7014,6.7014,6.7014,6.7014,6.7014,6.7014,3.2403,3.8124,4.3651,4.8896,5.3859,5.7923,5.9764,6.1689,6.3224,6.3647,6.4393,6.541,6.676,6.702,6.7003,6.7003,6.7001,6.6894,6.652,6.5442,6.4636,6.4426,6.3647,6.3108,6.3108,6.348,6.4258,6.5607,6.5802,6.6162,6.6954,6.7014,6.7014,6.7014,6.7014,6.6997,6.6994,6.8224,6.8224,6.6994,6.6997,6.7014,6.7014,6.7737,6.7662,6.7014,6.7014,6.7014,6.7014,6.7014,6.7014,6.7014,6.7014,6.7014,6.7014,6.7014,6.7014,6.7014,6.7014,6.7014,6.7014,6.7014,6.7014,6.7014,6.7014,6.7014,6.7014,6.7014,6.7014,6.7014,6.7014,6.7014,6.7014,6.7014,6.7014,6.7014,6.7014,6.7014,6.7014,6.7014,6.6996,6.701,6.6983,6.7014,6.7014,6.7014,6.7014,6.7014,6.7014,6.7014,6.7478,6.8734,6.8854,6.8914,6.9004,6.7777,6.7014,6.7014,6.7014,6.7014,6.7014,6.7014,6.7014,6.7014,6.7014,6.7014,6.7014,6.7014,6.7014,6.7014,6.7014,6.7014,3.5079,3.9944,4.4533,5.3151,5.6038,5.7704,6.1284,6.2704,6.3481,6.4333,6.4859,6.5533,6.6779,6.7002,6.7014,6.7014,6.7014,6.6954,6.6805,6.5652,6.4681,6.4234,6.3545,6.3108,6.3108,6.3751,6.4573,6.5502,6.5742,6.6175,6.6954,6.7014,6.7014,6.7014,6.7014,6.6983,6.6997,6.9153,6.9153,6.6997,6.6983,6.7014,6.7014,6.7014,6.7014,6.7014,6.7014,6.7014,6.7014,6.7014,6.7014,6.7014,6.7014,6.7014,6.7014,6.7014,6.7014,6.7014,6.7014,6.7014,6.7014,6.7014,6.7014,6.7014,6.7014,6.7014,6.7014,6.7014,6.7014,6.7014,6.7014,6.7014,6.7014,6.7014,6.6998,6.7013,6.6999,6.7014,6.7014,6.7014,6.7372,6.7536,6.7089,6.7014,6.7014,6.7014,6.7014,6.7014,6.7014,6.7014,6.7852,6.9991,7.062,6.9842,6.7208,6.7014,6.7014,6.7014,6.7014,6.7014,6.7014,6.7014,6.7014,6.7014,6.7014,6.7014,6.7014,6.7014,6.7014,6.7014,6.7014,6.7014,3.086,3.9417,4.8488,5.3948,5.7174,5.9605,6.1647,6.3019,6.4066,6.4784,6.5398,6.6117,6.6869,6.7002,6.7014,6.7014,6.7014,6.6731,6.5982,6.6327,6.5814,6.3541,6.3183,6.3108,6.3108,6.3204,6.3786,6.4994,6.5128,6.5664,6.6939,6.7014,6.7014,6.7014,6.7014,6.6996,6.7003,6.7344,6.7344,6.7003,6.6996,6.7014,6.7014,6.7014,6.7014,6.7014,6.7014,6.7014,6.7014,6.7014,6.7014,6.7014,6.7014,6.7014,6.7014,6.7014,6.7014,6.7014,6.7014,6.7014,6.7014,6.7014,6.7014,6.7014,6.7014,6.7014,6.7014,6.7014,6.7014,6.7014,6.7014,6.7014,6.7014,6.7014,6.6979,6.699,6.6983,6.7014,6.7014,6.7014,6.8833,6.967,6.7407,6.7014,6.7014,6.7014,6.7014,6.7014,6.7014,6.7014,6.7134,6.7478,6.9542,6.9842,6.7208,6.7014,6.7014,6.7014,6.7014,6.7014,6.7014,6.7014,6.7014,6.7014,6.7014,6.7014,6.7014,6.7014,6.7014,6.7014,6.7014,6.7014,3.2189,4.146,4.9747,5.3801,5.7439,6.0306,6.1318,6.3094,6.465,6.4934,6.5817,6.664,6.6957,6.7001,6.7014,6.7014,6.6609,6.6311,6.6403,6.5487,6.4394,6.3234,6.3096,6.3108,6.3108,6.3103,6.3639,6.4905,6.5711,6.6368,6.6969,6.7014,6.7014,6.7014,6.7014,6.7013,6.6979,6.7013,6.7013,6.6979,6.7013,6.7014,6.7014,6.7014,6.7014,6.7014,6.7014,6.7014,6.7014,6.7014,6.7014,6.7014,6.7014,6.7014,6.7014,6.7014,6.7014,6.7014,6.7014,6.7014,6.7014,6.7014,6.7014,6.7014,6.7014,6.7014,6.7014,6.7014,6.7014,6.7014,6.7014,6.7014,6.7014,6.7014,6.6994,6.7398,6.8878,6.8026,6.7007,6.699,6.795,6.8358,6.7206,6.6985,6.7014,6.7014,6.7014,6.7014,6.7014,6.7014,6.7014,6.7014,6.9333,7.044,6.9273,6.9183,6.8555,6.7089,6.7014,6.7014,6.7014,6.7014,6.7014,6.7014,6.7014,6.7014,6.7014,6.7014,6.7014,6.7014,6.7014,6.7014,3.2699,4.0855,4.7437,5.2282,5.6464,5.9742,6.1076,6.3244,6.4994,6.4994,6.6071,6.7014,6.7014,6.7014,6.7014,6.7014,6.6265,6.5846,6.6267,6.4457,6.3088,6.3102,6.3097,6.3108,6.3108,6.3105,6.3773,6.5397,6.6416,6.7014,6.7014,6.7014,6.7014,6.7014,6.7014,6.7014,6.7014,6.7014,6.7014,6.7014,6.7014,6.7014,6.7014,6.7014,6.7014,6.7014,6.7014,6.7014,6.7014,6.7014,6.7014,6.7014,6.7014,6.7014,6.7014,6.7014,6.7014,6.7014,6.7014,6.7014,6.7014,6.7014,6.7014,6.7014,6.7014,6.7014,6.7014,6.7014,6.7014,6.7014,6.7014,6.7014,6.7014,6.7014,6.6991,6.7529,6.9485,6.8373,6.6989,6.7001,6.7554,6.7992,6.798,6.8,6.7792,6.7104,6.7583,6.7747,6.7104,6.7014,6.7014,6.7014,6.8734,6.9901,6.9901,6.9901,6.9064,6.7134,6.7014,6.7014,6.7014,6.7014,6.7014,6.7014,6.7014,6.7014,6.7014,6.7014,6.7014,6.7014,6.7014,6.7014,2.9583,3.4592,4.0093,4.8812,5.3724,5.7404,6.118,6.3573,6.4994,6.4994,6.6071,6.7014,6.7014,6.7014,6.7014,6.7014,6.6265,6.5442,6.4651,6.3713,6.3102,6.311,6.3093,6.3108,6.3108,6.3105,6.4174,6.6716,6.6959,6.7014,6.7014,6.7014,6.7014,6.7014,6.7014,6.7014,6.7014,6.7014,6.7014,6.7014,6.7014,6.7014,6.7014,6.7014,6.7014,6.7014,6.7014,6.7014,6.7014,6.7014,6.7014,6.7014,6.7014,6.7014,6.7014,6.7014,6.7014,6.7014,6.7014,6.7014,6.7014,6.7014,6.7014,6.7014,6.7014,6.7014,6.7014,6.7014,6.7014,6.7014,6.7014,6.7014,6.7014,6.7014,6.6999,6.7042,6.7175,6.7097,6.6983,6.7013,6.9016,7.071,7.0679,7.0688,6.9871,6.7358,6.9123,6.9812,6.7313,6.7014,6.7014,6.7014,6.7134,6.7194,6.7194,6.7194,6.7134,6.7014,6.7014,6.7014,6.7014,6.7014,6.7014,6.7014,6.7014,6.7014,6.7014,6.7014,6.7014,6.7014,6.7014,6.7014,2.7452,3.2912,3.8698,4.4319,5.1021,5.6581,5.7975,6.2121,6.5518,6.5084,6.6071,6.7014,6.7014,6.7014,6.7014,6.7014,6.637,6.5547,6.4532,6.3639,6.3102,6.3109,6.3108,6.3108,6.3108,6.3105,6.4174,6.6807,6.7004,6.7014,6.7014,6.7014,6.7014,6.7014,6.7014,6.7014,6.7014,6.7014,6.7014,6.7014,6.7014,6.7014,6.7014,6.7014,6.7014,6.7014,6.7014,6.7014,6.7014,6.7014,6.7014,6.7014,6.7014,6.7014,6.7014,6.7014,6.7014,6.7014,6.7014,6.7014,6.7014,6.7014,6.7014,6.7014,6.7014,6.7014,6.7014,6.7014,6.7014,6.7014,6.7014,6.7014,6.7014,6.7014,6.8275,6.949,6.9504,6.9507,6.9506,6.9506,7.0272,7.0898,7.0899,7.0907,7.059,6.9632,7.029,7.056,6.9632,6.8046,6.7014,6.7014,6.7014,6.7014,6.7014,6.7014,6.7014,6.7014,6.7014,6.7014,6.7014,6.7014,6.7014,6.7014,6.7014,6.7014,6.7014,6.7014,6.7014,6.7014,6.7014,6.7014,2.4753,2.9879,3.5592,4.1032,4.6845,5.233,5.6551,6.0535,6.3723,6.5054,6.6221,6.7014,6.7014,6.7014,6.7014,6.7014,6.643,6.5742,6.5039,6.3862,6.3102,6.3098,6.311,6.3108,6.3108,6.3105,6.4174,6.6807,6.7004,6.7014,6.7014,6.7014,6.7014,6.7014,6.7014,6.7014,6.7014,6.7014,6.7014,6.7014,6.7014,6.7014,6.7014,6.7014,6.7014,6.7014,6.7014,6.7014,6.7014,6.7014,6.7014,6.7014,6.7014,6.7014,6.7014,6.7014,6.7014,6.7014,6.7014,6.7014,6.7014,6.7014,6.7014,6.7014,6.7014,6.7014,6.7014,6.7014,6.7014,6.7014,6.7014,6.7014,6.7224,6.8099,6.9658,7.0899,7.0912,7.091,7.0912,7.0912,7.0893,7.0902,7.0908,7.0889,7.0889,7.0889,7.0889,7.0889,7.0889,6.9393,6.8315,6.8315,6.8315,6.8315,6.8315,6.7508,6.7014,6.7014,6.7014,6.7014,6.7014,6.7014,6.7014,6.7014,6.7014,6.7014,6.7014,6.7014,6.7014,6.7014,6.7014,6.7014,0.0,0.0,0.0,3.8928,4.1194,4.4547,5.6778,5.871,5.9371,6.471,6.6311,6.6819,6.6969,6.7014,6.7014,6.7014,6.646,6.6026,6.5996,6.4397,6.3163,6.3103,6.3113,6.3093,6.3108,6.3105,6.4189,6.6807,6.7019,6.6984,6.7014,6.7014,6.7014,6.7014,6.7014,6.7014,6.7014,6.7014,6.7014,6.7014,6.7014,6.7014,6.7014,6.7014,6.7014,6.7014,6.7014,6.7014,6.7014,6.7014,6.7014,6.7014,6.7014,6.7014,6.7014,6.7014,6.7014,6.7014,6.7014,6.7014,6.7014,6.7014,6.7014,6.7014,6.7014,6.7014,6.7014,6.7014,6.7014,6.7014,6.7014,6.7014,6.7676,7.0265,7.0889,7.0914,7.0896,7.0908,7.0905,7.0919,7.0889,7.0889,7.0889,7.0889,7.0889,7.0889,7.0889,7.0889,7.0889,7.0889,7.0889,7.0889,7.0889,7.0889,7.0889,6.8555,6.7134,6.7134,6.7134,6.7074,6.7014,6.7014,6.7014,6.7014,6.7014,6.7014,6.7014,6.7074,6.7134,6.7119,6.7044,6.7014,2.1656,0.0,0.0,0.0,0.0,0.0,4.6172,4.992,5.4017,5.9803,6.1164,6.245,6.6281,6.7014,6.7014,6.7014,6.6849,6.655,6.6071,6.5532,6.4666,6.3267,6.3102,6.31,6.3109,6.3087,6.4173,6.6791,6.7005,6.7003,6.6984,6.7014,6.7014,6.7014,6.7014,6.7014,6.7014,6.7014,6.7014,6.7014,6.7014,6.7014,6.7014,6.7014,6.7014,6.7014,6.7014,6.7014,6.7014,6.7014,6.7014,6.7014,6.7014,6.7014,6.7014,6.7014,6.7014,6.7014,6.7014,6.7014,6.7014,6.7014,6.7014,6.7014,6.7014,6.7014,6.7014,6.7014,6.7014,6.7014,6.7014,6.7014,6.7674,7.0287,7.0889,7.0917,7.0921,7.0905,7.0914,7.0908,7.0889,7.0889,7.0889,7.0889,7.0889,7.0889,7.0889,7.0889,7.0889,7.0889,7.0889,7.0889,7.0889,7.0889,7.0889,7.0231,6.9812,6.9812,6.9812,6.8974,6.7074,6.7014,6.7014,6.7014,6.7014,6.7014,6.7014,6.8884,6.9812,6.9782,6.7867,6.7014,0.0,0.0,0.0,0.0,0.0,0.0,4.5234,4.8603,5.245,6.0342,6.1972,6.2839,6.5652,6.64,6.658,6.658,6.6835,6.6849,6.646,6.6191,6.5473,6.4069,6.343,6.3116,6.3109,6.31,6.3726,6.5276,6.5877,6.6237,6.6444,6.6804,6.7014,6.7014,6.7014,6.7014,6.7014,6.7014,6.7014,6.7014,6.7014,6.7014,6.7014,6.7014,6.7014,6.7014,6.7014,6.7014,6.7014,6.7014,6.7014,6.7014,6.7014,6.7014,6.7014,6.7014,6.7014,6.7014,6.7014,6.7014,6.7014,6.7014,6.7014,6.7014,6.7014,6.7014,6.7014,6.7014,6.7014,6.7014,6.7014,6.7822,6.9004,7.053,7.0889,7.0889,7.0889,7.0889,7.0889,7.0889,7.0889,7.0889,7.0889,7.0889,7.0889,7.0889,7.0889,7.0889,7.0889,7.0889,7.0889,7.0889,7.0889,7.0889,7.0889,7.0889,7.0889,7.0889,7.0889,6.9722,6.7104,6.7014,6.7014,6.7014,6.7014,6.7553,6.8615,7.0171,7.0889,7.0829,6.8226,6.7014,0.0,0.0,0.0,0.0,0.0,0.0,4.8008,4.9751,5.1505,6.1449,6.3483,6.3483,6.3469,6.4082,6.4545,6.4381,6.5413,6.64,6.6924,6.649,6.5847,6.5174,6.4099,6.3354,6.3228,6.3189,6.3177,6.3103,6.4323,6.5248,6.5681,6.6534,6.7014,6.7014,6.7014,6.7014,6.7014,6.7014,6.7014,6.7014,6.7014,6.7014,6.7014,6.7014,6.7014,6.7014,6.7014,6.7014,6.7014,6.7014,6.7014,6.7014,6.7014,6.7014,6.7014,6.7014,6.7014,6.7014,6.7014,6.7014,6.7014,6.7014,6.7014,6.7014,6.7014,6.7014,6.7014,6.7014,6.7224,6.7418,6.7418,6.9153,7.0889,7.0889,7.0889,7.0889,7.0889,7.0889,7.0889,7.0889,7.0889,7.0889,7.0889,7.0889,7.0889,7.0889,7.0889,7.0889,7.0889,7.0889,7.0889,7.0889,7.0889,7.0889,7.0889,7.0889,7.0889,7.0889,7.0889,6.9871,6.7537,6.7418,6.7418,6.7418,6.7418,6.8585,7.0889,7.0889,7.0889,7.0829,6.8226,6.7014,0.0,0.0,0.0,0.0,0.0,0.0,3.6259,3.7913,4.0825,4.6621,4.7777,4.8992,5.312,5.488,5.5341,5.4269,5.8231,6.2734,6.6475,6.6894,6.655,6.5877,6.5607,6.5024,6.3917,6.3813,6.3606,6.3148,6.4636,6.5592,6.5696,6.6534,6.7014,6.7014,6.7014,6.7014,6.7014,6.7014,6.7014,6.7014,6.7014,6.7014,6.7014,6.7014,6.7014,6.7014,6.7014,6.7014,6.7014,6.7014,6.7014,6.7014,6.7014,6.7014,6.7014,6.7014,6.7014,6.7014,6.7014,6.7014,6.7014,6.7014,6.7014,6.7014,6.7014,6.7014,6.7014,6.7014,6.8525,7.0141,7.0141,7.053,7.0889,7.0889,7.0889,7.0889,7.0889,7.0889,7.0889,7.0889,7.0889,7.0889,7.0889,7.0889,7.0889,7.0889,7.0889,7.0889,7.0889,7.0889,7.0889,7.0889,7.0889,7.0889,7.0889,7.0889,7.0889,7.0889,7.0889,7.0679,7.0171,7.0141,7.0141,7.0141,7.0141,7.038,7.0889,7.0889,7.0889,7.0829,6.8226,6.7014,0.0,0.0,0.0,3.3395,0.0,0.0,0.0,3.8174,4.0038,4.5653,4.6251,4.6711,4.9714,5.0803,5.1241,5.1217,5.5927,5.9847,6.0505,6.4006,6.637,6.6026,6.5996,6.5607,6.459,6.4216,6.3753,6.3159,6.4203,6.4979,6.5338,6.6071,6.664,6.6984,6.7014,6.7014,6.7014,6.7014,6.7014,6.7014,6.7014,6.7014,6.7014,6.7014,6.7014,6.7014,6.7014,6.7014,6.7014,6.7014,6.7014,6.7014,6.7014,6.7014,6.7014,6.7014,6.7014,6.7014,6.7014,6.7014,6.7014,6.7014,6.7014,6.7014,6.7014,6.7014,6.7014,6.7014,6.8884,7.0889,7.0889,7.0889,7.0889,7.0889,7.0889,7.0889,7.0889,7.0889,7.0889,7.0889,7.0889,7.0889,7.0889,7.0889,7.0889,7.0889,7.0889,7.0889,7.0889,7.0889,7.0889,7.0889,7.0889,7.0889,7.0889,7.0889,7.0889,7.0889,7.0889,7.0889,7.0889,7.0889,7.0889,7.0889,7.0889,7.0889,7.0889,7.0889,7.0889,7.0859,6.9542,6.8271,0.0,0.0,0.0,0.0,0.0,3.5264,0.0,0.0,0.0,4.5781,4.6172,4.5804,4.6353,4.6653,4.7091,4.7878,5.2534,5.5077,5.2306,5.8278,6.3154,6.3677,6.5203,6.5637,6.4201,6.3228,6.2899,6.3422,6.2959,6.3348,6.4904,6.5637,6.6251,6.6789,6.6939,6.7014,6.7014,6.7014,6.7014,6.7014,6.7014,6.7014,6.7014,6.7014,6.7014,6.7014,6.7014,6.7014,6.7014,6.7014,6.7014,6.7014,6.7014,6.7014,6.7014,6.7014,6.7014,6.7014,6.7014,6.7014,6.7014,6.7014,6.7345,6.7646,6.7149,6.7014,6.7089,6.7597,6.9273,7.0889,7.0889,7.0889,7.0889,7.0889,7.0889,7.0889,7.0889,7.0889,7.0889,7.0889,7.0889,7.0889,7.0889,7.0889,7.0889,7.0889,7.0889,7.0889,7.0889,7.0889,7.0889,7.0889,7.0889,7.0889,7.0889,7.0889,7.0889,7.0889,7.0889,7.0889,7.0889,7.0889,7.0889,7.0889,7.0889,7.0889,7.0889,7.0889,7.0889,7.0889,7.0889,6.9782,0.0,0.0,0.0,0.0,3.7584,0.0,0.0,0.0,3.575,3.4725,0.0,3.6083,3.6172,0.0,0.0,3.6562,4.1285,4.4785,4.3868,4.8495,5.2881,5.5256,6.2271,6.5248,6.1058,5.8949,5.9787,6.4441,6.0505,5.9967,6.4755,6.5637,6.6026,6.6116,6.67,6.7014,6.7014,6.7014,6.7014,6.7014,6.7014,6.7014,6.7014,6.7014,6.7014,6.7014,6.7014,6.7014,6.7014,6.7014,6.7014,6.7014,6.7014,6.7014,6.7014,6.7014,6.7014,6.7014,6.7014,6.7014,6.7014,6.7014,6.8582,7.0023,6.7706,6.7014,6.7478,6.9812,7.0679,7.0889,7.0889,7.0889,7.0889,7.0889,7.0889,7.0889,7.0889,7.0889,7.0889,7.0889,7.0889,7.0889,7.0889,7.0889,7.0889,7.0889,7.0889,7.0889,7.0889,7.0889,7.0889,7.0889,7.0889,7.0889,7.0889,7.0889,7.0889,7.0889,7.0889,7.0889,7.0889,7.0889,7.0889,7.0889,7.0889,7.0889,7.0889,7.0889,7.0889,7.0889,7.0889,7.0739,0.0,0.0,0.0,0.0,0.0,0.0,3.4502,0.0,3.317,0.0,0.0,0.0,0.0,0.0,0.0,0.0,3.908,4.1294,3.876,4.4556,4.9931,5.2205,5.5645,5.8128,5.889,5.8188,5.9893,6.5188,6.0326,5.9578,6.5278,6.5847,6.5996,6.5996,6.664,6.7014,6.7014,6.7014,6.7014,6.7014,6.7014,6.7014,6.7014,6.7014,6.7014,6.7014,6.7014,6.7014,6.7014,6.7014,6.7014,6.7014,6.7014,6.7014,6.7044,6.7433,6.7583,6.7508,6.7128,6.6992,6.6994,6.6983,6.877,7.04,6.7799,6.7014,6.7553,7.0171,7.0889,7.0889,7.0889,7.0889,7.0889,7.0889,7.0889,7.0889,7.0889,7.0889,7.0889,7.0889,7.0889,7.0889,7.0889,7.0889,7.0889,7.0889,7.0889,7.0889,7.0889,7.0889,7.0889,7.0889,7.0889,7.0889,7.0889,7.0889,7.0889,7.0889,7.0889,7.0889,7.0889,7.0889,7.0889,7.0889,7.0889,7.0889,7.0889,7.0889,7.0889,7.0889,7.0889,7.0889,4.206,0.0,0.0,0.0,0.0,0.0,0.0,0.0,0.0,0.0,0.0,0.0,0.0,0.0,0.0,0.0,0.0,3.8094,3.509,4.0003,4.4708,4.6918,4.8585,5.1337,5.5782,5.4927,5.6872,6.3603,5.877,5.856,6.5607,6.6176,6.6191,6.6011,6.664,6.7014,6.7014,6.7014,6.7014,6.7014,6.7014,6.7014,6.7014,6.7014,6.7014,6.7014,6.7014,6.7014,6.7014,6.7014,6.7014,6.7014,6.7014,6.7104,6.7343,6.7838,6.8031,6.8028,6.7663,6.7315,6.7016,6.7012,6.8286,6.9488,6.7574,6.7014,6.7553,7.0171,7.0889,7.0889,7.0889,7.0889,7.0889,7.0889,7.0889,7.0889,7.0889,7.0889,7.0889,7.0889,7.0889,7.0889,7.0889,7.0889,7.0889,7.0889,7.0889,7.0889,7.0889,7.0889,7.0889,7.0889,7.0889,7.0889,7.0889,7.0889,7.0889,7.0889,7.0889,7.0889,7.0889,7.0889,7.0889,7.0889,7.0889,7.0889,7.0889,7.0889,7.0889,7.0889,7.0889,7.0889,0.0,0.0,0.0,3.9541,0.0,0.0,0.0,0.0,3.5011,0.0,0.0,0.0,0.0,0.0,0.0,0.0,0.0,0.0,0.0,0.0,0.0,3.6632,4.2022,4.704,5.1038,4.683,4.8177,5.853,5.4389,5.5675,6.5458,6.661,6.667,6.6026,6.664,6.7014,6.7014,6.7014,6.7014,6.7014,6.7014,6.7014,6.7014,6.7014,6.7014,6.7014,6.7014,6.7014,6.7014,6.7014,6.7014,6.7014,6.7014,6.7403,6.7987,6.7987,6.8116,6.8363,6.8775,6.808,6.7012,6.7011,6.7059,6.712,6.7014,6.7014,6.7553,7.0171,7.0889,7.0889,7.0889,7.0889,7.0889,7.0889,7.0889,7.0889,7.0889,7.0889,7.0889,7.0889,7.0889,7.0889,7.0889,7.0889,7.0889,7.0889,7.0889,7.0889,7.0889,7.0889,7.0889,7.0889,7.0889,7.0889,7.0889,7.0889,7.0889,7.0889,7.0889,7.0889,7.0889,7.0889,7.0889,7.0889,7.0889,7.0889,7.0889,7.0889,7.0889,7.0889,7.0889,7.0889,0.0,0.0,5.5124,4.5642,0.0,0.0,0.0,0.0,0.0,0.0,0.0,0.0,0.0,0.0,0.0,0.0,0.0,0.0,0.0,0.0,0.0,0.0,0.0,0.0,0.0,0.0,5.1307,5.7949,5.7201,0.0,6.6924,6.7134,6.6894,6.667,6.6879,6.7014,6.7014,6.7014,6.7014,6.7014,6.7014,6.7014,6.7014,6.7014,6.7014,6.7014,6.7014,6.7014,6.7014,6.7014,6.7014,6.7014,6.7014,6.7146,6.747,6.8313,6.8865,6.9279,6.9985,6.9948,6.9303,6.7555,6.7014,6.7313,6.9064,6.9572,6.9782,7.0649,7.0889,7.0889,7.0889,7.0889,7.0889,7.0889,7.0889,7.0889,7.0889,7.0889,7.0889,7.0889,7.0889,7.0889,7.0889,7.0889,7.0889,7.0889,7.0889,7.0889,7.0889,7.0889,7.0889,7.0889,7.0889,7.0889,7.0889,7.0889,7.0889,7.0889,7.0889,7.0889,7.0889,7.0889,7.0889,7.0889,7.0889,7.0889,7.0889,7.0889,7.0889,7.0889,7.0889,7.0889,5.6595,5.9189,0.0,5.0011,4.9637,0.0,3.9463,0.0,3.9409,0.0,0.0,0.0,0.0,0.0,0.0,0.0,0.0,0.0,0.0,0.0,0.0,0.0,0.0,0.0,0.0,0.0,0.0,0.0,0.0,0.0,0.0,6.7074,6.7343,6.7343,6.7134,6.7014,6.7014,6.7014,6.7014,6.7014,6.7014,6.7014,6.7014,6.7014,6.7014,6.7014,6.7014,6.7014,6.7014,6.7014,6.7014,6.7014,6.7014,6.7191,6.7606,6.878,6.9588,7.0136,7.0707,7.0884,7.0618,6.8934,6.7762,6.7493,7.0111,7.0889,7.0889,7.0889,7.0889,7.0889,7.0889,7.0889,7.0889,7.0889,7.0889,7.0889,7.0889,7.0889,7.0889,7.0889,7.0889,7.0889,7.0889,7.0889,7.0889,7.0889,7.0889,7.0889,7.0889,7.0889,7.0889,7.0889,7.0889,7.0889,7.0889,7.0889,7.0889,7.0889,7.0889,7.0889,7.0889,7.0889,7.0889,7.0889,7.0889,7.0889,7.0889,7.0889,7.0889,7.0889,7.0889,7.0889]}]]